[[{"header":{"parameterUnit":"m.s-1","parameterCategory":1,"la1":30.6,"la2":29.2853,"lo1":-89.7004,"lo2":-87.6739,"dx":0.0162,"dy":0.0183,"nx":112,"ny":82,"refTime":"2023-01-08T06:00:00:Z","depth":0,"parameterNumber":2,"parameterNumberName":"U-component_of_WINDS"},"data":[0.0,0.0,0.0,0.0,0.0,0.0,0.0,0.0,0.0,0.0,0.0,0.0,0.0,0.0,0.0,0.0,0.0,0.0,0.0,0.0,0.0,0.0,0.0,0.0,0.0,0.0,0.0,0.0,0.0,0.0,0.0,0.0,0.0,0.0,0.0,0.0,0.0,0.0,0.0,0.0,0.0,0.0,0.0,0.0,0.0,0.0,0.0,0.0,0.0,0.0,0.0,0.0,0.0,0.0,0.0,0.0,0.0,0.0,0.0,0.0,0.0,0.0,0.0,0.0,0.0,0.0,0.0,0.0,0.0,0.0,0.0,0.0,0.0,0.0,0.0,0.0,0.0,0.0,0.0,0.0,0.0,0.0,0.0,0.0,0.0,0.0,0.0,0.0,0.0,0.0,0.0,-3.7936,-3.9945,-4.0682,-3.987,-3.8375,-3.6453,-3.4055,0.0,0.0,0.0,0.0,0.0,0.0,0.0,0.0,0.0,0.0,0.0,0.0,0.0,0.0,0.0,0.0,0.0,0.0,0.0,0.0,0.0,0.0,0.0,0.0,0.0,0.0,0.0,0.0,0.0,0.0,0.0,0.0,0.0,0.0,0.0,0.0,0.0,0.0,0.0,0.0,0.0,0.0,0.0,0.0,0.0,0.0,0.0,0.0,0.0,0.0,0.0,0.0,0.0,0.0,0.0,0.0,0.0,0.0,0.0,0.0,0.0,0.0,0.0,0.0,0.0,0.0,0.0,0.0,0.0,0.0,0.0,0.0,0.0,0.0,0.0,0.0,0.0,0.0,0.0,0.0,0.0,0.0,0.0,0.0,0.0,0.0,0.0,0.0,0.0,0.0,0.0,0.0,0.0,0.0,0.0,0.0,0.0,0.0,0.0,0.0,0.0,0.0,0.0,0.0,-3.3416,-3.8073,-4.0018,-4.0916,-4.0634,-3.9273,-3.7376,-3.495,0.0,0.0,0.0,0.0,0.0,0.0,0.0,0.0,0.0,0.0,0.0,0.0,0.0,0.0,0.0,0.0,0.0,0.0,0.0,0.0,0.0,0.0,0.0,0.0,0.0,0.0,0.0,0.0,0.0,0.0,0.0,0.0,0.0,0.0,0.0,0.0,0.0,0.0,0.0,0.0,0.0,0.0,0.0,0.0,0.0,0.0,0.0,0.0,0.0,0.0,0.0,0.0,0.0,0.0,0.0,0.0,0.0,0.0,0.0,0.0,0.0,0.0,0.0,0.0,0.0,0.0,0.0,0.0,0.0,0.0,0.0,0.0,0.0,0.0,0.0,0.0,0.0,0.0,0.0,0.0,0.0,0.0,0.0,0.0,0.0,0.0,0.0,0.0,0.0,0.0,0.0,0.0,0.0,0.0,0.0,0.0,0.0,0.0,0.0,0.0,0.0,0.0,0.0,-3.3516,-3.5563,-3.8943,-4.0278,-4.0864,-4.0821,-3.94,-3.7333,-3.4637,-3.2511,0.0,0.0,0.0,0.0,0.0,0.0,0.0,0.0,0.0,0.0,0.0,0.0,0.0,0.0,0.0,0.0,0.0,0.0,0.0,0.0,0.0,0.0,0.0,0.0,0.0,0.0,0.0,0.0,0.0,0.0,0.0,0.0,0.0,0.0,0.0,0.0,0.0,0.0,0.0,0.0,0.0,0.0,0.0,0.0,0.0,0.0,0.0,0.0,0.0,0.0,0.0,0.0,0.0,0.0,0.0,0.0,0.0,0.0,0.0,0.0,0.0,0.0,0.0,0.0,0.0,0.0,0.0,0.0,0.0,0.0,0.0,0.0,0.0,0.0,0.0,0.0,0.0,0.0,0.0,0.0,0.0,0.0,0.0,0.0,0.0,0.0,0.0,0.0,0.0,0.0,0.0,0.0,0.0,0.0,0.0,0.0,0.0,0.0,0.0,0.0,0.0,0.0,-3.5763,-3.7707,-3.9642,-4.0404,-4.0805,-4.0779,-3.9218,-3.7007,-3.4182,-3.244,0.0,0.0,0.0,0.0,0.0,0.0,0.0,0.0,0.0,0.0,0.0,0.0,0.0,0.0,0.0,0.0,0.0,0.0,0.0,0.0,0.0,0.0,0.0,0.0,0.0,0.0,0.0,0.0,0.0,0.0,0.0,0.0,0.0,0.0,0.0,0.0,0.0,0.0,0.0,0.0,0.0,0.0,0.0,0.0,0.0,0.0,0.0,0.0,0.0,0.0,0.0,0.0,0.0,0.0,0.0,0.0,0.0,0.0,0.0,0.0,0.0,0.0,0.0,0.0,0.0,0.0,0.0,0.0,0.0,0.0,0.0,0.0,0.0,0.0,0.0,0.0,0.0,0.0,0.0,0.0,0.0,0.0,0.0,0.0,0.0,0.0,0.0,0.0,0.0,0.0,0.0,0.0,0.0,0.0,0.0,0.0,0.0,0.0,0.0,0.0,0.0,0.0,-3.574,-3.8283,-3.9564,-4.037,-4.0779,-4.0726,-3.8879,-3.6668,-3.4154,-3.1737,0.0,0.0,0.0,0.0,0.0,0.0,0.0,0.0,0.0,0.0,0.0,0.0,0.0,0.0,0.0,0.0,0.0,0.0,0.0,0.0,0.0,0.0,0.0,0.0,0.0,0.0,0.0,0.0,0.0,0.0,0.0,0.0,0.0,0.0,0.0,0.0,0.0,0.0,0.0,0.0,0.0,0.0,0.0,0.0,0.0,0.0,0.0,0.0,0.0,0.0,0.0,0.0,0.0,0.0,0.0,0.0,0.0,0.0,0.0,0.0,0.0,0.0,0.0,0.0,0.0,0.0,0.0,0.0,0.0,0.0,0.0,0.0,0.0,0.0,0.0,0.0,0.0,0.0,0.0,0.0,0.0,0.0,0.0,0.0,0.0,0.0,0.0,0.0,0.0,0.0,0.0,0.0,0.0,0.0,0.0,0.0,0.0,0.0,0.0,0.0,0.0,0.0,-3.5085,-3.768,0.0,-4.0585,-4.0721,-4.0703,-3.8839,-3.6292,-3.3024,0.0,0.0,0.0,0.0,0.0,0.0,0.0,0.0,0.0,0.0,0.0,0.0,0.0,0.0,0.0,0.0,0.0,0.0,0.0,0.0,0.0,0.0,0.0,0.0,0.0,0.0,0.0,0.0,0.0,0.0,0.0,0.0,0.0,0.0,0.0,0.0,0.0,0.0,0.0,0.0,0.0,0.0,0.0,0.0,0.0,0.0,0.0,0.0,0.0,0.0,0.0,0.0,0.0,0.0,0.0,0.0,0.0,0.0,0.0,0.0,0.0,0.0,0.0,0.0,0.0,0.0,0.0,0.0,0.0,0.0,0.0,0.0,0.0,0.0,0.0,0.0,0.0,0.0,0.0,0.0,0.0,0.0,0.0,0.0,0.0,0.0,0.0,0.0,0.0,0.0,0.0,0.0,0.0,0.0,0.0,0.0,0.0,0.0,0.0,0.0,0.0,0.0,-3.2268,-3.4923,-3.757,0.0,-4.0721,-4.0655,-4.0511,-3.8445,-3.5551,-3.187,0.0,0.0,0.0,0.0,0.0,0.0,0.0,0.0,0.0,0.0,0.0,0.0,0.0,0.0,0.0,0.0,0.0,0.0,0.0,0.0,0.0,0.0,0.0,0.0,0.0,0.0,0.0,0.0,0.0,0.0,0.0,0.0,0.0,0.0,0.0,0.0,0.0,0.0,0.0,0.0,0.0,0.0,0.0,0.0,0.0,0.0,0.0,0.0,0.0,0.0,0.0,0.0,0.0,0.0,0.0,0.0,0.0,0.0,0.0,0.0,0.0,0.0,0.0,0.0,0.0,0.0,0.0,0.0,0.0,0.0,0.0,0.0,0.0,0.0,0.0,0.0,0.0,0.0,0.0,0.0,0.0,0.0,0.0,0.0,0.0,0.0,0.0,0.0,0.0,0.0,0.0,0.0,0.0,0.0,0.0,0.0,0.0,0.0,0.0,0.0,0.0,0.0,-3.2343,-3.5399,-3.8185,-4.0474,-4.0692,-4.0563,-4.012,-3.7504,-3.4381,0.0,0.0,0.0,0.0,0.0,0.0,0.0,0.0,0.0,0.0,0.0,0.0,0.0,0.0,0.0,0.0,0.0,0.0,0.0,0.0,0.0,0.0,0.0,0.0,0.0,0.0,0.0,0.0,0.0,0.0,0.0,0.0,0.0,0.0,0.0,0.0,0.0,0.0,0.0,0.0,0.0,0.0,0.0,0.0,0.0,0.0,0.0,0.0,0.0,0.0,0.0,0.0,0.0,0.0,0.0,0.0,0.0,0.0,0.0,0.0,0.0,0.0,0.0,0.0,0.0,0.0,0.0,0.0,0.0,0.0,0.0,0.0,0.0,0.0,0.0,0.0,0.0,0.0,0.0,0.0,0.0,0.0,0.0,0.0,0.0,0.0,0.0,0.0,0.0,0.0,0.0,0.0,0.0,0.0,0.0,0.0,0.0,0.0,0.0,0.0,0.0,0.0,0.0,-3.1541,-3.5484,-3.8709,-4.0361,-4.0559,-4.0415,-4.0139,-3.7504,-3.454,-3.1315,0.0,0.0,0.0,0.0,0.0,0.0,0.0,0.0,0.0,0.0,0.0,0.0,0.0,0.0,0.0,0.0,0.0,0.0,0.0,0.0,0.0,0.0,0.0,0.0,0.0,0.0,0.0,0.0,0.0,0.0,0.0,0.0,0.0,0.0,0.0,0.0,0.0,0.0,0.0,0.0,0.0,0.0,0.0,0.0,0.0,0.0,0.0,0.0,0.0,0.0,0.0,0.0,0.0,0.0,0.0,0.0,0.0,0.0,0.0,0.0,0.0,0.0,0.0,0.0,0.0,0.0,0.0,0.0,0.0,0.0,0.0,0.0,0.0,0.0,0.0,0.0,0.0,0.0,0.0,0.0,0.0,0.0,0.0,0.0,0.0,0.0,0.0,0.0,0.0,0.0,0.0,0.0,0.0,0.0,0.0,0.0,0.0,0.0,0.0,0.0,0.0,0.0,-3.1168,-3.5506,-3.895,-4.0361,-4.0508,-4.0389,-4.0101,-3.7938,-3.522,-3.2002,0.0,0.0,0.0,0.0,0.0,0.0,0.0,0.0,0.0,0.0,0.0,0.0,0.0,0.0,0.0,0.0,0.0,0.0,0.0,0.0,0.0,0.0,0.0,0.0,0.0,0.0,0.0,0.0,0.0,0.0,0.0,0.0,0.0,0.0,0.0,0.0,0.0,0.0,0.0,0.0,0.0,0.0,0.0,0.0,0.0,0.0,0.0,0.0,0.0,0.0,0.0,0.0,0.0,0.0,0.0,0.0,0.0,0.0,0.0,0.0,0.0,0.0,0.0,0.0,0.0,0.0,0.0,0.0,0.0,0.0,0.0,0.0,0.0,0.0,0.0,0.0,0.0,0.0,0.0,0.0,0.0,0.0,0.0,0.0,0.0,0.0,0.0,0.0,0.0,0.0,0.0,0.0,0.0,0.0,0.0,0.0,0.0,0.0,0.0,0.0,0.0,0.0,-3.1168,-3.5581,-3.9026,-4.0361,-4.0508,-4.0389,-4.0101,-3.8629,-3.6276,-3.2949,0.0,0.0,0.0,0.0,0.0,0.0,0.0,0.0,0.0,0.0,0.0,0.0,0.0,0.0,0.0,0.0,0.0,0.0,0.0,0.0,0.0,0.0,0.0,0.0,0.0,0.0,0.0,0.0,0.0,0.0,0.0,0.0,0.0,0.0,0.0,0.0,0.0,0.0,0.0,0.0,0.0,0.0,0.0,0.0,0.0,0.0,0.0,0.0,0.0,0.0,0.0,0.0,0.0,0.0,0.0,0.0,0.0,0.0,0.0,0.0,-2.6735,0.0,0.0,0.0,0.0,0.0,0.0,0.0,0.0,0.0,0.0,0.0,0.0,0.0,0.0,0.0,0.0,0.0,0.0,0.0,0.0,0.0,0.0,0.0,0.0,0.0,0.0,0.0,0.0,0.0,0.0,0.0,0.0,0.0,0.0,0.0,0.0,0.0,0.0,0.0,0.0,0.0,-3.1228,-3.6047,-3.9634,-4.0438,-4.0508,-4.0389,-4.0101,-3.8629,-3.6768,-3.4623,-3.2052,0.0,0.0,0.0,0.0,0.0,0.0,0.0,0.0,0.0,0.0,0.0,0.0,0.0,0.0,0.0,0.0,0.0,0.0,0.0,0.0,0.0,0.0,0.0,0.0,0.0,0.0,0.0,0.0,0.0,0.0,0.0,0.0,0.0,0.0,0.0,0.0,0.0,0.0,0.0,0.0,0.0,0.0,0.0,0.0,0.0,0.0,0.0,0.0,0.0,0.0,0.0,0.0,0.0,0.0,0.0,0.0,0.0,0.0,0.0,0.0,-2.5448,0.0,0.0,0.0,0.0,0.0,0.0,0.0,0.0,0.0,0.0,0.0,0.0,0.0,0.0,0.0,0.0,0.0,0.0,0.0,0.0,0.0,0.0,0.0,0.0,0.0,0.0,0.0,0.0,0.0,0.0,0.0,0.0,0.0,0.0,0.0,0.0,0.0,0.0,0.0,0.0,-3.1005,-3.6105,-3.9797,-4.0269,-4.0406,-4.0438,-4.0304,-3.9261,-3.7954,-3.6396,-3.3755,0.0,0.0,0.0,0.0,0.0,0.0,0.0,0.0,0.0,0.0,0.0,0.0,0.0,0.0,0.0,0.0,0.0,0.0,0.0,0.0,0.0,0.0,0.0,0.0,0.0,0.0,0.0,0.0,0.0,0.0,0.0,0.0,0.0,0.0,0.0,0.0,0.0,0.0,0.0,0.0,0.0,0.0,0.0,0.0,0.0,0.0,0.0,0.0,0.0,0.0,0.0,0.0,0.0,-3.2692,-3.2631,-3.2466,-3.1254,-3.0352,-2.9626,-2.6924,-2.5289,-2.4471,-2.3333,0.0,0.0,0.0,0.0,0.0,0.0,0.0,0.0,0.0,0.0,0.0,0.0,0.0,0.0,0.0,0.0,0.0,0.0,0.0,0.0,0.0,0.0,0.0,0.0,-2.9499,-2.9336,0.0,0.0,0.0,0.0,0.0,0.0,0.0,0.0,0.0,0.0,0.0,0.0,-3.1217,-3.6085,-3.958,-4.0042,-4.0339,-4.0454,-4.0422,-3.9924,-3.9124,-3.8003,-3.5295,-3.2791,0.0,0.0,0.0,0.0,0.0,0.0,0.0,0.0,0.0,0.0,0.0,0.0,0.0,0.0,0.0,0.0,0.0,0.0,0.0,0.0,0.0,0.0,0.0,0.0,0.0,0.0,0.0,0.0,0.0,0.0,0.0,0.0,-3.1844,-3.2299,0.0,0.0,0.0,0.0,0.0,0.0,0.0,0.0,0.0,0.0,0.0,0.0,0.0,-3.3252,-3.3477,-3.4132,-3.4125,-3.3451,-3.3451,-3.3117,-3.2466,-3.1254,-3.0664,-3.0456,-2.8628,0.0,-2.5028,-2.3964,0.0,0.0,0.0,0.0,0.0,0.0,0.0,0.0,0.0,0.0,0.0,0.0,0.0,0.0,0.0,0.0,0.0,0.0,0.0,0.0,0.0,0.0,-3.0943,-3.092,-3.0915,-3.0903,0.0,-2.8911,-2.723,-2.7176,-2.7093,0.0,0.0,0.0,0.0,0.0,0.0,0.0,-3.3088,-3.6443,-3.8958,-3.9986,-4.0339,-4.0406,-4.0196,-3.9819,-3.9425,-3.892,-3.6874,-3.4659,-3.2462,-2.9621,0.0,0.0,0.0,0.0,0.0,0.0,0.0,0.0,0.0,0.0,0.0,0.0,0.0,0.0,0.0,0.0,0.0,0.0,0.0,0.0,0.0,0.0,0.0,0.0,0.0,0.0,0.0,0.0,0.0,-3.1781,-3.2546,-3.2719,-3.2961,-3.2991,0.0,0.0,0.0,0.0,0.0,0.0,0.0,0.0,0.0,-3.37,-3.3663,-3.3891,-3.4426,-3.4732,-3.4597,-3.3944,-3.3944,-3.3687,-3.3225,-3.2178,-3.1493,-3.1003,-2.9488,-2.8096,-2.6802,-2.5706,-2.4448,-2.3346,0.0,0.0,0.0,0.0,-2.3716,-2.4382,-2.4596,-2.5129,0.0,-2.7001,0.0,0.0,0.0,0.0,0.0,0.0,0.0,0.0,0.0,0.0,-3.119,-3.119,-3.119,-3.119,-3.119,-3.0302,-2.9343,0.0,-2.8054,-2.7283,-2.5901,0.0,0.0,0.0,0.0,-3.1422,-3.3323,-3.6222,-3.8488,-3.9435,-3.9802,-3.9944,-3.9819,-3.9096,-3.8476,-3.809,-3.6378,-3.4588,-3.2967,-3.0082,-2.7432,0.0,0.0,0.0,0.0,0.0,0.0,0.0,0.0,0.0,0.0,0.0,0.0,0.0,0.0,0.0,0.0,0.0,0.0,0.0,0.0,0.0,0.0,0.0,0.0,0.0,0.0,0.0,0.0,-3.2616,-3.3131,-3.3259,-3.3622,-3.3784,0.0,0.0,0.0,0.0,0.0,0.0,-3.3577,-3.3577,-3.3843,-3.4366,-3.428,-3.4572,-3.5276,-3.5247,-3.4925,-3.4427,-3.436,-3.4189,-3.3876,-3.2916,-3.2181,-3.1618,-3.0319,-2.9291,-2.8399,-2.7232,-2.5816,-2.4499,-2.5147,-2.4994,-2.4447,-2.4447,-2.516,-2.6077,-2.6031,-2.6776,-2.7872,-2.8489,0.0,-2.7965,-2.8359,0.0,0.0,0.0,0.0,-3.119,-3.119,-3.119,-3.119,-3.119,-3.119,-3.119,-3.119,-3.1138,-3.0789,0.0,-2.9309,-2.8405,-2.6879,0.0,0.0,0.0,0.0,-3.2277,-3.3938,-3.6159,-3.7962,-3.8968,-3.9201,-3.9255,-3.9161,-3.8103,-3.7276,-3.6868,-3.5148,-3.3661,-3.2616,-2.977,-2.7525,-2.6072,0.0,0.0,0.0,0.0,0.0,0.0,0.0,0.0,0.0,0.0,0.0,0.0,0.0,0.0,0.0,0.0,0.0,0.0,0.0,0.0,0.0,0.0,0.0,0.0,0.0,0.0,0.0,0.0,0.0,-3.4229,-3.4585,0.0,0.0,0.0,0.0,-3.3658,-3.3734,-3.3869,-3.3968,-3.407,-3.457,-3.5391,-3.5416,-3.5455,-3.5468,-3.5493,-3.5354,-3.5051,-3.4812,-3.4508,-3.4128,-3.3033,-3.2466,-3.2398,-3.1476,-3.0409,-2.9164,-2.7883,-2.6936,-2.6435,-2.7071,-2.7008,-2.6445,-2.6445,-2.6866,-2.7394,-2.7264,-2.7919,-2.896,-2.9732,-2.966,-2.9197,-2.9156,-2.923,0.0,0.0,-3.061,-3.119,-3.119,-3.119,-3.119,-3.119,-3.119,-3.119,-3.119,-3.0888,-3.0692,0.0,-3.1367,-3.1355,-3.056,0.0,-3.1315,-3.1701,-3.1931,-3.3052,-3.5805,-3.6525,-3.7355,-3.8931,-3.8737,-3.8319,-3.8003,-3.6906,-3.6062,-3.5711,-3.3558,-3.1962,-3.1124,-2.8748,-2.6495,-2.4442,-2.4431,0.0,0.0,0.0,0.0,0.0,0.0,0.0,0.0,0.0,0.0,0.0,0.0,0.0,0.0,0.0,0.0,0.0,0.0,0.0,0.0,0.0,0.0,0.0,0.0,0.0,0.0,0.0,0.0,-3.4586,-3.5343,0.0,-3.5149,-3.5239,-3.511,-3.4654,-3.4793,-3.4899,-3.4968,-3.5007,-3.5213,-3.5543,-3.5522,-3.5522,-3.5543,-3.5522,-3.5369,-3.5124,-3.4832,-3.4529,-3.4176,-3.3335,-3.2952,-3.2921,-3.1986,-3.1336,-3.084,-3.0141,-2.9017,-2.7815,-2.8468,-2.8572,-2.8388,-2.8388,-2.8799,-2.9308,-2.9527,-3.0099,-3.0831,-3.1104,-3.087,-3.0516,-3.0476,-3.0476,-3.0589,-3.0746,-3.0987,-3.119,-3.119,-3.119,-3.119,-3.119,-3.119,-3.119,-3.119,-3.107,-3.1011,-3.1162,-3.1353,-3.1147,-3.0143,-3.1437,-3.229,-3.1454,-3.2374,-3.3954,-3.6046,-3.638,-3.686,-3.7968,-3.7933,-3.7433,-3.6509,-3.5526,-3.4555,-3.3452,-3.1676,-3.0267,-2.9303,-2.7629,-2.6352,-2.5632,-2.5251,-2.351,0.0,0.0,0.0,0.0,0.0,0.0,0.0,0.0,0.0,0.0,0.0,0.0,0.0,0.0,0.0,0.0,0.0,0.0,0.0,0.0,0.0,0.0,0.0,0.0,0.0,0.0,-3.4252,-3.4732,-3.5608,-3.5974,-3.5494,-3.5616,-3.5646,-3.5446,-3.5504,-3.5534,-3.5554,-3.5522,-3.5495,-3.5432,-3.5495,-3.543,-3.5315,-3.5321,-3.5254,-3.5124,-3.4715,-3.4486,-3.4338,-3.3561,-3.3196,-3.3136,-3.2366,-3.1951,-3.1771,-3.1507,-3.0583,-2.9377,-2.961,-2.9585,-2.9406,-2.9406,-2.9761,-3.0402,-3.1147,-3.1593,-3.1808,-3.1986,-3.1657,-3.119,-3.119,-3.119,-3.119,-3.119,-3.119,-3.119,-3.119,-3.119,-3.119,-3.119,-3.119,-3.119,-3.119,-3.119,-3.119,-3.119,-3.1462,-3.1482,-3.0692,-3.2143,-3.3065,-3.2161,-3.3046,-3.4338,-3.5846,-3.5947,-3.6193,-3.7,-3.6817,-3.6266,-3.5286,-3.3732,-3.2369,-3.1449,-2.9466,-2.8009,-2.728,-2.581,-2.4905,-2.4692,-2.4286,-2.3045,-2.0944,0.0,0.0,0.0,0.0,0.0,0.0,0.0,0.0,0.0,0.0,0.0,0.0,0.0,0.0,0.0,0.0,0.0,0.0,0.0,0.0,0.0,0.0,0.0,-3.2366,-3.3351,-3.4202,-3.4729,-3.5306,-3.5684,-3.5691,-3.5831,-3.59,-3.5903,-3.5725,-3.565,-3.5677,-3.5566,-3.5369,-3.5124,-3.5354,-3.5223,-3.4713,-3.4963,-3.5069,-3.5069,-3.447,-3.436,-3.4634,-3.367,-3.3232,-3.3166,-3.2695,-3.2264,-3.1808,-3.1808,-3.1582,-3.1151,-3.0559,-2.9978,-2.9451,-2.9451,-2.9848,-3.0567,-3.1987,-3.2196,-3.188,-3.2332,-3.1878,-3.119,-3.119,-3.119,-3.119,-3.119,-3.119,-3.119,-3.119,-3.119,-3.119,-3.119,-3.1224,-3.1224,-3.1224,-3.1258,-3.1258,-3.1258,-3.1948,-3.257,-3.2535,-3.3225,-3.3876,-3.4152,-3.3943,0.0,-3.5343,-3.5198,-3.5284,-3.6119,-3.5467,-3.4775,-3.4352,-3.1402,-2.966,-2.9791,-2.7065,-2.5423,-2.5218,-2.3555,-2.232,-2.1543,-2.1518,-2.1856,-2.2618,0.0,0.0,0.0,0.0,0.0,0.0,0.0,0.0,0.0,0.0,0.0,0.0,0.0,0.0,0.0,0.0,0.0,0.0,0.0,0.0,0.0,0.0,-3.1773,-3.24,-3.3198,-3.399,-3.4712,-3.5109,-3.5466,-3.5831,-3.5777,-3.5821,-3.59,-3.5725,-3.5601,-3.564,-3.5546,-3.5369,-3.5124,-3.5174,-3.5034,-3.4713,-3.4793,-3.4812,-3.4812,-3.4383,-3.4246,-3.4315,-3.3839,-3.3634,-3.3606,-3.3196,-3.2727,-3.2264,-3.1915,-3.1582,-3.119,-3.0998,-3.0838,-3.0716,-3.0716,-3.1244,-3.1951,-3.2366,-3.24,-3.2264,-3.2057,-3.1325,-3.0601,-3.1072,-3.0878,-3.0642,-3.1072,-3.119,-3.119,-3.119,-3.119,-3.119,-3.119,-3.1596,-3.1968,-3.1968,-3.2408,-3.2814,-3.2814,-3.3546,-3.3809,-3.2712,-3.3225,-3.3876,-3.4152,-3.3943,0.0,-3.5343,-3.5198,-3.4844,-3.4504,-3.4053,-3.3334,-3.2232,-3.0664,-2.9681,-2.9523,-2.7843,-2.6418,-2.5384,-2.4388,-2.3462,-2.2673,-2.1895,-2.1856,0.0,0.0,0.0,0.0,0.0,0.0,0.0,0.0,0.0,0.0,0.0,0.0,0.0,0.0,0.0,0.0,0.0,0.0,0.0,0.0,0.0,0.0,-3.1842,-3.2438,-3.2894,-3.3327,-3.3883,-3.468,-3.5025,-3.5372,-3.5772,-3.5783,-3.5831,-3.59,-3.5723,-3.565,-3.5591,-3.5418,-3.5207,-3.4944,-3.4718,-3.4538,-3.4307,-3.4269,-3.43,-3.4486,-3.4189,-3.4093,-3.4176,-3.3928,-3.3807,0.0,-3.355,-3.3196,-3.2795,-3.25,-3.2021,0.0,0.0,0.0,0.0,0.0,-3.2021,-3.2795,-3.2795,-3.2631,-3.2468,-3.2161,-3.1439,-3.0757,-3.1112,-3.0958,-3.0757,-3.1112,-3.119,-3.119,-3.119,-3.119,-3.1258,-3.1562,-3.1968,-3.2374,-3.2679,-3.3085,-3.3473,-3.3721,-3.4324,0.0,-3.3901,-3.4068,-3.4392,-3.471,-3.4227,-3.4086,-3.4859,-3.4681,-3.4321,-3.3844,-3.3465,-3.2865,-3.1862,-3.0352,0.0,0.0,0.0,-2.5979,-2.4718,-2.3985,0.0,0.0,0.0,0.0,0.0,0.0,0.0,0.0,-2.3985,-2.4294,0.0,0.0,0.0,0.0,0.0,0.0,0.0,0.0,0.0,0.0,0.0,0.0,0.0,0.0,0.0,0.0,-3.2627,-3.2988,-3.353,-3.3557,-3.382,-3.4614,-3.495,-3.529,-3.5663,-3.5816,-3.5927,-3.6017,-3.5794,-3.5646,-3.5687,0.0,0.0,0.0,0.0,-3.3845,-3.3716,-3.3606,-3.3755,-3.4128,-3.3928,-3.3928,-3.4128,-3.3902,-3.3807,-3.3807,-3.3807,-3.3578,-3.3196,-3.3196,-3.2663,-3.1842,-3.1428,-3.1308,-3.1389,-3.1806,-3.25,-3.3166,-3.3136,0.0,0.0,-3.2401,-3.177,-3.1112,-3.119,-3.1151,-3.1112,-3.119,-3.119,-3.119,-3.119,-3.1258,-3.1495,-3.2138,-3.2408,-3.2713,-3.3389,-3.3592,-3.3794,-3.4328,-3.4756,-3.526,-3.5768,-3.5453,-3.5239,-3.5454,-3.4633,-3.4013,-3.4189,-3.3917,-3.3716,-3.3606,0.0,0.0,-3.2327,-3.0283,-2.9092,-2.9207,-2.6903,-2.5024,-2.3961,-2.3177,-2.2776,-2.2668,-2.198,-2.2146,-2.3065,-2.3872,-2.4221,-2.4142,-2.3476,-2.3367,0.0,0.0,0.0,0.0,0.0,0.0,0.0,0.0,0.0,0.0,0.0,0.0,0.0,0.0,0.0,-3.1547,-3.1667,-3.2097,-3.3424,-3.3275,-3.346,-3.4593,-3.4774,-3.5047,-3.5655,-3.5671,-3.6005,-3.6829,-3.5891,-3.5598,-3.6292,-3.5003,-3.4097,-3.3795,-3.3342,-3.319,-3.3284,-3.3284,-3.3486,-3.3876,0.0,0.0,-3.3876,-3.3797,-3.3807,-3.3807,-3.3807,-3.3578,-3.3196,-3.3196,-3.289,-3.2298,-3.1878,-3.1914,-3.2298,-3.2727,-3.3045,-3.3136,-3.2795,-3.2601,-3.2366,-3.1694,-3.1004,-3.0559,-3.1038,-3.0878,0.0,-3.1072,-3.119,-3.119,-3.119,-3.163,-3.2104,-3.228,-3.3186,-3.41,-3.4235,-3.4742,-3.5358,-3.5877,-3.6404,-3.6897,-3.7356,-3.6656,-3.5901,-3.5566,-3.5088,-3.4613,-3.4264,-3.367,-3.3067,-3.2415,-3.1675,-3.1114,-3.0977,-2.9871,-2.9239,-2.9355,-2.7448,-2.5936,-2.5107,-2.4388,-2.3676,-2.3035,-2.2858,-2.2899,-2.3025,-2.3904,-2.391,-2.3086,-2.4339,-2.4964,0.0,0.0,0.0,0.0,0.0,0.0,0.0,0.0,0.0,0.0,0.0,-2.6622,0.0,0.0,-3.0478,-3.1266,-3.1662,-3.2293,-3.348,-3.3229,-3.3342,-3.4572,-3.5229,-3.5767,-3.6279,-3.6306,-3.6642,-3.7537,-3.6493,-3.6059,-3.6631,-3.5558,-3.4595,-3.3829,-3.344,-3.3239,-3.3202,-3.3196,-3.3408,-3.3807,-3.3807,-3.3807,-3.3807,-3.3807,-3.3807,-3.3807,-3.3807,-3.3698,-3.3494,-3.3255,-3.3166,-3.3136,-3.2663,-3.2631,-3.289,-3.3105,-3.335,-3.3465,-3.3225,-3.2854,-3.2435,-3.1986,-3.1355,-3.0797,-3.1112,-3.0998,-3.0797,-3.1112,-3.119,-3.1292,-3.163,-3.2002,-3.2517,-3.322,-3.3964,-3.4607,-3.4979,-3.5351,-3.5766,-3.6291,-3.6825,-3.736,-3.7825,-3.7676,-3.7132,-3.6075,-3.5386,-3.466,-3.3807,-3.3429,-3.2961,-3.2322,-3.1668,-3.1253,-3.1218,-3.032,-2.9632,-2.925,-2.779,-2.6582,-2.5826,-2.4842,-2.393,-2.3075,-2.2677,-2.2286,-2.1806,-2.2237,-2.2213,-2.1711,-2.2614,-2.3213,0.0,0.0,0.0,0.0,0.0,0.0,0.0,0.0,-2.4698,-2.4698,-2.5242,-2.5935,-2.6661,-2.8451,-3.016,-3.1126,-3.156,-3.2183,-3.3379,-3.3103,-3.3232,-3.4421,-3.5551,-3.6344,-3.6658,-3.6712,-3.7092,-3.7947,-3.6848,-3.6368,-3.685,-3.5966,-3.5054,-3.4167,-3.3661,-3.3407,-3.3418,-3.3304,-3.3408,-3.3807,-3.3807,-3.3807,-3.3807,-3.3807,-3.3807,-3.3807,-3.3807,-3.3807,-3.378,-3.3465,-3.3522,-3.378,-3.3465,-3.3321,-3.3321,-3.3321,-3.3522,-3.3807,-3.3689,-3.3166,-3.2466,-3.2366,-3.1806,-3.119,-3.119,-3.119,-3.119,-3.119,-3.119,-3.136,-3.2104,-3.2408,-3.2848,-3.4167,-3.4607,-3.4878,-3.5487,-3.5622,-3.5766,-3.6291,-3.6825,-3.7324,-3.761,-3.8049,-3.7833,-3.6399,-3.5564,-3.455,-3.3086,-3.2787,-3.2563,-3.2057,-3.1627,-3.1329,-3.1329,-3.0493,-2.9675,-2.8958,-2.7961,-2.6891,-2.5778,-2.4734,-2.3688,-2.2578,-2.1954,-2.1227,-2.0333,-2.0311,-2.0161,-1.9921,-1.99,-2.0462,-2.6058,-2.5561,0.0,-2.413,-2.4406,-2.4808,0.0,0.0,-2.4297,-2.4297,-2.4725,-2.5363,-2.6189,-2.7222,-2.8738,-3.0954,-3.0303,-3.0379,-3.2713,-3.2721,-3.2866,-3.4028,-3.4846,-3.5481,-3.5803,-3.5784,-3.6323,-3.7637,-3.6174,-3.5801,-3.7071,-3.5083,-3.4125,-3.4694,-3.3349,-3.3158,-3.4248,-3.3557,-3.3408,-3.3807,-3.3807,-3.3807,-3.3807,-3.3807,-3.3807,-3.3807,-3.3807,-3.3807,-3.3807,-3.3753,-3.378,-3.3807,-3.3753,-3.3753,-3.3753,-3.3753,-3.378,-3.3753,-3.3408,-3.2952,-3.24,-3.2022,-3.1582,-3.119,-3.119,-3.119,-3.119,-3.119,-3.119,-3.136,-3.2104,-3.278,-3.3491,-3.4303,-3.5013,-3.552,-3.5588,-3.5622,-3.5766,-3.6291,-3.6825,-3.7109,-3.689,-3.6949,-3.6725,-3.582,-3.5602,-3.463,-3.2127,-3.1416,-3.0959,-3.0442,-2.9923,-2.9685,-2.9685,-2.9088,-2.8583,-2.8308,-2.7652,-2.6357,-2.4172,-2.3938,-2.2885,-2.091,-2.0782,-2.0333,-1.9441,-1.9401,-1.8657,-1.7385,-1.7364,-1.8526,-2.5727,0.0,0.0,0.0,-2.4937,-2.4852,-2.4536,-2.4095,-2.3787,-2.3787,-2.4424,-2.5134,-2.5463,-2.6773,-2.8145,0.0,-2.9594,-2.9977,-3.1332,-3.1846,-3.2327,-3.2777,-3.4929,-3.6364,-3.6406,-3.6671,-3.7108,-3.7833,-3.687,-3.6597,-3.7394,-3.6326,-3.5723,-3.5787,-3.5249,-3.5087,-3.5367,-3.4608,-3.4337,-3.4504,-3.4027,-3.3807,-3.3807,-3.3807,-3.3807,-3.3807,-3.3807,-3.3807,-3.3807,-3.3807,-3.3662,-3.3465,-3.3689,-3.3634,-3.3494,-3.3689,-3.3807,-3.378,-3.3606,-3.3105,-3.2466,-3.2264,-3.1733,-3.119,-3.119,-3.119,-3.119,-3.119,-3.1495,-3.1901,-3.2205,-3.3152,-3.41,-3.4438,-3.5081,-3.5622,-3.5622,-3.5622,-3.5766,-3.6291,-3.658,-3.6759,-3.6969,-3.6649,-3.5865,-3.4436,-3.4093,-3.3141,-3.0857,-3.0087,-2.9567,-2.9093,-2.8884,-2.8732,-2.8732,-2.8517,-2.7823,-2.6606,-2.5953,-2.4884,-2.3203,-2.2854,-2.2001,-2.0633,-1.9975,-1.9213,-1.8337,-1.7692,-1.7044,-1.6387,-1.6427,-1.6896,-2.4362,0.0,0.0,-2.4973,-2.4992,-2.4818,-2.4446,-2.379,-2.3356,-2.3653,-2.415,-2.4636,-2.4945,-2.6446,-2.7702,-2.7971,-2.8544,-2.901,-2.9472,-3.0461,-3.1399,-3.2032,-3.4715,-3.6656,-3.7064,-3.7661,-3.8014,-3.7957,-3.7424,-3.727,-3.7641,-3.7362,-3.7144,-3.7007,-3.69,-3.678,-3.6602,-3.5846,-3.5285,-3.499,-3.4431,-3.4027,-3.3807,-3.3807,-3.3807,-3.3807,-3.3662,-3.3634,-3.3634,-3.3634,-3.3465,-3.3262,-3.3634,-3.3606,-3.3408,-3.3689,-3.3807,-3.3807,-3.3807,-3.3314,-3.2663,-3.2533,-3.1986,-3.1351,-3.123,-3.119,-3.119,-3.119,-3.1562,-3.207,-3.2476,-3.3389,-3.4303,-3.4709,-3.5216,-3.5622,-3.5622,-3.5622,-3.5677,-3.6079,-3.6118,-3.6157,-3.6306,-3.5568,-3.4349,-3.2611,-3.1732,-3.0767,-2.9318,-2.8418,-2.7823,-2.7519,-2.747,-2.739,-2.713,-2.7214,-2.6496,-2.4796,-2.44,-2.3685,-2.2408,-2.1724,-2.0828,-1.9817,-1.8743,-1.7861,-1.7243,-1.6152,-1.5682,-1.5761,-1.5374,-1.5296,0.0,0.0,-2.3554,-2.3408,-2.4069,-2.4781,-2.4759,-2.3708,-2.3019,-2.4015,-2.3862,-2.3818,-2.4779,-2.6304,-2.7218,-2.7022,-2.6856,-2.6942,-2.7352,-2.838,-2.9954,-3.2319,-3.3935,-3.5587,0.0,-3.8365,-3.8613,-3.794,-3.7395,-3.7338,-3.7891,-3.7453,-3.7558,-3.8328,-3.7592,-3.7408,-3.7851,-3.7031,-3.607,-3.499,-3.4954,-3.4578,-3.3807,-3.3807,-3.3807,-3.378,-3.3408,-3.3232,-3.3232,-3.3232,-3.3196,-3.3262,-3.3634,-3.3807,-3.378,-3.3807,-3.3807,-3.3807,-3.3807,-3.3522,-3.3105,-3.2666,-3.2161,-3.1733,-3.1312,-3.119,-3.119,-3.119,-3.1224,-3.1562,-3.3017,-3.3423,-3.3795,-3.525,-3.5588,-3.5622,-3.5622,-3.5622,-3.5622,-3.5622,-3.5454,-3.5065,-3.4298,-3.3156,-3.1759,-3.0137,-2.8575,-2.756,-2.748,-2.6328,-2.5494,-2.5494,-2.5494,-2.5162,-2.4323,-2.4596,-2.4361,-2.3299,-2.3597,-2.3073,-2.1491,-2.04,-1.9238,-1.7784,-1.6682,-1.6076,-1.6076,-1.5096,-1.481,-1.5123,-1.3877,-1.344,-2.1115,0.0,-2.1426,-2.1787,-2.1629,-2.1395,-2.1395,-2.1173,-2.114,-2.1868,-2.3595,-2.5279,-2.5914,-2.6743,-2.7375,-2.7666,-2.6078,-2.5105,-2.603,-2.6895,-2.8133,-3.006,-3.3576,0.0,0.0,0.0,0.0,-3.7395,-3.752,-3.7798,-3.8214,-3.8083,-3.8451,-3.9519,-3.9075,-3.8878,-3.9024,-3.8016,-3.7209,-3.6633,-3.5532,-3.4578,-3.3807,-3.3807,-3.3634,-3.3408,-3.3291,-3.3014,-3.2763,-3.3075,-3.3014,-3.2795,-3.3225,-3.3408,-3.3408,-3.3408,-3.3578,-3.3807,-3.3807,-3.355,-3.3105,-3.2631,-3.2161,-3.1733,-3.1312,-3.119,-3.119,-3.119,-3.1529,-3.1901,-3.1935,-3.3017,-3.4047,-3.3573,-3.4566,-3.5453,-3.5052,-3.5316,-3.5711,-3.6071,-3.5043,-3.4216,-3.4252,-3.2493,-3.0441,-2.8514,-2.6908,-2.5791,-2.5384,-2.4026,-2.3289,-2.3794,-2.3272,-2.2955,-2.2911,-2.3389,-2.3143,-2.1958,-2.167,-2.1029,-1.9831,-1.8722,-1.7943,-1.7446,-1.6317,-1.5728,-1.5512,-1.4431,-1.4019,-1.4116,-1.3493,-1.336,-1.897,-1.8949,-1.9011,-1.9481,-1.9573,-1.9748,-2.0179,-2.0296,-2.066,-2.2251,-2.4298,-2.6029,-2.6641,-2.7228,-2.7514,-2.7136,-2.5695,-2.4851,-2.5435,-2.6702,-2.8276,-3.0211,-3.3816,-3.6355,0.0,0.0,0.0,-3.7704,-3.7968,-3.8323,-3.8612,-3.8785,-3.9214,-4.0062,-3.9882,-3.9731,-3.958,-3.874,-3.7914,-3.7037,-3.5679,-3.4578,-3.3807,-3.3807,-3.3634,-3.3408,-3.3255,-3.3014,-3.2763,-3.289,-3.2795,-3.2535,-3.2827,-3.2952,-3.2983,-3.3136,-3.3255,-3.3343,-3.3522,-3.3437,-3.3105,-3.2466,-3.2057,-3.1733,-3.1312,-3.119,-3.119,-3.119,-3.1529,-3.1833,-3.163,-3.2487,-3.3205,-3.2607,-3.3494,-3.4397,-3.394,-3.422,-3.4645,-3.5296,-3.3611,-3.2266,-3.2879,-3.0513,-2.8052,-2.6515,-2.5025,-2.3974,-2.3878,-2.2713,-2.183,-2.1649,-2.1128,-2.0677,-2.04,-2.0877,-2.0673,-1.9635,-1.9369,-1.9061,-1.8399,-1.7334,-1.67,-1.6589,-1.5532,-1.4636,-1.4003,-1.3305,-1.2738,-1.24,-1.2561,-1.2734,-1.543,-1.6009,-1.6521,-1.6907,-1.8265,-1.977,-2.0944,-2.1013,-2.1741,-2.4914,-2.5788,-2.6257,0.0,0.0,-2.7556,-2.5675,-2.5764,-2.5868,-2.5585,-2.7662,-3.0131,0.0,0.0,0.0,0.0,0.0,0.0,-3.8719,0.0,-3.8826,-3.9107,-3.9438,-3.9775,-4.0101,-4.012,-3.9962,-3.958,-3.9238,-3.8146,-3.634,-3.5495,-3.4651,-3.3844,-3.3807,-3.378,-3.3689,-3.335,-3.3136,-3.3075,-3.2666,-3.2433,-3.2433,-3.2433,-3.2466,-3.2533,-3.2983,-3.2858,-3.2533,-3.2983,-3.3136,-3.3014,-3.2092,-3.1771,-3.1733,-3.1312,-3.119,-3.119,-3.119,-3.119,-3.132,-3.1996,-3.1792,-3.1528,-3.2175,-3.2406,-3.2452,-3.253,-3.2464,-3.2635,-3.3361,-3.1262,-2.9565,-3.0114,-2.7399,-2.4939,-2.4332,-2.2848,-2.2087,-2.282,-2.2224,-2.1101,-1.9314,-1.9052,-1.8434,-1.6991,-1.7222,-1.7255,-1.6773,-1.7056,-1.7253,-1.7253,-1.6191,-1.5465,-1.5233,-1.4116,-1.2994,-1.1638,-1.1638,-1.1158,-1.0201,-1.1238,-1.1662,-1.6067,-1.6729,-1.7598,-1.8573,-1.9125,-1.9588,-1.9861,-2.1264,-2.2899,-2.4556,-2.6941,-2.8834,0.0,0.0,0.0,-2.6689,-2.5553,0.0,-2.702,-2.8633,0.0,-3.3546,0.0,-3.6932,-3.8079,-3.851,0.0,0.0,-3.898,-3.9144,-3.9438,-3.9797,-4.0101,-4.0389,-4.0214,-3.9962,-3.958,-3.9073,-3.8258,-3.7184,-3.6376,-3.5532,-3.4688,-3.4064,-3.3465,-3.2822,-3.2695,-3.2334,-3.1731,-3.1914,-3.1986,-3.1986,-3.1986,-3.2196,-3.2466,-3.223,-3.2298,-3.2466,-3.223,-3.24,-3.2565,-3.1986,-3.1771,-3.1733,-3.1312,-3.119,-3.119,-3.119,-3.0878,-3.0551,-3.075,-3.0762,-3.0647,-3.0354,-3.0935,-3.164,-3.18,-3.161,-3.1667,-3.2476,-3.0703,-2.8822,-2.7997,-2.6055,-2.4292,-2.3311,-2.1731,-2.1041,-2.2049,-2.0424,-1.9028,-1.8616,-1.7477,-1.6793,-1.675,-1.6867,-1.7008,-1.7169,-1.6472,-1.6108,-1.6108,-1.5061,-1.4351,-1.4049,-1.3722,-1.2811,-1.13,-1.13,-1.083,-1.0019,-1.0897,-1.1594,-1.793,-1.8941,-1.9898,-2.0519,-2.1189,-2.1493,-2.1338,-2.2713,-2.4502,-2.5744,-2.8271,0.0,0.0,0.0,0.0,0.0,0.0,0.0,-2.8688,-3.0505,-3.24,0.0,-3.6551,0.0,-3.8715,-3.9511,-4.0056,0.0,-3.9519,-3.9314,-3.9797,-4.0002,-4.0233,-4.0508,-4.0101,-3.9664,-3.9234,-3.8862,-3.8285,-3.7477,-3.667,-3.574,-3.4688,-3.3887,-3.3166,-3.2466,0.0,-3.2231,-3.1768,-3.1806,-3.1771,-3.1771,-3.1585,-3.1731,-3.1914,-3.1842,-3.1878,-3.1914,-3.1842,-3.1878,-3.1878,-3.162,-3.1545,-3.1507,-3.1269,-3.1032,-3.0797,-3.0797,-3.0393,-2.9892,-2.9892,-2.9671,-2.941,-2.8992,-2.938,-2.9839,-2.9977,-2.9807,-2.9521,-2.8943,-2.8084,-2.6881,-2.5065,-2.352,-2.2319,-2.1778,-1.9657,-1.8381,-1.9008,-1.7934,-1.6826,-1.598,-1.4729,-1.4066,-1.4568,-1.4597,-1.4999,-1.5846,-1.5311,-1.4977,-1.4977,-1.3886,-1.3168,-1.2877,-1.2383,-1.1351,-0.9846,-0.9846,-0.9426,-0.8565,-1.0264,-1.125,-2.0765,-2.2246,-2.3164,-2.3185,-2.395,-2.4556,-2.3987,-2.4898,-2.6368,-2.772,0.0,-3.0721,-3.0438,0.0,-2.9082,-2.9239,0.0,-2.8602,-3.0548,-3.2906,-3.4796,-3.5508,-3.7935,-3.9693,-4.0028,-4.0983,-4.1625,-4.1656,-4.03,-3.9739,-4.0233,-4.0273,-4.0289,-4.0389,-3.9823,-3.9249,-3.8689,-3.8689,-3.8291,-3.7564,-3.6728,-3.5715,-3.4551,-3.3651,-3.3073,-3.2717,-3.2611,0.0,-3.2683,-3.2192,-3.2046,-3.2081,-3.1657,-3.1427,-3.1404,-3.1757,-3.1576,-3.1269,-3.1585,-3.1507,-3.119,-3.119,-3.119,-3.119,-3.1112,-3.0716,-3.03,-3.0323,-2.9802,-2.9261,-2.9356,-2.8675,-2.8012,-2.8012,-2.7878,-2.7731,-2.7803,-2.7621,-2.6821,-2.4499,-2.4499,-2.4266,-2.204,-2.0644,-1.9725,-1.9581,-1.7046,-1.508,-1.4927,-1.505,-1.4436,-1.291,-1.1742,-1.1294,-1.1721,-1.191,-1.2517,-1.3802,-1.3997,-1.3997,-1.3913,-1.2857,-1.212,-1.1698,-1.07,-0.9507,-0.8164,-0.8164,-0.7702,-0.6846,-0.9572,-1.0819,-2.5105,-2.6541,-2.7545,-2.7791,-2.7561,-2.6862,-2.5377,-2.6794,0.0,0.0,0.0,-3.16,-3.0611,-3.0265,0.0,-2.888,0.0,0.0,0.0,0.0,-3.6788,0.0,0.0,0.0,0.0,0.0,0.0,0.0,0.0,-4.1439,-4.1106,-4.107,-4.0669,-3.9797,-3.9389,-3.9045,-3.8689,-3.8689,-3.8392,-3.7814,-3.7018,-3.6283,-3.5581,-3.4162,-3.3671,-3.379,-3.3202,0.0,-3.3862,-3.3351,-3.3391,-3.371,-3.3189,-3.2645,-3.2144,-3.219,-3.1777,-3.119,-3.1274,-3.1269,-3.119,-3.119,-3.119,-3.1112,-3.0601,-3.0375,-3.0283,-3.0371,-2.9418,-2.8544,-2.9087,-2.8216,-2.7193,-2.7193,-2.7067,-2.6907,-2.6807,-2.6008,-2.4747,-2.2694,-2.2418,-2.2072,-2.0777,-1.8951,-1.7282,-1.6333,-1.4267,-1.2504,-1.1545,-1.1922,-1.2176,-1.1875,-1.1109,-1.0761,-1.0802,-1.1668,-1.236,-1.2589,-1.3561,-1.3646,-1.2674,-1.2419,-1.1697,-1.0533,-1.0282,-0.9507,-0.8164,-0.8164,-0.7819,-0.7061,-0.9616,-1.1076,-3.0095,-3.165,-3.2388,-3.2055,-3.0869,-2.9536,-2.8291,0.0,0.0,0.0,0.0,-3.2047,-3.1406,0.0,0.0,0.0,0.0,0.0,0.0,0.0,0.0,0.0,0.0,0.0,0.0,0.0,0.0,0.0,0.0,-4.2569,-4.1376,-4.0731,-4.0058,-3.9364,-3.9175,-3.8822,-3.83,-3.83,-3.8032,-3.7542,-3.6684,-3.6042,-3.5556,-3.4364,-3.3821,-3.3727,-3.3351,0.0,-3.3727,-3.3515,-3.3556,-3.3727,-3.3473,-3.2949,-3.2381,-3.2713,-3.2171,-3.1258,-3.163,-3.1529,-3.119,-3.119,-3.119,-3.1117,-3.049,-3.0323,-3.0215,-2.9477,-2.8771,-2.8184,-2.8082,-2.7464,-2.6703,-2.6238,-2.5145,-2.4166,-2.4119,-2.3221,-2.2009,-2.0542,-1.9812,-1.9077,-1.8013,-1.6056,-1.4545,-1.4657,-1.2468,-1.0616,-1.0125,-0.9588,-0.9505,-1.0169,-0.9329,-0.9052,-0.9662,-1.0183,-1.1037,-1.2237,-1.2248,-1.2248,-1.2322,-1.1123,-1.0221,-0.9524,-0.8923,-0.8279,-0.7603,-0.7692,-0.7643,-0.7355,-1.003,-1.1334,-3.4551,-3.5797,-3.5861,-3.4453,-3.2676,-3.1035,-2.9894,-2.9642,0.0,0.0,-3.1614,-3.2215,-3.2215,0.0,-3.1549,0.0,0.0,0.0,0.0,0.0,0.0,0.0,0.0,0.0,0.0,0.0,0.0,0.0,0.0,0.0,-4.1466,-4.0165,-3.9399,-3.91,-3.9032,-3.8678,-3.7895,-3.7899,-3.7649,-3.7173,-3.6385,-3.5836,-3.548,-3.4594,-3.4069,-3.3863,-3.3694,0.0,0.0,-3.3905,-3.3948,-3.4032,-3.3905,-3.3423,-3.2814,-3.3423,-3.2713,-3.1495,-3.1948,-3.1719,-3.1151,-3.0878,-3.1012,-3.1113,-3.0508,-3.0267,-2.9875,-2.877,-2.8222,-2.7757,-2.706,-2.6564,-2.6019,-2.4871,-2.2839,-2.1247,-2.1247,-2.0216,-1.8957,-1.7985,-1.6798,-1.5812,-1.4946,-1.3024,-1.1969,-1.304,-1.0318,-0.8208,-0.8208,-0.7613,-0.7347,-0.7921,-0.7489,-0.7496,-0.8456,-0.8711,-0.9662,-1.1466,-1.095,-1.0864,-1.1552,-0.9789,-0.8765,-0.8536,-0.7548,-0.7129,-0.719,-0.7312,-0.74,-0.7561,-1.0286,-1.1568,-3.6928,-3.6946,-3.5733,-3.297,-3.1344,-2.9797,-2.7843,0.0,0.0,-3.039,-3.1369,-3.2215,-3.2215,0.0,0.0,0.0,0.0,-3.2618,0.0,0.0,0.0,0.0,0.0,0.0,0.0,0.0,0.0,0.0,0.0,0.0,-4.1569,-4.001,-3.9142,-3.9096,-3.8841,-3.8501,-3.7935,-3.7887,-3.7658,-3.7173,-3.6596,-3.6353,-3.6236,-3.5011,-3.482,-3.5385,-3.4675,0.0,0.0,-3.5606,-3.5693,-3.6084,-3.5562,-3.4945,-3.4303,-3.437,-3.3457,-3.2131,-3.1665,-3.1358,-3.0998,-2.9935,-3.0344,-3.1173,-3.0551,-2.9858,-2.9291,-2.9204,-2.8074,-2.6801,-2.6483,-2.5733,-2.4661,-2.2717,-2.0599,-1.9091,-1.9091,-1.7489,-1.574,-1.4629,-1.3503,-1.2517,-1.2169,-1.0773,-1.0008,-1.0787,-0.7054,-0.4101,-0.4101,-0.5913,-0.6637,-0.5354,-0.6352,-0.7163,-0.7231,-0.8281,-0.8973,-0.9235,-1.0096,-1.0183,-0.9235,-0.8897,-0.8287,-0.7312,-0.7014,-0.7082,-0.7353,-0.7366,-0.7509,-0.7863,-1.0175,-1.1404,-3.7319,-3.641,-3.4637,-3.2319,-3.0328,-2.9012,-2.9195,0.0,0.0,-3.1699,-3.2102,-3.2215,-3.2215,-3.2491,-3.2616,-3.2265,-3.2516,0.0,-3.4694,0.0,0.0,0.0,0.0,0.0,0.0,0.0,0.0,0.0,0.0,0.0,-4.0563,-3.9472,-3.8869,-3.8869,-3.8442,-3.799,-3.7479,-3.7146,-3.6886,-3.6713,-3.6162,-3.6076,-3.637,-3.5552,-3.5318,-3.5588,-3.5318,0.0,0.0,-3.5711,-3.5756,-3.5898,-3.5711,-3.5161,-3.4532,-3.5003,-3.4235,-3.2866,-3.2243,-3.195,-3.1672,-3.0409,-3.0605,-3.1039,-2.9541,-2.9396,-2.9493,-2.8121,-2.755,-2.7025,-2.5807,-2.3895,-2.2029,-2.1156,-1.8891,-1.6944,-1.6944,-1.5209,-1.3665,-1.3965,-1.2209,-1.0656,-1.103,-0.7021,-0.3901,-0.4182,-0.2667,-0.1423,-0.1425,-0.4746,-0.6293,-0.4283,-0.5747,-0.6974,-0.7048,-0.7498,-0.7997,-0.8886,-0.8623,-0.8574,-0.8811,-0.806,-0.7796,-0.8029,-0.7297,-0.7418,-0.8442,-0.8543,-0.8668,-0.88,-1.1361,-1.2389,-3.7028,-3.5676,-3.3649,-3.124,-2.9404,-2.84,0.0,0.0,0.0,-3.1297,-3.1539,-3.1331,-3.1501,-3.2215,-3.2624,-3.2142,-3.2635,-3.3604,-3.5128,0.0,0.0,0.0,0.0,0.0,0.0,0.0,0.0,0.0,0.0,0.0,0.0,-3.8774,-3.8548,-3.8689,-3.8187,-3.7649,-3.7218,-3.6667,-3.6409,-3.6378,-3.5844,-3.5893,-3.6363,-3.5834,-3.5622,-3.5622,-3.5622,0.0,0.0,-3.5363,-3.5442,-3.5543,-3.5363,-3.5116,-3.4903,-3.5397,-3.481,-3.3642,-3.3051,-3.2593,-3.2034,-3.0615,-3.0576,-3.0623,-2.8495,-2.8771,-2.9459,-2.7525,-2.6756,-2.6133,-2.4541,-2.1803,-1.9418,-1.9049,-1.675,-1.4601,-1.4253,-1.2747,-1.1693,-1.2561,-1.0067,-0.8136,-0.9358,-0.4275,0.0445,0.1873,0.2138,0.2136,0.214,-0.2055,-0.4656,-0.3721,-0.4986,-0.6189,-0.6893,-0.694,-0.7361,-0.8289,-0.7512,-0.7375,-0.8106,-0.726,-0.7253,-0.8183,-0.768,-0.8043,-0.9232,-0.9881,-1.0099,-1.0162,-1.2242,-1.32,-3.6205,-3.5039,-3.2988,-2.9441,-2.8471,-2.8006,0.0,0.0,0.0,-2.8477,-2.8969,-2.9438,-2.9929,-3.1044,-3.1916,-3.1893,-3.2582,-3.3604,-3.5128,0.0,0.0,0.0,0.0,0.0,0.0,0.0,0.0,0.0,0.0,0.0,0.0,-3.79,-3.8151,-3.8689,-3.8187,-3.7649,-3.7182,-3.6672,-3.6378,-3.6378,-3.5844,-3.5887,-3.6347,-3.5865,-3.5622,0.0,0.0,0.0,0.0,-3.4858,-3.5004,-3.5509,-3.4858,-3.5004,-3.5577,-3.5622,-3.5148,-3.4385,-3.3781,-3.3028,-3.1993,-3.0196,-2.9875,-2.9711,-2.7653,-2.7947,-2.8812,-2.7934,-2.5693,-2.3283,-2.2317,-1.969,-1.7074,-1.5919,-1.3961,-1.2066,-1.0864,-1.0038,-0.9551,-0.9551,-0.6328,-0.4385,-0.6764,-0.3129,0.1604,0.6305,0.7025,0.7019,0.7039,0.2867,-0.0976,-0.3306,-0.3642,-0.442,-0.6423,-0.6886,-0.7082,-0.6939,-0.6932,-0.6932,-0.6932,-0.6641,-0.662,-0.6926,-0.8183,-0.9043,-0.952,-1.0933,-1.1718,-1.193,-1.2603,-1.3383,-3.4883,-3.3409,-3.137,-2.8795,-2.7942,-2.7668,-2.6872,0.0,0.0,-2.8962,-2.924,-2.9373,-2.9518,-3.0561,-3.146,-3.14,-3.2962,-3.482,0.0,0.0,0.0,0.0,0.0,0.0,0.0,0.0,0.0,0.0,0.0,0.0,0.0,-3.7572,-3.7796,-3.8689,-3.7863,-3.7362,-3.7216,-3.6265,-3.6051,-3.6378,-3.5873,-3.5865,-3.6405,-3.5834,-3.5622,0.0,0.0,0.0,0.0,-3.4886,-3.503,-3.5532,-3.4844,-3.4685,-3.4888,-3.5419,-3.5115,-3.4438,-3.3815,-3.3371,-3.2773,-3.0881,-3.019,-2.981,-2.8152,-2.7911,-2.7776,-2.6296,-2.4755,-2.3136,-2.1369,-1.9122,-1.683,-1.4961,-1.34,-1.198,-1.0864,-1.0047,-0.9192,-0.8017,-0.6802,-0.4125,0.161,0.2502,0.3479,0.6643,0.7001,0.7027,0.7054,0.4415,0.1537,-0.085,-0.2578,-0.4479,-0.6544,-0.6817,-0.6817,-0.6776,-0.677,-0.677,-0.677,-0.6776,-0.7211,-0.8281,-0.8832,-0.9732,-1.0839,-1.2328,-1.3368,-1.4013,-1.4014,-1.4095,-3.3993,-3.2535,-3.0617,-2.8474,-2.7545,0.0,0.0,0.0,-2.7317,-2.7736,-2.7993,-2.8236,-2.8242,-2.9645,-3.0778,-3.0711,-3.3003,-3.5249,0.0,0.0,0.0,0.0,0.0,0.0,0.0,0.0,0.0,0.0,0.0,0.0,0.0,-3.7041,-3.7259,-3.8114,-3.7332,-3.6898,-3.6887,-3.6017,-3.5757,-3.6084,-3.5723,-3.5757,-3.6084,-3.5723,-3.5622,0.0,0.0,0.0,0.0,-3.4513,-3.464,-3.5165,-3.4764,-3.4731,-3.4955,-3.5419,-3.5284,-3.4844,-3.4184,-3.3715,-3.3072,-3.1155,-2.9824,-2.874,-2.7766,-2.7111,-2.6364,-2.4826,-2.343,-2.1975,-2.0294,-1.7992,-1.5569,-1.3781,-1.2116,-1.0702,-0.9497,-0.892,-0.8328,-0.7252,-0.5652,-0.1972,0.5763,0.5802,0.5308,0.6832,0.6959,0.6949,0.7076,0.582,0.3648,0.0337,-0.2157,-0.451,-0.6749,-0.6956,-0.6905,-0.6797,-0.6837,-0.6844,-0.679,-0.6878,-0.7339,-0.8185,-0.949,-1.06,-1.1596,-1.3403,-1.459,-1.495,-1.4656,-1.4362,0.0,-3.2204,-3.0429,-2.8332,-2.7296,-2.6227,-2.4794,-2.5044,0.0,-2.5101,-2.5742,-2.6289,-2.6289,-2.8164,-2.9821,-3.0001,-3.2641,0.0,0.0,-3.8543,0.0,0.0,0.0,0.0,0.0,0.0,0.0,0.0,0.0,0.0,0.0,-3.6361,-3.6572,-3.7139,-3.664,-3.6363,-3.6378,-3.587,-3.5622,-3.5622,-3.5622,-3.5622,-3.5622,-3.5622,-3.5543,0.0,0.0,0.0,0.0,-3.3909,-3.4046,-3.466,-3.4605,-3.4992,-3.5509,-3.5543,-3.5554,-3.5419,-3.4723,-3.3974,-3.2995,-3.0968,-2.8829,-2.6992,-2.656,-2.5721,-2.4802,-2.3672,-2.1954,-2.0139,-1.8921,-1.6293,-1.3626,-1.2324,-1.0403,-0.864,-0.7347,-0.7094,-0.7019,-0.6668,-0.278,0.1882,0.6299,0.6893,0.6794,0.7066,0.6831,0.6736,0.7042,0.7076,0.5266,0.0506,-0.2008,-0.4314,-0.6622,-0.721,-0.7217,-0.6932,-0.7034,-0.7054,-0.7018,-0.7025,-0.7187,-0.7429,-1.0185,-1.1786,-1.1984,-1.4254,-1.5244,-1.4923,-1.4656,-1.4362,-3.0248,0.0,-3.0161,-2.7742,-2.6794,-2.6083,0.0,-2.4596,-2.4643,-2.4583,-2.4985,-2.5373,-2.5373,-2.6585,-2.8317,-3.0407,-3.2179,-3.427,-3.7362,0.0,0.0,0.0,0.0,0.0,0.0,0.0,0.0,0.0,0.0,0.0,0.0,-3.6002,-3.6049,-3.6589,-3.6084,-3.6011,-3.6412,-3.587,-3.5622,-3.5622,-3.5622,-3.5622,-3.5622,-3.5622,-3.5329,0.0,0.0,0.0,-3.4577,-3.4441,-3.4729,-3.5337,-3.4791,-3.4688,-3.4824,-3.5363,-3.5241,-3.4747,-3.4553,-3.37,-3.2244,-2.9453,-2.8196,-2.7456,-2.5816,-2.5202,-2.4634,-2.2774,-2.1384,-1.9615,-1.6098,-1.4559,-1.3302,-1.0326,-0.9506,-0.8928,-0.7436,-0.7108,-0.6025,-0.241,0.1853,0.5267,0.666,0.6813,0.6753,0.6853,0.5447,0.4989,0.684,0.6701,0.4835,0.0505,-0.0516,-0.1825,-0.4222,-0.6115,-0.7052,-0.677,-0.6783,-0.726,-0.8268,-0.8406,-0.9067,-1.0304,-1.2307,-1.372,-1.4545,-1.5114,-1.5124,-1.4629,-1.4549,-1.4362,-2.8335,-2.8426,-2.8514,-2.6743,-2.5702,-2.481,-2.3505,-2.3847,-2.4255,-2.3871,-2.457,-2.5411,-2.5354,-2.6661,-2.8274,0.0,-3.253,0.0,0.0,0.0,0.0,0.0,0.0,0.0,0.0,0.0,0.0,0.0,0.0,0.0,0.0,-3.5442,-3.5217,-3.5509,-3.5262,-3.5397,-3.6017,-3.5723,-3.5622,-3.5622,-3.5622,-3.5622,-3.5577,-3.5296,-3.4936,0.0,0.0,0.0,-3.4118,-3.4118,-3.4525,-3.5114,-3.4724,-3.4518,-3.4611,-3.5329,-3.4931,-3.399,-3.4007,-3.2652,-3.0577,-2.8531,-2.7644,-2.7112,-2.5465,-2.4706,-2.3926,-2.1782,-1.9714,-1.7523,-1.4712,-1.288,-1.1273,-0.9602,-0.8752,-0.8151,-0.7286,-0.7068,-0.5137,0.1584,0.4961,0.6721,0.6773,0.6628,0.6615,0.6858,0.5768,0.4564,0.3941,0.3596,0.1707,-0.2818,-0.3222,-0.3787,-0.5102,-0.6343,-0.7007,-0.6905,-0.6966,-0.7267,-0.7959,-0.8128,-0.9281,-1.1424,-1.2897,-1.4202,-1.5391,-1.5124,-1.483,-1.4522,-1.4522,-1.4442,-2.7329,-2.6851,-2.6398,-2.5331,-2.421,-2.3038,-2.177,-2.2809,-2.3809,-2.2904,-2.4246,-2.5472,-2.5488,-2.7073,0.0,0.0,0.0,0.0,0.0,0.0,0.0,0.0,0.0,0.0,0.0,0.0,0.0,0.0,0.0,0.0,0.0,-3.4757,-3.4298,-3.433,-3.4442,-3.4745,-3.5262,-3.5509,-3.5509,-3.5296,-3.5363,-3.5329,-3.5116,-3.4645,-3.4318,-3.4098,0.0,0.0,-3.3606,-3.3751,-3.4192,-3.4741,-3.4672,-3.4611,-3.4578,-3.5182,-3.4566,-3.3361,-3.3073,-3.1259,-2.897,-2.8054,-2.7227,-2.6402,-2.5158,-2.3988,-2.2539,-2.0314,-1.7666,-1.5248,-1.3878,-1.1187,-0.8903,-0.9104,-0.7782,-0.6643,-0.7039,-0.6568,-0.3736,0.3823,0.6263,0.6853,0.6325,0.6229,0.6492,0.6888,0.6033,0.4071,0.0425,-0.0605,-0.2624,-0.6679,-0.7061,-0.7121,-0.7088,-0.7088,-0.7074,-0.7143,-0.7265,-0.7458,-0.7672,-0.7998,-0.9492,-1.2066,-1.3136,-1.4167,-1.5257,-1.4763,-1.4522,-1.4522,-1.4522,-1.4549,-2.7349,-2.6341,-2.516,-2.3096,-2.2108,-2.1328,-2.0114,-2.119,-2.2165,-2.1627,-2.3213,-2.4564,-2.456,-2.6132,-2.8172,0.0,0.0,0.0,0.0,0.0,0.0,0.0,0.0,0.0,0.0,0.0,0.0,0.0,0.0,0.0,0.0,-3.3963,-3.358,-3.3596,-3.4203,-3.426,-3.3751,-3.497,-3.497,-3.3751,-3.4399,-3.4074,-3.2994,-3.3428,-3.2967,-3.2074,0.0,-3.4027,-3.3606,-3.479,-3.534,-3.5463,-3.5419,-3.5037,-3.4522,-3.4631,-3.4134,-3.3162,-3.1508,-3.017,-2.8944,-2.7588,-2.6773,-2.6015,-2.4257,-2.2381,-2.0235,-1.7188,-1.598,-1.4918,-1.1861,-1.0009,-0.8632,-0.7694,-0.5725,-0.4652,-0.6675,-0.389,-0.0695,0.0693,0.3958,0.5952,0.4351,0.5311,0.6338,0.6398,0.329,0.0697,0.0089,-0.3482,-0.6281,-0.7012,-0.7108,-0.7101,-0.7088,-0.7088,-0.7074,-0.7143,-0.7163,-0.804,-1.0,-1.1258,-1.2668,-1.4014,-1.4526,-1.4718,-1.4656,-1.4563,-1.4522,-1.4522,-1.4522,-1.4656,-2.728,-2.6315,-2.493,-2.3016,-2.1931,-2.0898,-1.933,-2.0006,-2.085,-2.0281,-2.2079,-2.3852,-2.3852,0.0,-2.8693,-3.2589,0.0,0.0,0.0,0.0,0.0,0.0,0.0,0.0,0.0,0.0,0.0,0.0,0.0,0.0,0.0,0.0,-3.2788,-3.2809,-3.3127,-3.2964,-3.2208,-3.3676,-3.4066,-3.3395,-3.3743,-3.3575,-3.3001,-3.2932,-3.2546,-3.2047,0.0,-3.3425,-3.3573,-3.4141,-3.4858,-3.5509,-3.4757,-3.422,-3.3807,-3.2978,-3.2564,-3.2035,-2.9996,-2.8919,-2.8271,-2.6856,-2.6058,-2.5265,-2.3279,-2.1624,-1.9578,-1.5786,-1.4296,-1.3155,-1.0423,-0.8798,-0.776,-0.7265,-0.528,-0.3565,-0.3273,-0.1563,-0.0,-0.0,0.1565,0.335,0.4792,0.3851,0.2892,0.2863,0.123,-0.0889,-0.3502,-0.5768,-0.7128,-0.7108,-0.7101,-0.7088,-0.7068,-0.7068,-0.7061,-0.7143,-0.7143,-0.7834,-0.9575,-1.1206,-1.2595,-1.3523,-1.4537,-1.4816,-1.4522,-1.4522,-1.4522,-1.4522,-1.4843,-1.507,-2.7502,-2.6403,-2.5036,-2.3282,-2.1771,-2.04,-1.8799,-1.9047,-1.9505,-1.9411,-2.1415,-2.3178,-2.3512,-2.6298,0.0,-3.4381,0.0,0.0,0.0,0.0,0.0,0.0,0.0,0.0,0.0,0.0,0.0,0.0,0.0,0.0,0.0,0.0,-3.2032,-3.2032,-3.2207,-3.1955,-3.1221,-3.2483,-3.3046,-3.2894,-3.3087,-3.2985,-3.2662,-3.2307,-3.2011,-3.193,-3.2247,-3.2686,-3.3205,-3.3339,-3.4074,-3.497,-3.3963,-3.3495,-3.3158,-3.1827,-3.1157,-3.0664,-2.8934,-2.7957,-2.7273,-2.5986,-2.4929,-2.377,-2.2066,-2.041,-1.841,-1.4582,-1.2637,-1.1259,-0.9311,-0.7926,-0.7048,-0.7082,-0.5292,-0.2979,-0.0519,-0.0,-0.0,-0.0,-0.0,0.1068,0.4307,0.2127,-0.0349,-0.1489,-0.169,-0.2785,-0.5852,-0.6758,-0.7115,-0.7088,-0.7115,-0.73,-0.7546,-0.7768,-0.7937,-0.8063,-0.7687,-0.8017,-0.9235,-1.09,-1.217,-1.3076,-1.432,-1.4816,-1.4522,-1.4589,-1.4656,-1.4736,-1.519,-1.5616,-2.8382,-2.6901,-2.5239,-2.2926,-2.0828,-1.9036,-1.8343,-1.8053,-1.8437,-1.9557,-2.1294,-2.2994,0.0,-2.8268,-3.2545,0.0,0.0,0.0,0.0,0.0,0.0,0.0,0.0,0.0,0.0,0.0,0.0,0.0,0.0,0.0,0.0,0.0,0.0,-3.1297,-3.1964,-3.1958,-3.1213,-3.1958,-3.2066,-3.1354,-3.2066,-3.1715,-3.0561,-3.1032,-3.0965,-3.0527,-3.1788,-3.231,-3.2434,-3.3148,-3.3461,-3.3606,-3.3929,-3.3642,-3.294,-3.2066,-3.0842,-2.9443,-2.8573,-2.744,-2.6096,-2.4895,-2.3098,-2.1246,-2.0666,-1.8237,-1.5178,-1.2832,-1.1172,-0.9866,-0.891,-0.775,-0.6826,-0.7035,-0.532,-0.2947,-0.0506,-0.0,-0.0,-0.0,-0.0,0.0085,0.0432,0.0174,-0.1489,-0.5919,-0.6579,-0.5941,-0.4109,-0.573,-0.7088,-0.7088,-0.7285,-0.78,-0.8869,-0.9851,-1.0522,-1.082,-0.9508,-0.9323,-1.0443,-1.1893,-1.3163,-1.3952,-1.4669,-1.4816,-1.4522,-1.4803,-1.507,-1.5337,-1.5378,-1.6174,-2.8232,-2.6818,-2.5268,-2.4111,-2.1792,-1.9417,-1.8233,-1.7552,-1.7365,-1.806,-1.987,-2.2704,0.0,0.0,-3.3755,0.0,0.0,0.0,0.0,0.0,0.0,0.0,0.0,0.0,0.0,0.0,0.0,0.0,0.0,0.0,0.0,0.0,0.0,-3.119,-3.1472,-3.1472,-3.119,-3.1472,-3.1472,-3.119,-3.1472,-3.1331,-3.0875,-3.1123,-3.119,-3.1263,-3.1788,-3.2422,-3.3088,-3.3114,-3.3556,-3.4179,-3.3917,-3.3161,-3.2207,-3.1898,-3.0769,-2.9197,-2.8042,-2.6995,-2.5879,-2.3948,-2.2192,-2.0515,-1.917,-1.6959,-1.4359,-1.1503,-1.0285,-0.9429,-0.7875,-0.7069,-0.6709,-0.6833,-0.521,-0.2935,-0.0505,-0.0,-0.0,-0.0,-0.2385,-0.4402,-0.4437,-0.3247,-0.2837,-0.4652,-0.6198,-0.6745,-0.5908,-0.6542,-0.7471,-0.8356,-0.9315,-1.015,-1.0596,-1.098,-1.124,-1.1323,-1.0672,-1.0889,-1.2193,-1.2983,-1.373,-1.4629,-1.503,-1.5084,-1.4803,-1.5084,-1.5284,-1.5404,-1.6401,-1.7115,-2.7773,-2.6568,-2.5138,-2.4303,-2.1675,-1.8976,-1.773,-1.6643,-1.6185,-1.7456,-2.0668,-2.4649,-2.9625,0.0,0.0,0.0,0.0,0.0,0.0,0.0,0.0,0.0,0.0,0.0,0.0,0.0,0.0,0.0,0.0,0.0,0.0,0.0,0.0,0.0,-3.119,-3.119,-3.119,-3.119,-3.119,-3.119,-3.1331,-3.1365,-3.1365,-3.154,-3.1788,-3.2003,-3.2014,-3.2476,-3.3213,-3.2967,-3.3389,-3.4163,-3.3662,-3.2893,-3.2,-3.1808,-3.0591,-2.8857,-2.741,-2.613,-2.4844,-2.2888,-2.0983,-1.9163,-1.7656,-1.5779,-1.3585,-1.0638,-0.9761,-0.9203,-0.7067,-0.66,-0.6586,-0.6579,-0.5499,-0.3665,-0.0672,-0.0,-0.0425,-0.1957,-0.486,-0.7075,-0.7061,-0.6398,-0.5714,-0.5526,-0.7238,-0.8528,-0.8375,-0.8375,-0.8812,-0.9949,-1.1232,-1.2038,-1.2113,-1.2415,-1.2677,-1.2757,-1.2518,-1.2473,-1.2564,-1.3656,-1.4327,-1.4411,-1.514,-1.5391,-1.5097,-1.5391,-1.5538,-1.5538,-1.7037,-1.787,-2.7145,-2.5995,-2.4824,-2.2817,-1.9979,-1.7341,-1.6562,-1.5235,-1.5001,-1.8282,-2.4183,-2.9456,-3.1967,-3.4418,0.0,0.0,0.0,0.0,0.0,0.0,0.0,0.0,0.0,0.0,0.0,0.0,0.0,0.0,0.0,0.0,0.0,0.0,0.0,0.0,-3.119,-3.119,-3.119,-3.119,-3.119,-3.1224,-3.1613,-3.1788,-3.1827,-3.2281,-3.2496,-3.2505,-3.2517,-3.251,-3.251,-3.251,-3.2757,-3.3176,-3.3176,-3.2893,-3.2419,-3.1842,-3.0195,-2.8084,-2.6761,-2.488,-2.2767,-2.1574,-1.9251,-1.6777,-1.6295,-1.4605,-1.2324,-1.0263,-0.9615,-0.8987,-0.6893,-0.6311,-0.6244,-0.6324,-0.6296,-0.5181,-0.0922,-0.0,-0.1479,-0.6207,-0.7122,-0.7128,-0.7108,-0.9084,-1.0348,-0.9657,-1.0814,-1.1674,-1.1196,-1.1127,-1.1302,-1.166,-1.2629,-1.3318,-1.338,-1.4383,-1.5097,-1.5378,-1.5404,-1.4142,-1.1477,-1.3933,-1.4694,-1.303,-1.4859,-1.5685,-1.5404,-1.5685,-1.5832,-1.5832,-1.7124,-1.8319,-2.4479,-2.323,-2.1727,-2.0836,-1.8419,-1.638,-1.6642,-1.5884,-1.6567,-2.1828,-2.6109,-3.0113,-3.4151,0.0,0.0,0.0,0.0,0.0,0.0,0.0,0.0,0.0,0.0,0.0,0.0,0.0,0.0,0.0,0.0,0.0,0.0,0.0,0.0,0.0,-3.2105,-3.2105,-3.2105,-3.2105,-3.2105,-3.2139,-3.2598,-3.2437,-3.1821,-3.2307,-3.2691,-3.3003,-3.2984,-3.314,-3.3386,-3.3386,-3.3313,-3.3176,-3.3176,-3.2647,-3.1791,-3.1319,-2.963,-2.7574,-2.662,-2.488,-2.2726,-2.1297,-1.8838,-1.6403,-1.569,-1.4106,-1.2074,-1.0097,-0.9536,-0.9025,-0.7029,-0.5295,-0.4449,-0.5918,-0.628,-0.5131,-0.0943,-0.2598,-0.5436,-0.6864,-0.7088,-0.745,-0.8593,-0.9313,-0.992,-1.0514,-1.1189,-1.1584,-1.1444,-1.2334,-1.2963,-1.3111,-1.4259,-1.5029,-1.5106,-1.5431,-1.5605,-1.5698,-1.5698,-1.5282,-1.4521,-1.5269,-1.547,-1.4991,-1.5549,-1.5792,-1.5698,-1.5792,-1.6292,-1.7124,-1.8411,-1.9588,-2.3231,-2.181,-2.0059,-1.8773,-1.7158,-1.6477,-1.8582,-1.9192,-2.0647,0.0,-2.9449,-3.2968,-3.6231,0.0,0.0,0.0,0.0,0.0,0.0,0.0,0.0,0.0,0.0,0.0,0.0,0.0,0.0,0.0,0.0,0.0,0.0,0.0,0.0,0.0,-3.2475,-3.2475,-3.2475,-3.2475,-3.2475,-3.251,-3.3001,-3.2898,-3.2364,-3.282,-3.3176,-3.3423,-3.3423,-3.3597,-3.3807,-3.3807,-3.356,-3.3176,-3.3176,-3.243,-3.124,-3.0442,-2.8794,-2.6792,-2.548,-2.3679,-2.1853,-2.0532,-1.822,-1.5808,-1.5367,-1.3594,-1.1438,-0.9963,-0.9269,-0.871,-0.7042,-0.4964,-0.3778,-0.5826,-0.5044,-0.3606,-0.2982,-0.5034,-0.7129,-0.7182,-0.7818,-0.8527,-0.9392,-1.0126,-1.0939,-1.165,-1.2316,-1.2721,-1.2916,-1.3713,-1.4397,-1.4509,-1.524,-1.5832,-1.5832,-1.5832,-1.5832,-1.5832,-1.5832,-1.5832,-1.5832,-1.5832,-1.5534,-1.5045,-1.5534,-1.5832,-1.5832,-1.6292,-1.6951,-1.7777,-1.9405,-2.0567,-2.276,-2.1212,-1.9272,-1.6949,-1.668,-1.8148,-2.2282,-2.4771,-2.6976,-2.9514,0.0,-3.7171,0.0,0.0,0.0,0.0,0.0,0.0,0.0,0.0,0.0,0.0,0.0,0.0,0.0,0.0,0.0,0.0,0.0,0.0,0.0,0.0,0.0,-3.2647,-3.2647,-3.2684,-3.2684,-3.2684,-3.2647,-3.2647,-3.3066,-3.3276,-3.3276,-3.3633,-3.3807,-3.3807,-3.3807,-3.3807,-3.3807,-3.377,-3.3523,-3.3176,-3.304,-3.2075,-3.0637,-2.9264,-2.7709,-2.5907,-2.375,-2.194,-2.0434,-1.9596,-1.7434,-1.5171,-1.5204,-1.3283,-1.0795,-0.9823,-0.9,-0.8207,-0.7066,-0.5303,-0.4364,-0.5976,-0.3403,-0.1843,-0.6198,-0.7148,-0.7182,-0.7387,-0.8778,-0.9913,-0.9662,-1.1441,-1.2845,-1.3021,-1.3837,-1.4656,-1.4937,-1.5217,-1.5498,-1.5765,-1.5818,-1.5832,-1.5832,-1.5832,-1.5832,-1.5832,-1.5832,-1.5832,-1.5832,-1.5832,-1.5248,-1.4076,-1.5248,-1.5832,-1.6021,-1.7138,-1.7777,-1.8056,-2.0296,-2.1373,-1.9866,-1.8302,-1.6541,-1.6462,-1.9758,-2.4023,-2.8249,-3.2302,-3.5034,-3.454,-3.6726,0.0,0.0,0.0,0.0,0.0,0.0,0.0,0.0,0.0,0.0,0.0,0.0,0.0,0.0,0.0,0.0,0.0,0.0,0.0,0.0,0.0,0.0,-3.3844,-3.3844,-3.3981,-3.4228,-3.3981,-3.3844,0.0,-3.3733,-3.367,-3.367,-3.377,-3.3807,-3.3807,-3.3807,-3.3807,-3.377,-3.3486,-3.3276,-3.3068,-3.1845,-3.0878,-3.0009,-2.834,-2.6841,-2.532,-2.3591,-2.1966,-2.0465,-1.9547,-1.7434,-1.5221,-1.5429,-1.3379,-1.0874,-1.0203,-0.948,-0.8512,-0.7285,-0.6637,-0.6477,-0.6821,-0.6269,-0.5824,-0.686,-0.7208,-0.7373,-0.74,-0.8574,-0.9802,-1.041,-1.1934,-1.3399,-1.441,-1.4767,-1.4897,-1.495,-1.5217,-1.5418,-1.5484,-1.5698,-1.5832,-1.5832,-1.5832,-1.5832,-1.5832,-1.5832,-1.5832,-1.5832,-1.5832,-1.5629,-1.5439,-1.5642,-1.6292,-1.7311,-1.7591,-1.8688,-2.0567,-2.1016,-2.2259,-1.8905,-1.7613,-1.6924,-2.0111,-2.4394,-2.8842,-3.2853,-3.6804,-3.9594,-3.9373,0.0,0.0,0.0,0.0,0.0,0.0,0.0,0.0,0.0,0.0,0.0,0.0,0.0,0.0,0.0,0.0,0.0,0.0,0.0,0.0,0.0,-3.3944,-3.4054,-3.4191,-3.4353,-3.4521,-3.471,-3.4521,-3.445,-3.4439,-3.4301,-3.4154,-3.3981,-3.3844,-3.3807,-3.3807,-3.3807,-3.3697,-3.3523,-3.3313,-3.2755,-3.2013,-3.123,-3.0237,-2.908,-2.7467,-2.5966,-2.4493,-2.2543,-2.104,-1.9766,-1.8474,-1.6806,-1.5307,-1.4988,-1.3278,-1.1272,-1.0471,-0.9535,-0.8446,-0.6511,-0.6008,-0.5941,-0.5636,-0.6352,-0.7155,-0.7208,-0.736,-0.7441,-0.7577,-0.923,-1.065,-1.1099,-1.2643,-1.3977,-1.4475,-1.4669,-1.4803,-1.495,-1.5217,-1.5444,-1.5591,-1.5738,-1.5832,-1.5832,-1.5832,-1.5832,-1.5832,-1.5832,-1.5832,-1.5832,-1.5832,-1.5832,-1.5832,-1.6386,-1.7044,-1.7684,-1.8856,-2.0025,-2.1284,-2.1854,-2.3066,-1.8968,-1.87,-1.9808,-2.5769,-2.9684,0.0,-3.6572,-3.9605,-4.1963,0.0,0.0,0.0,0.0,0.0,0.0,0.0,0.0,0.0,0.0,0.0,0.0,0.0,0.0,0.0,0.0,0.0,0.0,0.0,0.0,0.0,-3.3844,-3.4127,-3.4297,-3.4352,-3.4618,-3.4787,-3.4826,-3.4787,-3.4767,-3.4773,-3.4661,-3.4451,-3.413,-3.3876,-3.3807,-3.3807,-3.3733,-3.3523,-3.3176,-3.2928,-3.208,-3.0836,-3.0442,-2.947,-2.8142,-2.6562,-2.5083,-2.3597,-2.1348,-2.0006,-1.9056,-1.7486,-1.6314,-1.5495,-1.4818,-1.3344,-1.1709,-1.0574,-0.9447,-0.8089,-0.5797,-0.5285,-0.5141,-0.468,-0.5957,-0.7228,-0.7421,-0.7461,-0.7636,-0.8055,-1.0156,-1.1921,-1.2109,-1.3399,-1.4442,-1.4202,-1.4416,-1.4683,-1.4937,-1.5217,-1.5484,-1.5725,-1.5805,-1.5832,-1.5832,-1.5832,-1.5832,-1.5832,-1.5832,-1.5832,-1.5832,-1.6008,-1.6103,-1.6103,-1.7138,-1.787,-1.8319,-2.0314,-2.1391,-2.1658,-2.2843,-2.3973,-1.9578,-2.1786,-2.5363,0.0,-3.4667,-3.6705,0.0,0.0,-4.2365,0.0,0.0,0.0,0.0,0.0,0.0,0.0,0.0,0.0,0.0,0.0,0.0,0.0,0.0,0.0,0.0,0.0,0.0,0.0,0.0,0.0,-3.4154,-3.4475,-3.4755,-3.4971,-3.5014,-3.5147,-3.5378,-3.5147,-3.5053,-3.5025,-3.4512,-3.4114,-3.3853,-3.3804,-3.3807,-3.377,-3.3423,-3.3276,-3.3095,-3.1812,-3.1147,-3.0717,-2.8654,-2.7769,-2.728,-2.5308,-2.3974,-2.2867,-2.1217,-1.9991,-1.9185,-1.8566,-1.7117,-1.5667,-1.6211,-1.4299,-1.1744,-1.0771,-0.9009,-0.7285,-0.6884,-0.7001,-0.7204,-0.7027,-0.7297,-0.7664,-0.7684,-0.7678,-0.8151,-0.9324,-1.1351,-1.3156,-1.4372,-1.4471,-1.4509,-1.4469,-1.471,-1.4923,-1.4963,-1.5217,-1.5404,-1.5444,-1.5671,-1.5832,-1.5832,-1.5832,-1.5832,-1.5832,-1.5832,-1.5832,-1.5832,-1.6857,-1.7404,-1.7404,-1.7591,-1.878,-2.0836,-2.1105,-2.1854,-2.2862,-2.4039,-2.521,-2.3319,-2.6641,-3.0434,0.0,-3.7617,-3.8929,-4.0853,0.0,0.0,0.0,0.0,0.0,0.0,0.0,0.0,0.0,0.0,0.0,0.0,0.0,0.0,0.0,0.0,0.0,0.0,0.0,0.0,0.0,0.0,-3.4278,-3.4451,-3.4812,-3.4999,-3.5095,-3.5262,-3.5416,-3.5493,-3.5378,-3.5301,-3.5339,-3.4889,-3.4572,-3.4266,-3.3882,-3.3597,-3.3423,-3.3276,-3.2697,-3.1845,-3.1227,-3.0153,-2.8884,-2.8278,-2.7296,-2.619,-2.5272,-2.3798,-2.2121,-2.1018,-1.9698,-1.8478,-1.7953,-1.7334,-1.6638,-1.6078,-1.4999,-1.3509,-1.1262,-0.9901,-0.8835,-0.7631,-0.74,-0.7636,-0.7617,-0.7678,-0.7753,-0.7834,-0.8408,-0.9556,-1.1672,-1.2736,-1.3609,-1.5021,-1.4963,-1.4763,-1.4763,-1.5017,-1.5204,-1.5204,-1.5458,-1.5631,-1.5631,-1.5752,-1.5832,-1.5832,-1.5832,-1.5832,-1.5832,-1.5832,-1.6103,-1.6857,-1.7404,-1.8319,-1.9679,-1.9695,-2.0223,-2.1302,-2.1943,-2.2911,-2.4039,-2.4532,-2.5692,0.0,0.0,-3.3968,-3.782,-3.9308,-4.0129,0.0,0.0,0.0,0.0,0.0,0.0,0.0,0.0,0.0,0.0,0.0,0.0,0.0,0.0,0.0,0.0,0.0,0.0,0.0,0.0,0.0,0.0,0.0,-3.4538,-3.4798,-3.5109,-3.5265,-3.5194,-3.5432,-3.5545,-3.5493,-3.5493,-3.5455,-3.5416,-3.5148,-3.4847,-3.4549,-3.3844,-3.3332,-3.2991,-3.2745,-3.2051,-3.1117,-3.07,-2.9476,-2.79,-2.7928,-2.6885,-2.5334,-2.4932,-2.3371,-2.1341,-2.0776,-1.9698,-1.8429,-1.7924,-1.7972,-1.7983,-1.6665,-1.599,-1.5115,-1.2381,-1.1159,-1.0333,-0.8405,-0.7816,-0.7678,-0.7787,-0.7841,-0.8,-0.8407,-0.9502,-1.1067,-1.3454,-1.3862,-1.4254,-1.5206,-1.5217,-1.507,-1.507,-1.5324,-1.5511,-1.5511,-1.5698,-1.5832,-1.5832,-1.5832,-1.5832,-1.5832,-1.5832,-1.5832,-1.5832,-1.5832,-1.6386,-1.7684,-1.7963,-1.9131,-2.1284,-2.1924,-2.2013,-2.1747,-2.2687,-2.3714,-2.4787,-2.5126,-2.6273,0.0,-3.4185,0.0,-3.8841,-3.9779,0.0,0.0,0.0,0.0,0.0,0.0,0.0,0.0,0.0,0.0,0.0,0.0,0.0,0.0,0.0,0.0,0.0,0.0,0.0,0.0,0.0,0.0,0.0,0.0,-3.5067,-3.5056,-3.5339,-3.5466,-3.5466,-3.5494,-3.5493,-3.5493,-3.5493,-3.5378,-3.5109,-3.4861,-3.4567,-3.4191,-3.3523,-3.2988,-3.2471,-3.1453,-3.1308,-3.163,-3.0116,-2.9396,-2.9124,-2.7172,-2.6022,-2.5208,-2.378,-2.2152,-2.0679,-2.0577,-2.0296,-1.9885,-1.939,-1.9418,-1.9562,-1.903,-1.7317,-1.5506,-1.4494,-1.2587,-1.0542,-0.9644,-0.8619,-0.7801,-0.7807,-0.7923,-0.8322,-0.9608,-1.0867,-1.2221,-1.3584,-1.4628,-1.5299,-1.5391,-1.5391,-1.5378,-1.5378,-1.5618,-1.5805,-1.5805,-1.5818,-1.5832,-1.5832,-1.5832,-1.5832,-1.5832,-1.5832,-1.5832,-1.5832,-1.5832,-1.6386,-1.7684,-1.878,-2.0025,-2.1302,-2.3481,-2.4125,-2.3038,-2.3057,-2.3714,-2.4872,-2.588,-2.7035,0.0,0.0,0.0,-3.8559,-3.9204,-3.9422,0.0,0.0,0.0,0.0,0.0,0.0,0.0,0.0,0.0,0.0,0.0,0.0,0.0,0.0,0.0,0.0,0.0,0.0,0.0,0.0,0.0,0.0,0.0,0.0,-3.5339,-3.5493,-3.5534,-3.5503,-3.5596,-3.5622,-3.5584,-3.5545,-3.5378,-3.5109,-3.4826,-3.4376,-3.3807,-3.3066,-3.2505,-3.1998,-3.0982,-3.0417,-3.0238,-2.9629,-2.8672,-2.7469,-2.6725,-2.5688,-2.4654,-2.4072,-2.3032,-2.195,-2.1936,-2.1315,-2.054,-2.0648,-2.0266,-1.9734,-1.9146,-1.807,-1.6698,-1.4905,-1.3456,-1.2031,-1.0153,-0.9468,-0.9029,-0.8153,-0.7997,-0.8301,-0.955,-1.077,-1.2045,-1.3646,-1.4722,-1.5458,-1.5645,-1.5671,-1.5671,-1.5671,-1.5765,-1.5832,-1.5832,-1.5832,-1.5832,-1.5832,-1.5832,-1.5832,-1.5832,-1.5832,-1.5832,-1.5832,-1.6574,-1.7591,-1.878,-2.0025,-2.1551,-2.3481,-2.4341,-2.4617,-2.4211,-2.4978,-2.588,-2.693,-2.736,-2.8108,-3.5217,0.0,0.0,0.0,0.0,-3.8584,0.0,0.0,0.0,0.0,0.0,0.0,0.0,0.0,0.0,0.0,0.0,0.0,0.0,0.0,0.0,0.0,0.0,0.0,0.0,0.0,0.0,0.0,0.0,0.0,-3.5493,-3.5545,-3.5584,-3.5545,-3.5637,-3.5687,-3.5622,-3.5584,-3.5378,-3.5133,-3.4835,-3.4325,-3.3597,-3.2841,-3.2229,-3.1754,-3.0735,-3.0168,-2.9972,-2.9576,-2.8512,-2.7048,-2.6591,-2.5574,-2.4296,-2.3987,-2.3367,-2.2671,-2.2295,-2.186,-2.1437,-2.1031,-2.0731,-2.0384,-1.9358,-1.8417,-1.7391,-1.5677,-1.4308,-1.3029,-1.1602,-1.0863,-1.0288,-0.9023,-0.8627,-0.8879,-0.9565,-1.0659,-1.1921,-1.353,-1.4671,-1.5484,-1.5778,-1.5832,-1.5832,-1.5832,-1.5832,-1.5832,-1.5832,-1.5832,-1.5832,-1.5832,-1.6197,-1.648,-1.648,-1.6842,-1.7016,-1.7016,-1.7855,-1.8872,-2.0025,-2.0836,-2.2435,-2.4787,-2.4977,-2.5373,-2.5942,-2.6295,-2.7035,-2.8084,-2.7917,-2.8421,0.0,0.0,0.0,0.0,0.0,0.0,0.0,0.0,0.0,0.0,0.0,0.0,0.0,0.0,0.0,0.0,0.0,0.0,0.0,0.0,0.0,0.0,0.0,0.0,0.0,0.0,0.0,0.0,0.0,-3.5224,-3.5493,-3.5493,-3.5545,-3.5611,-3.568,-3.5689,-3.5701,-3.5649,-3.5443,-3.5172,-3.4847,-3.4301,-3.3542,-3.2826,-3.2207,-3.1681,-3.0701,-3.0594,-3.1026,-2.9848,-2.892,-2.8062,-2.679,-2.5465,-2.421,-2.3457,-2.2955,-2.2616,-2.1691,-2.2017,-2.2622,-2.0622,-2.0878,-2.1583,-1.9668,-1.8516,-1.7641,-1.687,-1.511,-1.3555,-1.3814,-1.2909,-1.156,-1.0386,-1.01,-0.9943,-0.9669,-1.0564,-1.1974,-1.3415,-1.4638,-1.5484,-1.5778,-1.5832,-1.5832,-1.5832,-1.5832,-1.5832,-1.5832,-1.5832,-1.5832,-1.5832,-1.6951,-1.7684,-1.7777,-1.8872,-1.9497,-1.9497,-1.9497,-2.0116,-2.1284,-2.1284,-2.2435,-2.4787,-2.5338,-2.6371,-2.8084,-2.7116,-2.7116,-2.8164,-2.7663,-2.7912,-3.4109,0.0,0.0,0.0,0.0,0.0,0.0,0.0,0.0,0.0,0.0,0.0,0.0,0.0,0.0,0.0,0.0,0.0,0.0,0.0,0.0,0.0,0.0,0.0,0.0,0.0,0.0,0.0,-3.5602,-3.5815,-3.5545,-3.5545,-3.5599,-3.5654,-3.5698,-3.5738,-3.5857,-3.5662,-3.5359,-3.4903,-3.4772,-3.4017,-3.2803,-3.2581,-3.1788,-3.0454,-2.9794,-2.9284,-2.8858,-2.822,-2.7286,-2.6112,-2.519,-2.4622,-2.4296,-2.3876,-2.3961,-2.4259,-2.4357,-2.3948,-2.3238,-2.2703,-2.1832,-2.0916,-2.07,-1.9413,-1.8083,-1.8177,-1.6718,-1.4943,-1.4148,-1.2909,-1.1853,-1.1463,-1.1365,-1.1298,-1.1086,-1.2078,-1.3017,-1.3403,-1.4381,-1.5244,-1.5738,-1.5832,-1.5832,-1.5832,-1.5832,-1.5832,-1.5832,-1.5832,-1.6103,-1.7044,-1.7498,-1.8056,-1.8948,-1.9314,-1.9497,-1.9497,-2.0296,-2.0926,-2.1302,-2.212,-2.3694,-2.5964,-2.5333,-2.6057,-2.8084,-2.8222,-2.8635,-2.9365,-2.9217,-2.9297,-3.3989,-3.4202,-3.4465,0.0,0.0,0.0,0.0,0.0,0.0,0.0,0.0,0.0,0.0,0.0,0.0,0.0,0.0,0.0,0.0,0.0,0.0,0.0,0.0,0.0,0.0,0.0,0.0,-3.4987,-3.5192,-3.5378,-3.5545,-3.5622,-3.567,-3.5781,-3.582,-3.5859,-3.5937,-3.5742,-3.5368,-3.485,-3.4735,-3.3944,-3.252,-3.2546,-3.1613,-2.9989,-2.92,-2.8024,-2.6597,-2.6267,-2.5778,-2.5246,-2.4563,-2.4236,-2.4185,-2.4013,-2.4489,-2.5051,-2.4541,-2.4001,-2.3334,-2.253,-2.1598,-2.0721,-1.9987,-1.9175,-1.8337,-1.7566,-1.66,-1.5629,-1.4854,-1.4076,-1.3403,-1.2813,-1.2716,-1.2651,-1.2509,-1.2924,-1.3391,-1.3496,-1.4406,-1.5297,-1.5752,-1.5832,-1.5832,-1.5832,-1.5832,-1.5832,-1.5832,-1.6292,-1.6857,-1.7591,-1.8596,-1.9497,-2.0206,-2.0674,-2.1033,-2.1033,-2.1676,-2.2031,-2.2031,-2.2775,-2.4145,-2.6483,-2.5206,-2.5574,-2.7775,-2.8329,-2.8842,-2.9428,-2.9679,-2.9654,-3.433,-3.4346,-3.4597,0.0,0.0,0.0,0.0,0.0,0.0,0.0,0.0,0.0,0.0,0.0,0.0,0.0,0.0,0.0,0.0,0.0,0.0,0.0,0.0,0.0,0.0,0.0,-3.3809,-3.4315,-3.4162,-3.4505,-3.5493,-3.565,-3.5763,-3.5859,-3.5937,-3.5976,-3.5976,-3.5781,-3.5407,-3.4903,-3.4697,-3.3844,-3.2383,-3.2301,-3.1308,-2.9629,-2.854,-2.6674,-2.4434,-2.4218,-2.4416,-2.4831,-2.4408,-2.4185,-2.4013,-2.4157,-2.4732,-2.5188,-2.3536,-2.3089,-2.3075,-2.1383,-2.1036,-2.0828,-1.8915,-1.8612,-1.8507,-1.6338,-1.5725,-1.5832,-1.5832,-1.5832,-1.5534,-1.4364,-1.4064,-1.4005,-1.3766,-1.3625,-1.3731,-1.393,-1.4756,-1.5484,-1.5778,-1.5832,-1.5832,-1.5832,-1.5832,-1.5832,-1.6021,-1.703,-1.7777,-1.8056,-2.0025,-2.1391,-2.148,-2.2492,-2.3144,-2.3144,-2.3144,-2.3144,-2.3144,-2.3212,-2.4296,-2.6483,-2.5114,-2.5341,-2.7299,-2.8004,-2.8524,-2.9026,-2.9553,-2.9528,0.0,0.0,0.0,0.0,0.0,0.0,0.0,0.0,0.0,0.0,0.0,0.0,0.0,0.0,0.0,0.0,0.0,0.0,0.0,0.0,0.0,0.0,0.0,0.0,0.0,0.0,-3.2317,-3.2063,-3.344,-3.4581,-3.5224,-3.5489,-3.5654,-3.5742,-3.5742,-3.582,-3.5937,-3.5703,-3.5368,-3.4903,-3.4375,-3.3313,-3.1756,-3.0766,-2.9387,-2.7614,-2.6375,-2.4772,-2.308,-2.2893,-2.2719,-2.265,-2.3679,-2.4013,-2.4106,-2.4928,-2.4939,-2.4486,-2.451,-2.3541,-2.2268,-2.2312,-2.1787,-2.1286,-2.153,-2.1047,-1.9903,-1.7873,-1.6532,-1.5832,-1.5832,-1.5832,-1.5737,-1.5534,-1.5439,-1.5425,-1.536,-1.5347,-1.5347,-1.536,-1.5365,-1.5484,-1.5778,-1.5832,-1.5832,-1.5832,-1.5832,-1.6197,-1.7217,-1.7591,-1.8411,-2.0421,-2.1033,-2.1658,-2.2668,-2.295,-2.3144,-2.3144,-2.3144,-2.3144,-2.3144,-2.3973,-2.5126,-2.6483,-2.6634,-2.6831,-2.7299,-2.8758,-2.9549,-2.9628,-2.9754,-2.9729,0.0,0.0,0.0,-3.4151,0.0,0.0,0.0,0.0,0.0,0.0,0.0,0.0,0.0,0.0,0.0,0.0,0.0,0.0,0.0,0.0,0.0,0.0,0.0,0.0,0.0,0.0,-3.0413,-3.1099,-3.3031,-3.449,-3.5196,-3.5471,-3.5652,-3.5807,-3.5801,-3.584,-3.5917,-3.5725,-3.5407,-3.4903,-3.4278,-3.3306,-3.2013,-3.0875,-2.9366,-2.7496,-2.6301,-2.4381,-2.2104,-2.2959,-2.2343,-2.1123,-2.2896,-2.414,-2.4843,-2.5358,-2.5492,-2.5217,-2.449,-2.3771,-2.2955,-2.2229,-2.1938,-2.1792,-2.1646,-2.05,-1.8814,-1.7174,-1.6292,-1.5927,-1.6574,-1.6292,-1.5927,-1.6574,-1.6763,-1.6763,-1.6763,-1.6763,-1.6763,-1.6763,-1.6168,-1.5658,-1.5805,-1.5832,-1.5832,-1.5832,-1.5832,-1.6292,-1.7498,-1.8226,-1.9248,-2.0873,-2.1743,-2.2309,-2.2765,-2.3027,-2.3144,-2.3144,-2.3144,-2.3387,-2.3887,-2.4532,-2.5187,-2.6021,-2.7127,-2.7545,-2.7299,-2.8642,-2.9503,-2.9804,-2.9804,-2.9804,0.0,0.0,0.0,0.0,0.0,-3.4251,0.0,0.0,0.0,0.0,0.0,0.0,0.0,0.0,0.0,0.0,0.0,0.0,0.0,0.0,0.0,0.0,0.0,0.0,0.0,0.0,-2.8542,-3.049,-3.2545,-3.4157,-3.5182,-3.5432,-3.565,-3.5842,-3.5853,-3.5843,-3.5847,-3.574,-3.5485,-3.5133,-3.4375,-3.3553,-3.2735,-3.1213,-2.9642,-2.7963,-2.6658,-2.4434,-2.191,-2.3389,-2.2737,-2.0947,-2.2751,-2.4221,-2.5375,-2.5424,-2.5753,-2.5975,-2.4272,-2.3722,-2.3638,-2.2001,-2.1786,-2.2074,-2.1076,-1.9355,-1.7498,-1.6749,-1.6386,-1.648,-1.7684,-1.7311,-1.6749,-1.7777,-1.8056,-1.7963,-1.7777,-1.7684,-1.7621,-1.7493,-1.6522,-1.5832,-1.5832,-1.5832,-1.5927,-1.6103,-1.6197,-1.6669,-1.8226,-1.9222,-2.0193,-2.1044,-2.2301,-2.3008,-2.2656,-2.2949,-2.3144,-2.3144,-2.3144,-2.3627,-2.4787,-2.5189,-2.5678,-2.6063,-2.7381,-2.7854,-2.7488,-2.8299,-2.9126,-2.9804,-2.9804,-2.9804,0.0,0.0,0.0,0.0,-3.6186,0.0,0.0,0.0,0.0,0.0,0.0,0.0,0.0,0.0,0.0,0.0,0.0,0.0,0.0,0.0,0.0,0.0,0.0,0.0,0.0,0.0,0.0,-2.9582,-3.1533,-3.3245,-3.4861,-3.5315,-3.5572,-3.5726,-3.5622,-3.5611,-3.5734,-3.5585,-3.568,-3.5968,-3.4622,-3.3903,-3.3658,-3.043,-2.8653,-2.8055,-2.5898,-2.4322,-2.3326,-2.3911,-2.4044,-2.3816,-2.4017,-2.4202,-2.4393,-2.4929,-2.5071,-2.5071,-2.4352,-2.3599,-2.2783,-2.2461,-2.1901,-2.1409,-2.1266,-1.9571,-1.787,-1.8856,-1.8319,-1.7777,-1.8948,-1.9222,-1.9131,-1.9222,-1.9314,-1.9039,-1.7963,-1.7684,-1.7493,-1.6649,-1.6101,-1.5832,-1.5832,-1.5832,-1.6197,-1.7311,-1.7498,-1.8319,-2.0567,-2.1016,-2.1551,-2.2698,-2.3018,-2.3125,-2.3066,-2.3105,-2.3144,-2.3144,-2.3144,-2.3627,-2.4787,-2.6685,-2.7789,-2.7829,-2.7975,-2.8049,-2.805,-2.8124,-2.875,-2.9804,-2.9804,-2.9804,0.0,0.0,0.0,0.0,0.0,0.0,-3.6818,0.0,-3.5416,0.0,0.0,0.0,0.0,0.0,0.0,0.0,0.0,0.0,0.0,0.0,0.0,0.0,0.0,0.0,0.0,0.0,0.0,0.0,0.0,-3.3036,-3.4462,-3.5159,-3.5494,-3.5482,-3.6021,-3.6277,-3.6223,-3.6738,-3.6972,-3.6843,-3.5912,-3.4897,-3.3784,-3.1681,-2.9757,-2.8063,-2.7099,-2.5496,-2.3603,-2.4958,-2.4764,-2.3536,-2.4369,-2.5016,-2.5533,-2.577,-2.6083,-2.6108,-2.4719,-2.4251,-2.4242,-2.3162,-2.2157,-2.1122,-2.0439,-1.9588,-1.8688,-1.8503,-1.8596,-1.9039,-2.0206,-2.0025,-1.9679,-2.0387,-2.0567,-2.0206,-1.9039,-1.883,-1.8769,-1.8254,-1.7787,-1.7544,-1.7916,-1.739,-1.7044,-1.7591,-1.8319,-1.9232,-2.0713,-2.0959,-2.1323,-2.2272,-2.2637,-2.2773,-2.2773,-2.3008,-2.3144,-2.3144,-2.4317,-2.5316,-2.5797,-2.7561,-2.8571,-2.8599,-2.7946,-2.7795,-2.8097,-2.8097,-2.8524,-2.9302,-2.9628,-2.9804,-3.5705,0.0,0.0,0.0,0.0,0.0,0.0,0.0,0.0,0.0,0.0,0.0,0.0,0.0,0.0,0.0,0.0,0.0,0.0,0.0,0.0,0.0,0.0,0.0,0.0,0.0,0.0,0.0,0.0,0.0,-3.3897,-3.5081,-3.5728,-3.5726,-3.6687,-3.7146,-3.7084,-3.7752,-3.7947,-3.7714,-3.6882,-3.5841,-3.4658,-3.2925,-3.0964,-2.8876,-2.8354,-2.6671,-2.4425,-2.6094,-2.561,-2.3975,-2.5046,-2.5923,-2.6719,-2.6441,-2.6772,-2.7018,-2.5252,-2.477,-2.4702,-2.3505,-2.2296,-2.1123,-2.024,-1.9786,-1.9405,-1.8856,-1.9314,-2.0314,-2.148,-2.1123,-2.0674,-2.1569,-2.1747,-2.148,-2.0223,-2.0154,-2.0105,-1.9678,-1.9304,-1.9239,-1.9674,-1.897,-1.8427,-1.8703,-1.9405,-2.0266,-2.1126,-2.1268,-2.154,-2.2006,-2.2441,-2.2676,-2.2676,-2.2969,-2.3144,-2.3144,-2.5231,-2.6483,-2.6483,-2.8246,-2.9101,-2.8925,-2.8147,-2.7871,-2.8097,-2.8247,-2.8524,-2.895,-2.9528,-2.9804,0.0,0.0,0.0,-3.7781,0.0,0.0,0.0,0.0,-3.6614,0.0,0.0,0.0,0.0,0.0,0.0,0.0,0.0,0.0,0.0,0.0,0.0,0.0,0.0,0.0,0.0,0.0,0.0,0.0,0.0,0.0,-3.3111,-3.5159,-3.6434,-3.6832,-3.758,-3.8079,-3.8255,-3.8093,-3.8205,-3.8524,-3.7091,-3.665,-3.6984,-3.3485,-3.1539,-3.0837,-2.9182,-2.767,-2.6494,-2.7076,-2.6917,-2.6414,-2.644,-2.6822,-2.7138,-2.6202,-2.644,-2.7101,-2.5977,-2.4545,-2.3164,-2.3144,-2.2252,-2.1295,-2.123,-2.0456,-1.977,-2.0836,-2.1194,-2.148,-2.2775,-2.3038,-2.295,-2.3038,-2.3057,-2.2687,-2.148,-2.1212,-2.096,-2.0036,-2.0025,-2.014,-2.0471,-2.0239,-2.0247,-2.1087,-2.1194,-2.153,-2.2302,-2.2785,-2.2862,-2.2539,-2.2871,-2.3125,-2.3125,-2.3125,-2.3144,-2.3144,-2.5231,-2.6483,-2.6483,-2.8609,-2.9503,-2.8925,-2.89,-2.8624,-2.8097,-2.8649,-2.89,-2.895,-2.9528,-2.9804,0.0,0.0,-4.0062,-3.8643,0.0,0.0,0.0,0.0,0.0,0.0,0.0,0.0,0.0,0.0,0.0,0.0,0.0,0.0,0.0,0.0,0.0,0.0,0.0,0.0,0.0,0.0,0.0,0.0,0.0,0.0,0.0,-3.4906,-3.6461,-3.7516,-3.8514,-3.8973,-3.877,-3.9223,-3.9262,-3.8885,-3.8089,-3.6856,-3.5192,-3.3472,-3.1591,-2.9639,-2.8861,-2.772,-2.6564,-2.7101,-2.7011,-2.6533,-2.6533,-2.6797,-2.725,-2.6917,-2.749,-2.8124,-2.6662,-2.4869,-2.3144,-2.3144,-2.2233,-2.1277,-2.1266,-2.1051,-2.0747,-2.1212,-2.1854,-2.258,-2.295,-2.3144,-2.3144,-2.3144,-2.3144,-2.2599,-2.0584,-2.0229,-2.034,-2.0085,-2.0223,-2.0925,-2.2409,-2.2648,-2.2336,-2.1826,-2.2218,-2.2533,-2.2473,-2.2637,-2.2676,-2.2519,-2.2637,-2.2832,-2.3125,-2.3144,-2.3144,-2.3144,-2.5231,-2.6483,-2.6483,-2.8633,-2.9704,-2.9503,-2.9126,-2.8825,-2.8649,-2.8825,-2.8925,-2.895,-2.9528,-2.9804,-4.0236,-4.0906,0.0,-3.9548,-3.915,0.0,-3.478,0.0,0.0,0.0,0.0,0.0,0.0,0.0,0.0,0.0,0.0,0.0,0.0,0.0,0.0,0.0,0.0,0.0,0.0,0.0,0.0,0.0,0.0,0.0,0.0,0.0,-3.6794,-3.8337,-3.938,-3.9778,-3.9422,-3.9921,-3.9702,-3.8812,-3.8339,-3.6904,-3.4678,-3.3355,-3.1528,-2.9302,-2.8746,-2.7728,-2.6526,-2.7042,-2.7011,-2.6533,-2.6678,-2.713,-2.7593,-2.7586,-2.778,-2.7837,-2.6428,-2.4682,-2.3144,-2.3144,-2.2572,-2.1933,-2.1975,-2.1943,-2.1943,-2.1943,-2.2492,-2.3144,-2.3144,-2.3144,-2.3144,-2.3144,-2.3144,-2.2687,-2.1141,-2.0958,-2.1042,-2.1133,-2.145,-2.2204,-2.3557,-2.3789,-2.3461,-2.2569,-2.277,-2.2988,-2.2559,-2.2637,-2.2676,-2.2539,-2.2637,-2.2852,-2.3125,-2.3474,-2.3714,-2.3714,-2.5797,-2.7035,-2.7035,-2.8791,-2.9804,-2.9804,-2.9428,-2.9126,-2.8925,-2.9126,-2.9126,-2.895,-2.9528,-2.9804]},{"header":{"parameterUnit":"m.s-1","parameterCategory":1,"la1":30.6,"la2":29.2853,"lo1":-89.7004,"lo2":-87.6739,"dx":0.0162,"dy":0.0183,"nx":112,"ny":82,"refTime":"2023-01-08T06:00:00:Z","depth":0,"parameterNumber":3,"parameterNumberName":"V-component_of_WINDS"},"data":[0.0,0.0,0.0,0.0,0.0,0.0,0.0,0.0,0.0,0.0,0.0,0.0,0.0,0.0,0.0,0.0,0.0,0.0,0.0,0.0,0.0,0.0,0.0,0.0,0.0,0.0,0.0,0.0,0.0,0.0,0.0,0.0,0.0,0.0,0.0,0.0,0.0,0.0,0.0,0.0,0.0,0.0,0.0,0.0,0.0,0.0,0.0,0.0,0.0,0.0,0.0,0.0,0.0,0.0,0.0,0.0,0.0,0.0,0.0,0.0,0.0,0.0,0.0,0.0,0.0,0.0,0.0,0.0,0.0,0.0,0.0,0.0,0.0,0.0,0.0,0.0,0.0,0.0,0.0,0.0,0.0,0.0,0.0,0.0,0.0,0.0,0.0,0.0,0.0,0.0,0.0,-0.2902,-0.2093,-0.2221,-0.3225,-0.6164,-0.9597,-1.3414,0.0,0.0,0.0,0.0,0.0,0.0,0.0,0.0,0.0,0.0,0.0,0.0,0.0,0.0,0.0,0.0,0.0,0.0,0.0,0.0,0.0,0.0,0.0,0.0,0.0,0.0,0.0,0.0,0.0,0.0,0.0,0.0,0.0,0.0,0.0,0.0,0.0,0.0,0.0,0.0,0.0,0.0,0.0,0.0,0.0,0.0,0.0,0.0,0.0,0.0,0.0,0.0,0.0,0.0,0.0,0.0,0.0,0.0,0.0,0.0,0.0,0.0,0.0,0.0,0.0,0.0,0.0,0.0,0.0,0.0,0.0,0.0,0.0,0.0,0.0,0.0,0.0,0.0,0.0,0.0,0.0,0.0,0.0,0.0,0.0,0.0,0.0,0.0,0.0,0.0,0.0,0.0,0.0,0.0,0.0,0.0,0.0,0.0,0.0,0.0,0.0,0.0,0.0,0.0,-0.5742,-0.0997,-0.131,-0.2234,-0.3466,-0.6484,-0.9927,-1.3591,0.0,0.0,0.0,0.0,0.0,0.0,0.0,0.0,0.0,0.0,0.0,0.0,0.0,0.0,0.0,0.0,0.0,0.0,0.0,0.0,0.0,0.0,0.0,0.0,0.0,0.0,0.0,0.0,0.0,0.0,0.0,0.0,0.0,0.0,0.0,0.0,0.0,0.0,0.0,0.0,0.0,0.0,0.0,0.0,0.0,0.0,0.0,0.0,0.0,0.0,0.0,0.0,0.0,0.0,0.0,0.0,0.0,0.0,0.0,0.0,0.0,0.0,0.0,0.0,0.0,0.0,0.0,0.0,0.0,0.0,0.0,0.0,0.0,0.0,0.0,0.0,0.0,0.0,0.0,0.0,0.0,0.0,0.0,0.0,0.0,0.0,0.0,0.0,0.0,0.0,0.0,0.0,0.0,0.0,0.0,0.0,0.0,0.0,0.0,0.0,0.0,0.0,0.0,-0.7277,-0.4288,-0.0425,-0.1671,-0.3037,-0.3571,-0.7125,-1.0529,-1.3209,-1.6298,0.0,0.0,0.0,0.0,0.0,0.0,0.0,0.0,0.0,0.0,0.0,0.0,0.0,0.0,0.0,0.0,0.0,0.0,0.0,0.0,0.0,0.0,0.0,0.0,0.0,0.0,0.0,0.0,0.0,0.0,0.0,0.0,0.0,0.0,0.0,0.0,0.0,0.0,0.0,0.0,0.0,0.0,0.0,0.0,0.0,0.0,0.0,0.0,0.0,0.0,0.0,0.0,0.0,0.0,0.0,0.0,0.0,0.0,0.0,0.0,0.0,0.0,0.0,0.0,0.0,0.0,0.0,0.0,0.0,0.0,0.0,0.0,0.0,0.0,0.0,0.0,0.0,0.0,0.0,0.0,0.0,0.0,0.0,0.0,0.0,0.0,0.0,0.0,0.0,0.0,0.0,0.0,0.0,0.0,0.0,0.0,0.0,0.0,0.0,0.0,0.0,0.0,-0.5425,-0.3299,-0.0692,-0.2294,-0.3749,-0.4016,-0.8068,-1.1226,-1.2865,-1.6351,0.0,0.0,0.0,0.0,0.0,0.0,0.0,0.0,0.0,0.0,0.0,0.0,0.0,0.0,0.0,0.0,0.0,0.0,0.0,0.0,0.0,0.0,0.0,0.0,0.0,0.0,0.0,0.0,0.0,0.0,0.0,0.0,0.0,0.0,0.0,0.0,0.0,0.0,0.0,0.0,0.0,0.0,0.0,0.0,0.0,0.0,0.0,0.0,0.0,0.0,0.0,0.0,0.0,0.0,0.0,0.0,0.0,0.0,0.0,0.0,0.0,0.0,0.0,0.0,0.0,0.0,0.0,0.0,0.0,0.0,0.0,0.0,0.0,0.0,0.0,0.0,0.0,0.0,0.0,0.0,0.0,0.0,0.0,0.0,0.0,0.0,0.0,0.0,0.0,0.0,0.0,0.0,0.0,0.0,0.0,0.0,0.0,0.0,0.0,0.0,0.0,0.0,-0.5821,-0.3855,-0.19,-0.2823,-0.4016,-0.5181,-0.9065,-1.1914,-1.294,-1.6609,0.0,0.0,0.0,0.0,0.0,0.0,0.0,0.0,0.0,0.0,0.0,0.0,0.0,0.0,0.0,0.0,0.0,0.0,0.0,0.0,0.0,0.0,0.0,0.0,0.0,0.0,0.0,0.0,0.0,0.0,0.0,0.0,0.0,0.0,0.0,0.0,0.0,0.0,0.0,0.0,0.0,0.0,0.0,0.0,0.0,0.0,0.0,0.0,0.0,0.0,0.0,0.0,0.0,0.0,0.0,0.0,0.0,0.0,0.0,0.0,0.0,0.0,0.0,0.0,0.0,0.0,0.0,0.0,0.0,0.0,0.0,0.0,0.0,0.0,0.0,0.0,0.0,0.0,0.0,0.0,0.0,0.0,0.0,0.0,0.0,0.0,0.0,0.0,0.0,0.0,0.0,0.0,0.0,0.0,0.0,0.0,0.0,0.0,0.0,0.0,0.0,0.0,-0.7218,-0.5547,0.0,-0.3997,-0.491,-0.5359,-0.9235,-1.2055,-1.3259,0.0,0.0,0.0,0.0,0.0,0.0,0.0,0.0,0.0,0.0,0.0,0.0,0.0,0.0,0.0,0.0,0.0,0.0,0.0,0.0,0.0,0.0,0.0,0.0,0.0,0.0,0.0,0.0,0.0,0.0,0.0,0.0,0.0,0.0,0.0,0.0,0.0,0.0,0.0,0.0,0.0,0.0,0.0,0.0,0.0,0.0,0.0,0.0,0.0,0.0,0.0,0.0,0.0,0.0,0.0,0.0,0.0,0.0,0.0,0.0,0.0,0.0,0.0,0.0,0.0,0.0,0.0,0.0,0.0,0.0,0.0,0.0,0.0,0.0,0.0,0.0,0.0,0.0,0.0,0.0,0.0,0.0,0.0,0.0,0.0,0.0,0.0,0.0,0.0,0.0,0.0,0.0,0.0,0.0,0.0,0.0,0.0,0.0,0.0,0.0,0.0,0.0,-0.9482,-0.8143,-0.6709,0.0,-0.491,-0.5714,-0.6416,-0.9853,-1.2415,-1.3693,0.0,0.0,0.0,0.0,0.0,0.0,0.0,0.0,0.0,0.0,0.0,0.0,0.0,0.0,0.0,0.0,0.0,0.0,0.0,0.0,0.0,0.0,0.0,0.0,0.0,0.0,0.0,0.0,0.0,0.0,0.0,0.0,0.0,0.0,0.0,0.0,0.0,0.0,0.0,0.0,0.0,0.0,0.0,0.0,0.0,0.0,0.0,0.0,0.0,0.0,0.0,0.0,0.0,0.0,0.0,0.0,0.0,0.0,0.0,0.0,0.0,0.0,0.0,0.0,0.0,0.0,0.0,0.0,0.0,0.0,0.0,0.0,0.0,0.0,0.0,0.0,0.0,0.0,0.0,0.0,0.0,0.0,0.0,0.0,0.0,0.0,0.0,0.0,0.0,0.0,0.0,0.0,0.0,0.0,0.0,0.0,0.0,0.0,0.0,0.0,0.0,0.0,-0.9504,-0.8335,-0.725,-0.5598,-0.5447,-0.6334,-0.8711,-1.1198,-1.3112,0.0,0.0,0.0,0.0,0.0,0.0,0.0,0.0,0.0,0.0,0.0,0.0,0.0,0.0,0.0,0.0,0.0,0.0,0.0,0.0,0.0,0.0,0.0,0.0,0.0,0.0,0.0,0.0,0.0,0.0,0.0,0.0,0.0,0.0,0.0,0.0,0.0,0.0,0.0,0.0,0.0,0.0,0.0,0.0,0.0,0.0,0.0,0.0,0.0,0.0,0.0,0.0,0.0,0.0,0.0,0.0,0.0,0.0,0.0,0.0,0.0,0.0,0.0,0.0,0.0,0.0,0.0,0.0,0.0,0.0,0.0,0.0,0.0,0.0,0.0,0.0,0.0,0.0,0.0,0.0,0.0,0.0,0.0,0.0,0.0,0.0,0.0,0.0,0.0,0.0,0.0,0.0,0.0,0.0,0.0,0.0,0.0,0.0,0.0,0.0,0.0,0.0,0.0,-1.0248,-0.9591,-0.8759,-0.6845,-0.6605,-0.7217,-0.8807,-1.1198,-1.2914,-1.3697,0.0,0.0,0.0,0.0,0.0,0.0,0.0,0.0,0.0,0.0,0.0,0.0,0.0,0.0,0.0,0.0,0.0,0.0,0.0,0.0,0.0,0.0,0.0,0.0,0.0,0.0,0.0,0.0,0.0,0.0,0.0,0.0,0.0,0.0,0.0,0.0,0.0,0.0,0.0,0.0,0.0,0.0,0.0,0.0,0.0,0.0,0.0,0.0,0.0,0.0,0.0,0.0,0.0,0.0,0.0,0.0,0.0,0.0,0.0,0.0,0.0,0.0,0.0,0.0,0.0,0.0,0.0,0.0,0.0,0.0,0.0,0.0,0.0,0.0,0.0,0.0,0.0,0.0,0.0,0.0,0.0,0.0,0.0,0.0,0.0,0.0,0.0,0.0,0.0,0.0,0.0,0.0,0.0,0.0,0.0,0.0,0.0,0.0,0.0,0.0,0.0,0.0,-1.0504,-1.0097,-0.9441,-0.7298,-0.7143,-0.7577,-0.8798,-1.0968,-1.2645,-1.3584,0.0,0.0,0.0,0.0,0.0,0.0,0.0,0.0,0.0,0.0,0.0,0.0,0.0,0.0,0.0,0.0,0.0,0.0,0.0,0.0,0.0,0.0,0.0,0.0,0.0,0.0,0.0,0.0,0.0,0.0,0.0,0.0,0.0,0.0,0.0,0.0,0.0,0.0,0.0,0.0,0.0,0.0,0.0,0.0,0.0,0.0,0.0,0.0,0.0,0.0,0.0,0.0,0.0,0.0,0.0,0.0,0.0,0.0,0.0,0.0,0.0,0.0,0.0,0.0,0.0,0.0,0.0,0.0,0.0,0.0,0.0,0.0,0.0,0.0,0.0,0.0,0.0,0.0,0.0,0.0,0.0,0.0,0.0,0.0,0.0,0.0,0.0,0.0,0.0,0.0,0.0,0.0,0.0,0.0,0.0,0.0,0.0,0.0,0.0,0.0,0.0,0.0,-1.0504,-1.0119,-0.9459,-0.7298,-0.7143,-0.7577,-0.8798,-1.0531,-1.2226,-1.3648,0.0,0.0,0.0,0.0,0.0,0.0,0.0,0.0,0.0,0.0,0.0,0.0,0.0,0.0,0.0,0.0,0.0,0.0,0.0,0.0,0.0,0.0,0.0,0.0,0.0,0.0,0.0,0.0,0.0,0.0,0.0,0.0,0.0,0.0,0.0,0.0,0.0,0.0,0.0,0.0,0.0,0.0,0.0,0.0,0.0,0.0,0.0,0.0,0.0,0.0,0.0,0.0,0.0,0.0,0.0,0.0,0.0,0.0,0.0,0.0,-1.8203,0.0,0.0,0.0,0.0,0.0,0.0,0.0,0.0,0.0,0.0,0.0,0.0,0.0,0.0,0.0,0.0,0.0,0.0,0.0,0.0,0.0,0.0,0.0,0.0,0.0,0.0,0.0,0.0,0.0,0.0,0.0,0.0,0.0,0.0,0.0,0.0,0.0,0.0,0.0,0.0,0.0,-1.0449,-1.0336,-0.9607,-0.7312,-0.7143,-0.7577,-0.8798,-1.0531,-1.1858,-1.2346,-1.546,0.0,0.0,0.0,0.0,0.0,0.0,0.0,0.0,0.0,0.0,0.0,0.0,0.0,0.0,0.0,0.0,0.0,0.0,0.0,0.0,0.0,0.0,0.0,0.0,0.0,0.0,0.0,0.0,0.0,0.0,0.0,0.0,0.0,0.0,0.0,0.0,0.0,0.0,0.0,0.0,0.0,0.0,0.0,0.0,0.0,0.0,0.0,0.0,0.0,0.0,0.0,0.0,0.0,0.0,0.0,0.0,0.0,0.0,0.0,0.0,-1.8405,0.0,0.0,0.0,0.0,0.0,0.0,0.0,0.0,0.0,0.0,0.0,0.0,0.0,0.0,0.0,0.0,0.0,0.0,0.0,0.0,0.0,0.0,0.0,0.0,0.0,0.0,0.0,0.0,0.0,0.0,0.0,0.0,0.0,0.0,0.0,0.0,0.0,0.0,0.0,0.0,-1.1208,-1.0695,-0.9923,-0.8193,-0.7489,-0.7312,-0.8017,-0.9971,-1.1332,-1.1738,-1.4941,0.0,0.0,0.0,0.0,0.0,0.0,0.0,0.0,0.0,0.0,0.0,0.0,0.0,0.0,0.0,0.0,0.0,0.0,0.0,0.0,0.0,0.0,0.0,0.0,0.0,0.0,0.0,0.0,0.0,0.0,0.0,0.0,0.0,0.0,0.0,0.0,0.0,0.0,0.0,0.0,0.0,0.0,0.0,0.0,0.0,0.0,0.0,0.0,0.0,0.0,0.0,0.0,0.0,-1.4641,-1.4871,-1.5226,-1.5668,-1.5716,-1.5504,-1.6988,-1.7956,-1.8608,-2.0016,0.0,0.0,0.0,0.0,0.0,0.0,0.0,0.0,0.0,0.0,0.0,0.0,0.0,0.0,0.0,0.0,0.0,0.0,0.0,0.0,0.0,0.0,0.0,0.0,-1.7725,-1.851,0.0,0.0,0.0,0.0,0.0,0.0,0.0,0.0,0.0,0.0,0.0,0.0,-1.1983,-1.1032,-1.0144,-0.9061,-0.7841,-0.7224,-0.7401,-0.9401,-1.0942,-1.1709,-1.462,-1.6349,0.0,0.0,0.0,0.0,0.0,0.0,0.0,0.0,0.0,0.0,0.0,0.0,0.0,0.0,0.0,0.0,0.0,0.0,0.0,0.0,0.0,0.0,0.0,0.0,0.0,0.0,0.0,0.0,0.0,0.0,0.0,0.0,-1.6489,-1.5666,0.0,0.0,0.0,0.0,0.0,0.0,0.0,0.0,0.0,0.0,0.0,0.0,0.0,-0.9456,-0.952,-0.9787,-1.076,-1.259,-1.259,-1.3548,-1.5226,-1.5668,-1.5878,-1.5855,-1.7201,0.0,-1.7852,-1.9319,0.0,0.0,0.0,0.0,0.0,0.0,0.0,0.0,0.0,0.0,0.0,0.0,0.0,0.0,0.0,0.0,0.0,0.0,0.0,0.0,0.0,0.0,-1.8045,-1.7852,-1.7939,-1.8113,0.0,-1.8596,-1.9067,-1.894,-1.9059,0.0,0.0,0.0,0.0,0.0,0.0,0.0,-1.188,-1.0795,-0.9894,-0.8956,-0.7841,-0.7489,-0.8544,-0.9836,-1.1026,-1.2178,-1.4992,-1.6162,-1.5051,-1.7975,0.0,0.0,0.0,0.0,0.0,0.0,0.0,0.0,0.0,0.0,0.0,0.0,0.0,0.0,0.0,0.0,0.0,0.0,0.0,0.0,0.0,0.0,0.0,0.0,0.0,0.0,0.0,0.0,0.0,-1.7436,-1.6227,-1.4482,-1.3822,-1.375,0.0,0.0,0.0,0.0,0.0,0.0,0.0,0.0,0.0,-0.7163,-0.7694,-0.7747,-0.7317,-0.8098,-0.9432,-1.144,-1.144,-1.2178,-1.3593,-1.492,-1.536,-1.5205,-1.7283,-1.7985,-1.7824,-1.9371,-2.0514,-2.1299,0.0,0.0,0.0,0.0,-2.2506,-2.1666,-2.0822,-1.9989,0.0,-1.8298,0.0,0.0,0.0,0.0,0.0,0.0,0.0,0.0,0.0,0.0,-1.8008,-1.8008,-1.8008,-1.8008,-1.8008,-1.8207,-1.8425,0.0,-1.848,-1.823,-1.7968,0.0,0.0,0.0,0.0,-1.3744,-1.2708,-1.1769,-1.1036,-1.0844,-0.974,-0.9314,-0.9836,-1.075,-1.1763,-1.2837,-1.5068,-1.6313,-1.6079,-1.8344,-1.9119,0.0,0.0,0.0,0.0,0.0,0.0,0.0,0.0,0.0,0.0,0.0,0.0,0.0,0.0,0.0,0.0,0.0,0.0,0.0,0.0,0.0,0.0,0.0,0.0,0.0,0.0,0.0,0.0,-1.6173,-1.5186,-1.2767,-1.1659,-1.1304,0.0,0.0,0.0,0.0,0.0,0.0,-0.8061,-0.8061,-0.7425,-0.5982,-0.6663,-0.6798,-0.622,-0.7011,-0.8304,-1.0034,-1.026,-1.0944,-1.1996,-1.4227,-1.5006,-1.4828,-1.7329,-1.8214,-1.8092,-1.9335,-2.0443,-2.1296,-2.186,-2.2505,-2.3098,-2.3098,-2.226,-2.1117,-2.0799,-1.9633,-1.8187,-1.7802,0.0,-1.8685,-1.8154,0.0,0.0,0.0,0.0,-1.8008,-1.8008,-1.8008,-1.8008,-1.8008,-1.8008,-1.8008,-1.8008,-1.7707,-1.7687,0.0,-1.7961,-1.7492,-1.7206,0.0,0.0,0.0,0.0,-1.3535,-1.3283,-1.245,-1.1969,-1.2287,-1.1241,-1.061,-1.0952,-1.1649,-1.2563,-1.3601,-1.5557,-1.6967,-1.7617,-1.9425,-2.0461,-2.037,0.0,0.0,0.0,0.0,0.0,0.0,0.0,0.0,0.0,0.0,0.0,0.0,0.0,0.0,0.0,0.0,0.0,0.0,0.0,0.0,0.0,0.0,0.0,0.0,0.0,0.0,0.0,0.0,0.0,-0.9734,-0.8543,0.0,0.0,0.0,0.0,-0.7539,-0.7556,-0.7122,-0.5989,-0.6084,-0.6173,-0.624,-0.6325,-0.6331,-0.6254,-0.6338,-0.6872,-0.7931,-0.8922,-0.9895,-1.1007,-1.3852,-1.5226,-1.528,-1.7179,-1.8181,-1.849,-1.8807,-1.9481,-2.0284,-2.0866,-2.1579,-2.2387,-2.2387,-2.1756,-2.0831,-1.9627,-1.8044,-1.6636,-1.7252,-1.791,-1.8511,-1.8575,-1.8532,0.0,0.0,-1.7762,-1.8008,-1.8008,-1.8008,-1.8008,-1.8008,-1.8008,-1.8008,-1.8008,-1.7034,-1.6578,0.0,-1.7298,-1.6497,-1.6078,0.0,-1.4271,-1.3293,-1.3145,-1.3187,-1.3209,-1.2221,-1.1688,-1.2275,-1.1016,-1.0627,-1.1709,-1.2438,-1.3304,-1.4428,-1.6823,-1.8546,-1.926,-2.1565,-2.2629,-2.2299,-2.2485,0.0,0.0,0.0,0.0,0.0,0.0,0.0,0.0,0.0,0.0,0.0,0.0,0.0,0.0,0.0,0.0,0.0,0.0,0.0,0.0,0.0,0.0,0.0,0.0,0.0,0.0,0.0,0.0,-0.8703,-0.7512,0.0,-0.5803,-0.5739,-0.6033,-0.6579,-0.6684,-0.6547,-0.6166,-0.6173,-0.5893,-0.5312,-0.5944,-0.5944,-0.5312,-0.5944,-0.6795,-0.7787,-0.8846,-0.982,-1.0858,-1.3215,-1.4243,-1.4314,-1.6298,-1.7192,-1.736,-1.8021,-1.8934,-1.9932,-2.0494,-2.095,-2.1198,-2.1198,-2.0637,-1.9768,-1.872,-1.7553,-1.6566,-1.68,-1.7466,-1.8155,-1.8221,-1.8221,-1.8108,-1.7841,-1.7891,-1.8008,-1.8008,-1.8008,-1.8008,-1.8008,-1.8008,-1.8008,-1.8008,-1.7668,-1.7456,-1.7901,-1.6583,-1.5444,-1.5525,-1.466,-1.3706,-1.2868,-1.2671,-1.2695,-1.312,-1.2883,-1.2692,-1.3074,-1.2692,-1.2707,-1.3559,-1.3726,-1.4668,-1.6861,-1.8104,-1.9375,-2.0805,-2.2675,-2.3623,-2.3487,-2.4067,-2.3612,0.0,0.0,0.0,0.0,0.0,0.0,0.0,0.0,0.0,0.0,0.0,0.0,0.0,0.0,0.0,0.0,0.0,0.0,0.0,0.0,0.0,0.0,0.0,0.0,0.0,0.0,-1.1627,-0.8098,-0.6359,-0.5056,-0.4201,-0.3822,-0.3904,-0.4588,-0.5306,-0.5628,-0.5234,-0.5944,-0.6099,-0.577,-0.6099,-0.6247,-0.6227,-0.6626,-0.7173,-0.7787,-0.914,-0.997,-1.0335,-1.2631,-1.3665,-1.381,-1.5438,-1.628,-1.6627,-1.7285,-1.8195,-1.9169,-1.9878,-2.0333,-2.059,-2.059,-2.0074,-1.909,-1.7532,-1.6798,-1.6558,-1.621,-1.701,-1.8008,-1.8008,-1.8008,-1.8008,-1.8008,-1.8008,-1.8008,-1.8008,-1.8008,-1.8008,-1.8008,-1.8008,-1.8008,-1.8008,-1.8008,-1.8008,-1.8008,-1.6291,-1.4932,-1.5219,-1.4143,-1.2942,-1.2025,-1.211,-1.2329,-1.2518,-1.2818,-1.3173,-1.3467,-1.34,-1.365,-1.4436,-1.4405,-1.5613,-1.834,-1.9319,-2.0726,-2.279,-2.3755,-2.4368,-2.4584,-2.5149,-2.4497,-2.2558,0.0,0.0,0.0,0.0,0.0,0.0,0.0,0.0,0.0,0.0,0.0,0.0,0.0,0.0,0.0,0.0,0.0,0.0,0.0,0.0,0.0,0.0,0.0,-1.5438,-1.2635,-0.9969,-0.7938,-0.5041,-0.3122,-0.3044,-0.2192,-0.1646,-0.1568,-0.3519,-0.4219,-0.32,-0.5157,-0.6795,-0.7787,-0.6872,-0.7326,-0.9301,-0.8313,-0.7855,-0.7855,-0.9884,-1.026,-0.9442,-1.2338,-1.368,-1.3738,-1.4728,-1.5649,-1.6558,-1.6558,-1.7148,-1.8076,-1.8911,-1.9748,-2.0526,-2.0526,-1.9944,-1.8824,-1.6123,-1.579,-1.6419,-1.5508,-1.6507,-1.8008,-1.8008,-1.8008,-1.8008,-1.8008,-1.8008,-1.8008,-1.8008,-1.8008,-1.8008,-1.8008,-1.8027,-1.8027,-1.8027,-1.8047,-1.8047,-1.8047,-1.6542,-1.5188,-1.5171,-1.3593,-1.1996,-1.0932,-1.1687,0.0,-1.1313,-1.212,-1.2929,-1.3146,-1.2997,-1.3175,-1.4141,-1.4643,-1.6104,-1.8887,-2.0488,-2.2493,-2.5108,-2.4821,-2.4898,-2.5674,-2.5644,-2.5254,-2.4468,0.0,0.0,0.0,0.0,0.0,0.0,0.0,0.0,0.0,0.0,0.0,0.0,0.0,0.0,0.0,0.0,0.0,0.0,0.0,0.0,0.0,0.0,-1.654,-1.5367,-1.3245,-1.0799,-0.8014,-0.627,-0.4433,-0.2192,-0.2423,-0.2348,-0.1646,-0.3519,-0.4608,-0.4297,-0.555,-0.6795,-0.7787,-0.7557,-0.8008,-0.9301,-0.8998,-0.8922,-0.8922,-1.0185,-1.0634,-1.0409,-1.1983,-1.2659,-1.2732,-1.3665,-1.4657,-1.5649,-1.6349,-1.7148,-1.8008,-1.8259,-1.8529,-1.8731,-1.8731,-1.7677,-1.6192,-1.5438,-1.5367,-1.5649,-1.607,-1.7453,-1.8844,-1.8212,-1.8462,-1.8777,-1.8212,-1.8008,-1.8008,-1.8008,-1.8008,-1.8008,-1.8008,-1.8242,-1.8457,-1.8457,-1.8711,-1.8945,-1.8945,-1.7278,-1.5766,-1.5254,-1.3593,-1.1996,-1.0932,-1.1687,0.0,-1.1313,-1.212,-1.2768,-1.2559,-1.2987,-1.3637,-1.452,-1.5793,-1.7571,-2.0008,-2.1656,-2.3373,-2.5273,-2.57,-2.6287,-2.7021,-2.6093,-2.5254,0.0,0.0,0.0,0.0,0.0,0.0,0.0,0.0,0.0,0.0,0.0,0.0,0.0,0.0,0.0,0.0,0.0,0.0,0.0,0.0,0.0,0.0,-1.9133,-1.6528,-1.5602,-1.355,-1.1255,-0.8647,-0.7126,-0.5129,-0.2501,-0.2345,-0.2192,-0.1646,-0.3125,-0.4219,-0.4686,-0.6086,-0.7403,-0.8389,-0.8817,-0.9497,-1.0571,-1.0559,-1.0323,-0.997,-1.0944,-1.1242,-1.0858,-1.1848,-1.2305,0.0,-1.2879,-1.3665,-1.4601,-1.5155,-1.6228,0.0,0.0,0.0,0.0,0.0,-1.6228,-1.4601,-1.4601,-1.4871,-1.5313,-1.586,-1.7248,-1.8664,-1.8144,-1.8327,-1.8664,-1.8144,-1.8008,-1.8008,-1.8008,-1.8008,-1.8047,-1.8223,-1.8457,-1.8691,-1.8867,-1.9102,-1.9131,-1.8692,-1.7301,0.0,-1.5094,-1.3592,-1.2179,-1.1111,-1.1702,-1.1987,-1.1158,-1.1942,-1.2492,-1.2318,-1.3098,-1.395,-1.4858,-1.6054,0.0,0.0,0.0,-2.2985,-2.4503,-2.5275,0.0,0.0,0.0,0.0,0.0,0.0,0.0,0.0,-2.2563,-2.1588,0.0,0.0,0.0,0.0,0.0,0.0,0.0,0.0,0.0,0.0,0.0,0.0,0.0,0.0,0.0,0.0,-1.9798,-1.7081,-1.5993,-1.3814,-1.1563,-0.9518,-0.7668,-0.5668,-0.3355,-0.2426,-0.1883,-0.1651,-0.2738,-0.3904,-0.4857,0.0,0.0,0.0,0.0,-1.1489,-1.2439,-1.2398,-1.187,-1.1007,-1.1848,-1.1848,-1.1007,-1.1922,-1.2305,-1.2305,-1.2305,-1.2806,-1.3665,-1.3665,-1.4799,-1.6576,-1.751,-1.7803,-1.7579,-1.6645,-1.5155,-1.3738,-1.381,0.0,0.0,-1.5455,-1.6715,-1.8144,-1.8008,-1.8076,-1.8144,-1.8008,-1.8008,-1.8008,-1.8008,-1.8047,-1.8184,-1.8555,-1.8711,-1.8887,-1.9277,-1.9394,-1.912,-1.8061,-1.7046,-1.5976,-1.4907,-1.3698,-1.2479,-1.1349,-1.1841,-1.1961,-1.0944,-1.1761,-1.2439,-1.2398,0.0,0.0,-1.5246,-1.6017,-1.7567,-2.0262,-2.1209,-2.2237,-2.3546,-2.4317,-2.4747,-2.4846,-2.5509,-2.6393,-2.761,-2.6864,-2.6549,-2.6462,-2.2869,-2.1506,0.0,0.0,0.0,0.0,0.0,0.0,0.0,0.0,0.0,0.0,0.0,0.0,0.0,0.0,0.0,-2.2502,-2.0663,-1.8625,-1.6122,-1.4382,-1.2344,-0.9593,-0.8912,-0.721,-0.3433,-0.3671,-0.3467,-0.185,-0.4169,-0.5718,-0.6073,-0.8646,-1.0587,-1.1636,-1.2549,-1.3158,-1.3448,-1.3448,-1.2938,-1.1996,0.0,0.0,-1.1996,-1.2218,-1.2305,-1.2305,-1.2305,-1.2806,-1.3665,-1.3665,-1.4386,-1.5579,-1.6507,-1.6437,-1.5579,-1.4657,-1.4027,-1.381,-1.4601,-1.5029,-1.5438,-1.6941,-1.8172,-1.8911,-1.8192,-1.8462,0.0,-1.8212,-1.8008,-1.8008,-1.8008,-1.8262,-1.8535,-1.8543,-1.916,-1.9687,-1.9766,-2.0059,-2.0005,-1.8976,-1.7854,-1.6718,-1.5665,-1.4163,-1.2713,-1.1385,-1.2082,-1.2257,-1.0968,-1.2338,-1.336,-1.3097,-1.4519,-1.5598,-1.5869,-1.7246,-1.8807,-2.0459,-2.2526,-2.408,-2.4998,-2.57,-2.641,-2.6971,-2.7121,-2.729,-2.744,-2.6782,-2.6672,-2.703,-2.5314,-2.4532,0.0,0.0,0.0,0.0,0.0,0.0,0.0,0.0,0.0,0.0,0.0,-2.8799,0.0,0.0,-2.5236,-2.4318,-2.2067,-1.9596,-1.7151,-1.4969,-1.2549,-0.9669,-0.8376,-0.6791,-0.4214,-0.3976,-0.377,-0.3449,-0.5291,-0.6928,-0.8205,-1.0617,-1.2421,-1.3241,-1.4194,-1.4367,-1.3753,-1.3665,-1.3244,-1.2305,-1.2305,-1.2305,-1.2305,-1.2305,-1.2305,-1.2305,-1.2305,-1.2599,-1.3025,-1.352,-1.3738,-1.381,-1.4799,-1.4871,-1.4386,-1.3882,-1.339,-1.3098,-1.3593,-1.4371,-1.5384,-1.6298,-1.756,-1.8596,-1.8144,-1.8259,-1.8596,-1.8144,-1.8008,-1.8066,-1.8262,-1.8477,-1.8679,-1.918,-1.9609,-1.998,-2.0195,-2.041,-2.0235,-1.9195,-1.806,-1.6927,-1.5861,-1.4557,-1.3332,-1.2334,-1.2531,-1.2701,-1.2305,-1.3084,-1.3822,-1.4222,-1.5446,-1.6269,-1.6338,-1.7949,-1.9706,-2.1545,-2.2909,-2.4358,-2.5826,-2.6292,-2.6811,-2.75,-2.7879,-2.8143,-2.8418,-2.8082,-2.8051,-2.8294,-2.7678,-2.7179,0.0,0.0,0.0,0.0,0.0,0.0,0.0,0.0,-2.9961,-2.9961,-2.9555,-2.9315,-2.961,-2.7837,-2.6334,-2.635,-2.3675,-2.0801,-1.8502,-1.5524,-1.2508,-0.9627,-0.7475,-0.5756,-0.4663,-0.3859,-0.398,-0.5333,-0.6746,-0.848,-1.0654,-1.2648,-1.4074,-1.468,-1.534,-1.5049,-1.3842,-1.371,-1.3244,-1.2305,-1.2305,-1.2305,-1.2305,-1.2305,-1.2305,-1.2305,-1.2305,-1.2305,-1.2378,-1.3098,-1.2952,-1.2378,-1.3098,-1.3462,-1.3462,-1.3462,-1.2952,-1.2305,-1.2512,-1.3738,-1.5226,-1.5438,-1.6645,-1.8008,-1.8008,-1.8008,-1.8008,-1.8008,-1.8008,-1.8105,-1.8535,-1.8711,-1.8965,-1.9727,-1.998,-2.0137,-2.0488,-2.0566,-2.0235,-1.9195,-1.806,-1.6911,-1.5868,-1.4892,-1.4145,-1.3518,-1.3297,-1.3436,-1.4129,-1.4426,-1.4925,-1.5896,-1.6817,-1.7366,-1.7366,-1.887,-2.0683,-2.2829,-2.3255,-2.4426,-2.6694,-2.6874,-2.713,-2.7758,-2.8354,-2.895,-2.9585,-2.9553,-2.975,-3.0098,-3.0065,-2.9496,-3.1471,-3.0462,0.0,-2.8757,-2.9086,-2.9564,0.0,0.0,-3.138,-3.138,-3.179,-3.1885,-3.121,-3.0366,-2.899,-2.6671,-2.5203,-2.31,-1.9656,-1.5871,-1.237,-0.9437,-0.7407,-0.5461,-0.3526,-0.4077,-0.5105,-0.6552,-0.9271,-1.1546,-1.3037,-1.4622,-1.5642,-1.5994,-1.5551,-1.4937,-1.4186,-1.3814,-1.3244,-1.2305,-1.2305,-1.2305,-1.2305,-1.2305,-1.2305,-1.2305,-1.2305,-1.2305,-1.2305,-1.2452,-1.2378,-1.2305,-1.2452,-1.2452,-1.2452,-1.2452,-1.2378,-1.2452,-1.3244,-1.4243,-1.5367,-1.614,-1.7148,-1.8008,-1.8008,-1.8008,-1.8008,-1.8008,-1.8008,-1.8105,-1.8535,-1.8926,-1.9336,-1.9805,-2.0215,-2.0508,-2.0547,-2.0566,-2.0235,-1.9195,-1.806,-1.6912,-1.5564,-1.5116,-1.4838,-1.4472,-1.4384,-1.4789,-1.593,-1.688,-1.7784,-1.8655,-1.9619,-2.0117,-2.0117,-2.1037,-2.2231,-2.3753,-2.4572,-2.5901,-2.8054,-2.8152,-2.8514,-2.918,-2.9271,-2.9585,-3.0225,-3.0018,-3.0898,-3.2697,-3.2486,-3.1295,-3.0934,0.0,0.0,0.0,-3.0522,-3.1243,-3.0846,-3.183,-3.274,-3.274,-3.2707,-3.2461,-3.2155,-3.1072,-3.005,0.0,-2.7717,-2.583,-2.3718,-2.0386,-1.6829,-1.3243,-1.0264,-0.7398,-0.447,-0.5154,-0.6627,-0.8734,-1.1272,-1.332,-1.4636,-1.5984,-1.628,-1.5561,-1.5327,-1.4713,-1.3488,-1.3285,-1.3009,-1.2559,-1.2385,-1.2305,-1.2305,-1.2305,-1.2305,-1.2305,-1.2305,-1.2305,-1.2305,-1.2305,-1.2586,-1.3098,-1.2512,-1.2659,-1.3025,-1.2512,-1.2305,-1.2378,-1.2732,-1.3882,-1.5226,-1.5649,-1.6784,-1.8008,-1.8008,-1.8008,-1.8008,-1.8008,-1.8184,-1.8418,-1.8594,-1.9141,-1.9687,-1.9883,-2.0254,-2.0566,-2.0566,-2.0566,-2.0235,-1.9195,-1.8638,-1.7929,-1.6653,-1.6221,-1.625,-1.7076,-1.6444,-1.6434,-1.7726,-1.8709,-1.9663,-2.0561,-2.0986,-2.126,-2.126,-2.238,-2.408,-2.626,-2.723,-2.8626,-3.0791,-3.0467,-3.0561,-3.1173,-3.1506,-3.1976,-3.2576,-3.2754,-3.3271,-3.4164,-3.4058,-3.3522,-3.1182,0.0,0.0,-3.1396,-3.2423,-3.3388,-3.2886,-3.3507,-3.4143,-3.3938,-3.3393,-3.2841,-3.2656,-3.1657,-3.1037,-3.1477,-3.0211,-2.8884,-2.7846,-2.4888,-2.1279,-1.7302,-1.3762,-1.0338,-0.6869,-0.6641,-0.7907,-1.0616,-1.2613,-1.4307,-1.5591,-1.6052,-1.5767,-1.4764,-1.4072,-1.3387,-1.2603,-1.2518,-1.2582,-1.2822,-1.2532,-1.2385,-1.2305,-1.2305,-1.2305,-1.2305,-1.2586,-1.2659,-1.2659,-1.2659,-1.3098,-1.3608,-1.2659,-1.2732,-1.3244,-1.2512,-1.2305,-1.2305,-1.2305,-1.3375,-1.4799,-1.5084,-1.6298,-1.7647,-1.794,-1.8008,-1.8008,-1.8008,-1.8223,-1.8516,-1.875,-1.9277,-1.9805,-2.0039,-2.0332,-2.0566,-2.0566,-2.0566,-2.0391,-1.959,-1.9104,-1.8522,-1.761,-1.7252,-1.7596,-1.8828,-1.8785,-1.8946,-1.9962,-2.1028,-2.1934,-2.2685,-2.2745,-2.278,-2.2968,-2.4183,-2.6038,-2.8651,-2.9599,-3.0866,-3.2756,-3.2512,-3.2537,-3.2981,-3.3468,-3.3947,-3.4396,-3.4836,-3.5221,-3.54,-3.5357,-3.539,0.0,0.0,-3.3483,-3.3585,-3.4695,-3.5722,-3.569,-3.5649,-3.5447,-3.478,-3.4078,-3.3391,-3.2734,-3.2482,-3.2437,-3.2347,-3.2434,-3.2108,-3.119,-2.8133,-2.4583,-2.0589,-1.7291,-1.4108,0.0,-0.8505,-0.8472,-1.1781,-1.3059,-1.4239,-1.5598,-1.4377,-1.3763,-1.4045,-1.1314,-1.055,-1.1934,-1.1676,-1.1981,-1.2822,-1.2808,-1.2585,-1.2305,-1.2305,-1.2305,-1.2378,-1.3244,-1.368,-1.368,-1.368,-1.3665,-1.3608,-1.2659,-1.2305,-1.2378,-1.2305,-1.2305,-1.2305,-1.2305,-1.2952,-1.3882,-1.4887,-1.586,-1.6784,-1.7716,-1.8008,-1.8008,-1.8008,-1.8027,-1.8223,-1.9062,-1.9297,-1.9512,-2.0352,-2.0547,-2.0566,-2.0566,-2.0566,-2.0566,-2.0566,-1.935,-1.8253,-1.795,-1.8096,-1.8429,-1.8923,-2.1144,-2.282,-2.2855,-2.4231,-2.5273,-2.5273,-2.5273,-2.5494,-2.6083,-2.6841,-2.8148,-3.0227,-3.1032,-3.2051,-3.3412,-3.3952,-3.4176,-3.4164,-3.4585,-3.4871,-3.4871,-3.5349,-3.5977,-3.6736,-3.6389,-3.6677,-3.3466,0.0,-3.5659,-3.6081,-3.6902,-3.7623,-3.7623,-3.7614,-3.7364,-3.6214,-3.5817,-3.5276,-3.4079,-3.4229,-3.4726,-3.5094,-3.5565,-3.5687,-3.5018,-3.3361,-3.0434,-2.5673,-2.1597,0.0,0.0,0.0,0.0,-1.3059,-1.4309,-1.4889,-1.4573,-1.4144,-1.2866,-1.0682,-1.0379,-1.0508,-1.1006,-1.1532,-1.227,-1.3333,-1.2933,-1.2585,-1.2305,-1.2305,-1.2659,-1.3244,-1.3535,-1.4099,-1.4673,-1.3954,-1.4099,-1.4601,-1.3593,-1.3244,-1.3244,-1.3244,-1.2806,-1.2305,-1.2305,-1.2879,-1.3882,-1.4871,-1.586,-1.6784,-1.7716,-1.8008,-1.8008,-1.8008,-1.8203,-1.8418,-1.8437,-1.9062,-1.9856,-2.0573,-2.0667,-2.0779,-2.1375,-2.1011,-2.0411,-1.9687,-1.9927,-1.9954,-1.9182,-1.9717,-2.0533,-2.1487,-2.3288,-2.4689,-2.5273,-2.6567,-2.7268,-2.6776,-2.7128,-2.76,-2.8293,-2.9012,-3.0297,-3.2401,-3.3529,-3.4485,-3.5411,-3.5965,-3.6186,-3.6169,-3.6649,-3.6608,-3.6106,-3.6635,-3.7004,-3.7259,-3.6575,-3.6707,-3.5304,-3.6596,-3.7923,-3.8649,-3.9258,-3.9608,-3.939,-3.9197,-3.8653,-3.7032,-3.671,-3.6324,-3.5194,-3.5484,-3.6347,-3.7694,-3.8455,-3.8635,-3.8066,-3.7091,-3.4301,-2.8544,-2.4232,-2.0464,0.0,0.0,0.0,-1.3817,-1.467,-1.4615,-1.3484,-1.2977,-1.1616,-0.8973,-0.9575,-1.0183,-1.0605,-1.1567,-1.2502,-1.348,-1.2986,-1.2585,-1.2305,-1.2305,-1.2659,-1.3244,-1.352,-1.4099,-1.4673,-1.4386,-1.4601,-1.5171,-1.453,-1.4243,-1.4171,-1.381,-1.352,-1.3302,-1.2952,-1.3171,-1.3882,-1.5226,-1.607,-1.6784,-1.7716,-1.8008,-1.8008,-1.8008,-1.8203,-1.8379,-1.8262,-1.9041,-2.005,-2.0573,-2.0626,-2.0872,-2.2041,-2.1383,-2.0611,-2.0584,-2.1104,-2.1458,-2.0946,-2.1866,-2.3021,-2.4084,-2.5465,-2.6509,-2.6753,-2.7799,-2.8449,-2.8341,-2.8683,-2.9393,-3.053,-3.1245,-3.2451,-3.4355,-3.5488,-3.6229,-3.6701,-3.7173,-3.729,-3.7041,-3.7496,-3.7394,-3.6717,-3.7059,-3.7258,-3.733,-3.674,-3.6722,-3.8676,-3.9623,-4.0384,-4.107,-4.1511,-4.1682,-4.1105,-4.0366,-3.9221,-3.7286,-3.683,-3.6642,0.0,0.0,-3.7581,-3.9916,-4.0833,-4.0998,-4.016,-3.9141,-3.5908,0.0,0.0,0.0,0.0,0.0,0.0,-1.3997,0.0,-1.3464,-1.2237,-1.1123,-1.0009,-0.8798,-0.8894,-0.941,-1.0605,-1.1809,-1.2671,-1.3227,-1.2919,-1.2612,-1.2318,-1.2305,-1.2378,-1.2512,-1.339,-1.381,-1.3954,-1.4887,-1.5296,-1.5296,-1.5296,-1.5226,-1.5084,-1.4171,-1.4458,-1.5084,-1.4171,-1.381,-1.4099,-1.6,-1.6627,-1.6784,-1.7716,-1.8008,-1.8008,-1.8008,-1.8008,-1.8174,-1.8566,-1.9292,-2.0086,-2.0597,-2.0744,-2.1176,-2.2462,-2.1794,-2.1396,-2.3251,-2.3028,-2.2686,-2.3317,-2.4562,-2.5713,-2.6553,-2.784,-2.8398,-2.756,-2.8192,-2.9042,-3.0028,-3.0195,-3.0986,-3.2815,-3.3619,-3.4609,-3.5969,-3.6785,-3.721,-3.721,-3.7685,-3.7566,-3.6775,-3.7259,-3.721,-3.6633,-3.6633,-3.6782,-3.7099,-3.6758,-3.6708,-3.9767,-4.089,-4.1967,-4.1716,-4.1724,-4.1768,-4.1639,-4.0631,-3.9462,-3.836,-3.812,-3.8091,0.0,0.0,0.0,-4.1493,-4.1699,0.0,-3.9871,-3.7655,0.0,-2.8024,0.0,-2.0472,-1.6262,-1.4783,0.0,0.0,-1.276,-1.2248,-1.1123,-0.9923,-0.8798,-0.7577,-0.8456,-0.941,-1.0605,-1.2601,-1.3548,-1.3534,-1.324,-1.2933,-1.2625,-1.2398,-1.3098,-1.4442,-1.4728,-1.5596,-1.6872,-1.6437,-1.621,-1.621,-1.621,-1.579,-1.5226,-1.572,-1.5579,-1.5226,-1.572,-1.5367,-1.5013,-1.621,-1.6627,-1.6784,-1.7716,-1.8008,-1.8008,-1.8008,-1.8462,-1.8998,-1.9122,-1.9977,-2.1063,-2.1953,-2.2682,-2.3306,-2.3746,-2.4255,-2.463,-2.4472,-2.5086,-2.5725,-2.6222,-2.7456,-2.8568,-2.9175,-3.0466,-3.0615,-2.8477,-2.9996,-3.1358,-3.1604,-3.2869,-3.4053,-3.5116,-3.5363,-3.5858,-3.6819,-3.7435,-3.772,-3.772,-3.8234,-3.8131,-3.7326,-3.7448,-3.6943,-3.5839,-3.5839,-3.6269,-3.7068,-3.6208,-3.677,-4.0036,-4.0389,-4.0797,-4.0488,-4.0274,-4.0422,-4.1209,-4.0557,-3.9594,-3.9266,-3.909,0.0,0.0,0.0,0.0,0.0,0.0,0.0,-3.9849,-3.7171,-3.3114,0.0,-2.3398,0.0,-1.5544,-1.4674,-1.4086,0.0,-1.2745,-1.1552,-0.9923,-0.9235,-0.8368,-0.7143,-0.8798,-1.0443,-1.2089,-1.3476,-1.3935,-1.3641,-1.3347,-1.3274,-1.3402,-1.3093,-1.3738,-1.5226,0.0,-1.5807,-1.6802,-1.6645,-1.6627,-1.6627,-1.706,-1.6872,-1.6437,-1.6576,-1.6507,-1.6437,-1.6576,-1.6507,-1.6507,-1.7079,-1.7217,-1.7285,-1.7872,-1.8279,-1.8596,-1.8596,-1.9177,-1.9879,-1.9879,-2.1164,-2.2567,-2.3164,-2.4112,-2.5149,-2.583,-2.6025,-2.6233,-2.6754,-2.7598,-2.845,-2.9089,-3.0104,-3.0861,-3.1102,-3.2393,-3.2821,-3.1324,-3.2354,-3.3382,-3.3882,-3.4911,-3.5939,-3.6749,-3.6821,-3.7123,-3.7789,-3.8135,-3.8267,-3.8267,-3.8676,-3.8514,-3.7664,-3.7829,-3.7418,-3.6427,-3.6427,-3.678,-3.7471,-3.7325,-3.7978,-3.9261,-3.8531,-3.7986,-3.802,-3.7959,-3.836,-4.0318,-4.0038,-3.9462,-3.9959,0.0,-3.9498,-3.9668,0.0,-4.096,-4.1757,0.0,-4.2007,-3.9632,-3.6707,-3.2448,-2.6155,-2.2569,-1.9039,-1.4966,-1.4513,-1.4333,-1.4242,-1.2997,-1.1207,-0.9104,-0.8744,-0.8288,-0.7577,-0.9653,-1.1906,-1.4082,-1.4082,-1.4032,-1.3858,-1.3641,-1.3889,-1.4577,-1.4197,-1.4552,-1.5518,-1.5468,0.0,-1.5589,-1.658,-1.686,-1.6878,-1.782,-1.8144,-1.7949,-1.7153,-1.7323,-1.7872,-1.706,-1.7285,-1.8008,-1.8008,-1.8008,-1.8008,-1.8144,-1.8731,-1.9396,-1.9505,-2.0292,-2.1065,-2.1133,-2.2809,-2.4458,-2.4458,-2.5546,-2.6897,-2.8047,-2.7621,-2.7533,-2.972,-3.0525,-3.1059,-3.1919,-3.2562,-3.299,-3.3076,-3.4189,-3.5101,-3.5166,-3.5029,-3.5286,-3.6205,-3.6682,-3.7231,-3.804,-3.8063,-3.8238,-3.8707,-3.8719,-3.8719,-3.875,-3.899,-3.8734,-3.7965,-3.8258,-3.813,-3.76,-3.76,-3.7857,-3.8339,-3.9119,-3.9684,-3.6021,-3.5221,-3.494,-3.5095,-3.5918,-3.7313,-3.9643,-3.8985,0.0,0.0,0.0,-3.8849,-3.9534,-3.98,0.0,-4.1055,0.0,0.0,0.0,0.0,-2.9924,0.0,0.0,0.0,0.0,0.0,0.0,0.0,0.0,-1.091,-0.949,-0.8169,-0.8182,-0.9923,-1.1295,-1.2687,-1.4082,-1.4082,-1.4545,-1.5374,-1.505,-1.5495,-1.6403,-1.5749,-1.615,-1.7403,-1.7008,0.0,-1.7347,-1.8392,-1.8319,-1.7642,-1.8682,-1.8848,-1.8465,-1.8305,-1.8162,-1.8008,-1.7784,-1.7872,-1.8008,-1.8008,-1.8008,-1.8144,-1.8844,-1.9351,-1.9854,-2.0776,-2.2168,-2.353,-2.3977,-2.5406,-2.6722,-2.6722,-2.7785,-2.8854,-2.9,-3.0184,-3.1674,-3.3176,-3.3551,-3.3826,-3.4409,-3.527,-3.603,-3.6471,-3.7411,-3.8201,-3.8665,-3.7813,-3.7198,-3.7378,-3.8426,-3.9133,-3.9284,-3.9076,-3.8904,-3.9036,-3.8833,-3.8803,-3.9008,-3.909,-3.8864,-3.8305,-3.8373,-3.813,-3.76,-3.76,-3.8431,-4.0046,-3.9671,-4.0626,-3.3718,-3.2208,-3.1689,-3.1916,-3.4283,-3.6801,-3.8059,0.0,0.0,0.0,0.0,-3.8532,-3.8956,0.0,0.0,0.0,0.0,0.0,0.0,0.0,0.0,0.0,0.0,0.0,0.0,0.0,0.0,0.0,0.0,-1.091,-0.9362,-0.8658,-0.934,-1.1381,-1.1884,-1.299,-1.4894,-1.4894,-1.5462,-1.6519,-1.6237,-1.6616,-1.7631,-1.7133,-1.7512,-1.8599,-1.8392,0.0,-1.8599,-1.9058,-1.8985,-1.8599,-1.9131,-1.9023,-1.8601,-1.8887,-1.8574,-1.8047,-1.8262,-1.8203,-1.8008,-1.8008,-1.8008,-1.8056,-1.8502,-1.9505,-2.0864,-2.2415,-2.3929,-2.5266,-2.5959,-2.7226,-2.851,-2.8886,-3.0503,-3.1924,-3.1862,-3.2857,-3.4053,-3.5049,-3.5377,-3.569,-3.6326,-3.7147,-3.789,-3.8182,-3.8951,-3.9618,-3.9867,-3.9558,-3.9216,-3.8968,-3.9619,-4.0004,-3.9861,-3.9731,-3.9462,-3.9107,-3.9144,-3.9144,-3.908,-3.9438,-3.952,-3.9292,-3.9433,-3.9373,-3.9112,-3.9572,-4.0257,-4.1184,-4.138,-4.1933,-3.0568,-2.8602,-2.8017,-2.8275,-3.2676,-3.6985,-3.7414,-3.8111,0.0,0.0,-3.939,-3.8392,-3.8392,0.0,-3.9841,0.0,0.0,0.0,0.0,0.0,0.0,0.0,0.0,0.0,0.0,0.0,0.0,0.0,0.0,0.0,-0.9668,-0.9735,-1.0373,-1.1861,-1.2213,-1.3412,-1.5794,-1.6087,-1.6664,-1.7334,-1.7355,-1.777,-1.847,-1.8394,-1.8788,-1.9551,-1.9453,0.0,0.0,-1.9477,-1.9403,-1.9254,-1.9477,-1.9297,-1.8945,-1.9297,-1.8887,-1.8184,-1.8725,-1.8498,-1.8076,-1.8462,-1.8542,-1.8602,-1.8696,-2.0512,-2.2924,-2.4356,-2.5748,-2.7039,-2.79,-2.9117,-3.033,-3.1128,-3.3076,-3.4672,-3.4672,-3.5193,-3.5842,-3.647,-3.686,-3.7252,-3.7944,-3.8645,-3.9149,-3.9258,-3.9898,-4.0345,-4.0345,-4.0581,-4.063,-4.0283,-4.0406,-4.0444,-4.0214,-4.012,-3.9861,-3.9339,-3.9486,-3.951,-3.9314,-3.9629,-3.9948,-4.0157,-4.0236,-4.0431,-4.0777,-4.147,-4.197,-4.2338,-4.2845,-4.28,-2.5026,-2.365,-2.3651,-2.3735,-3.0802,-3.8138,-3.9396,0.0,0.0,-3.9606,-3.9086,-3.8392,-3.8392,0.0,0.0,0.0,0.0,-3.7689,0.0,0.0,0.0,0.0,0.0,0.0,0.0,0.0,0.0,0.0,0.0,0.0,-1.1333,-1.0814,-1.058,-1.075,-1.2808,-1.4587,-1.6102,-1.7466,-1.7861,-1.7334,-1.8346,-1.8824,-1.8964,-1.9507,-2.0002,-2.043,-2.0019,0.0,0.0,-2.0042,-1.9887,-1.9085,-2.012,-2.0176,-1.9805,-1.9844,-1.9316,-1.8644,-1.9499,-1.9028,-1.8259,-1.9814,-2.0467,-2.0633,-2.0997,-2.3644,-2.6489,-2.6643,-2.7831,-2.9377,-3.06,-3.1637,-3.2578,-3.368,-3.497,-3.5904,-3.5904,-3.6667,-3.7536,-3.8109,-3.8398,-3.8813,-3.9496,-3.9859,-4.0138,-4.0259,-4.0523,-4.0731,-4.0731,-4.0784,-4.0752,-4.0665,-4.0679,-4.0623,-4.0492,-4.0251,-4.0062,-4.0002,-3.9754,-3.9731,-4.0002,-3.9318,-3.9411,-4.0438,-3.9777,-4.0162,-4.17,-4.1777,-4.2585,-4.403,-4.2791,-4.2561,-2.4935,-2.5024,-2.7675,-3.0007,-3.6304,-4.182,-4.131,0.0,0.0,-3.9673,-3.8943,-3.8392,-3.8392,-3.8721,-3.8871,-3.8452,-3.8751,0.0,-3.546,0.0,0.0,0.0,0.0,0.0,0.0,0.0,0.0,0.0,0.0,0.0,-1.3572,-1.3016,-1.2723,-1.2723,-1.3613,-1.4393,-1.4953,-1.6831,-1.829,-1.9316,-1.8426,-1.868,-1.9953,-2.0217,-2.0391,-2.0547,-2.0391,0.0,0.0,-2.0411,-2.0333,-2.0001,-2.0411,-2.0505,-2.0341,-2.0311,-1.9766,-1.9167,-2.005,-1.9483,-1.8656,-2.0511,-2.133,-2.1936,-2.3289,-2.4886,-2.6673,-2.8993,-2.9803,-3.0279,-3.1728,-3.3192,-3.4412,-3.4864,-3.6098,-3.718,-3.718,-3.7881,-3.8589,-3.8897,-3.932,-3.9769,-4.0113,-4.0331,-4.0516,-4.0645,-4.0694,-4.0756,-4.0795,-4.0858,-4.0886,-4.0752,-4.0256,-4.0062,-4.0485,-3.9967,-3.975,-4.0081,-4.0139,-3.991,-3.9338,-3.9179,-3.9193,-3.9465,-3.9369,-4.0021,-4.1494,-4.1991,-4.2604,-4.3254,-4.2775,-4.2163,-2.6656,-2.8251,-3.2353,-3.5937,-4.0102,-4.3317,0.0,0.0,0.0,-4.0238,-3.965,-3.9566,-3.978,-3.996,-3.993,-3.9516,-3.9414,-3.8488,-3.5746,0.0,0.0,0.0,0.0,0.0,0.0,0.0,0.0,0.0,0.0,0.0,0.0,-1.4304,-1.4126,-1.4082,-1.4088,-1.4735,-1.599,-1.7489,-1.9054,-2.0582,-1.8362,-1.8092,-1.9641,-2.0274,-2.0566,-2.0566,-2.0566,0.0,0.0,-2.0623,-2.0566,-2.0624,-2.0623,-2.0582,-2.0559,-2.0643,-2.0098,-1.962,-2.0452,-1.9778,-1.8964,-2.1041,-2.2113,-2.2971,-2.5211,-2.6248,-2.7232,-3.0303,-3.119,-3.1562,-3.2864,-3.4556,-3.595,-3.6015,-3.7183,-3.8287,-3.8376,-3.8943,-3.9476,-3.9537,-4.0003,-4.044,-4.0535,-4.0674,-4.0779,-4.0855,-4.0803,-4.0764,-4.0842,-4.0925,-4.0868,-4.0493,-3.9885,-3.9637,-4.0115,-3.9869,-3.9714,-3.985,-4.0044,-3.9791,-3.8971,-3.87,-3.8661,-3.8915,-3.9057,-3.998,-4.1645,-4.2379,-4.2889,-4.3156,-4.2693,-4.1547,-2.9712,-3.2532,-3.6158,-3.9247,-4.01,-4.1326,0.0,0.0,0.0,-4.1241,-4.1565,-4.2238,-4.2943,-4.2338,-4.1783,-4.1752,-4.0416,-3.8488,-3.5746,0.0,0.0,0.0,0.0,0.0,0.0,0.0,0.0,0.0,0.0,0.0,0.0,-1.4076,-1.4074,-1.4082,-1.4088,-1.6175,-2.0504,-2.0537,-2.0582,-2.0582,-1.8362,-1.731,-1.7434,-1.9575,-2.0566,0.0,0.0,0.0,0.0,-2.0635,-2.0619,-2.0605,-2.0635,-2.0619,-2.0644,-2.0566,-2.0293,-2.0053,-2.0905,-2.0042,-1.9034,-2.1638,-2.2924,-2.3953,-2.6472,-2.8069,-2.9192,-3.0086,-3.187,-3.3719,-3.4366,-3.5891,-3.725,-3.7503,-3.8358,-3.916,-3.951,-3.9889,-4.0169,-4.0169,-4.0524,-4.0859,-4.0969,-4.0896,-4.0828,-4.0963,-4.0885,-4.0847,-4.0962,-4.0994,-4.0652,-3.9785,-3.9638,-3.9558,-3.9441,-4.0077,-4.0162,-3.9354,-3.9315,-3.9315,-3.9315,-3.7661,-3.7546,-3.9277,-3.8915,-3.9966,-4.2502,-4.3047,-4.3731,-4.4523,-4.2548,-4.0585,-3.019,-3.2545,-3.5771,-3.669,-4.0091,-4.4065,-4.7495,0.0,0.0,-4.214,-4.1566,-4.1949,-4.3557,-4.3645,-4.2711,-4.0554,-3.8937,-3.7177,0.0,0.0,0.0,0.0,0.0,0.0,0.0,0.0,0.0,0.0,0.0,0.0,0.0,-1.5755,-1.4131,-1.4082,-1.4062,-1.6149,-2.0523,-2.0622,-2.0605,-2.0582,-1.9885,-1.9575,-1.9561,-2.0274,-2.0566,0.0,0.0,0.0,0.0,-2.2012,-2.1783,-2.0722,-2.1562,-2.1151,-2.0041,-2.0449,-2.0273,-1.9883,-2.0925,-2.0751,-2.0083,-2.0928,-2.2441,-2.4573,-2.803,-2.9412,-3.0179,-3.1477,-3.2703,-3.382,-3.4872,-3.6153,-3.7361,-3.798,-3.8641,-3.9186,-3.951,-3.9927,-4.0213,-4.0304,-4.0646,-4.0965,-4.0984,-4.09,-4.0789,-4.0791,-4.0215,-3.9854,-4.0008,-3.952,-3.911,-3.8975,-3.933,-3.9316,-3.859,-3.8661,-3.8661,-3.843,-3.8392,-3.8392,-3.8392,-3.843,-3.8908,-3.9812,-4.0253,-4.133,-4.3071,-4.2994,-4.2723,-4.2187,-4.0991,-3.9804,-3.3845,-3.5196,-3.6977,-3.694,-4.0836,0.0,0.0,0.0,-4.5016,-4.3328,-4.2696,-4.2863,-4.4118,-4.4789,-4.4161,-4.1127,-3.9158,-3.7471,0.0,0.0,0.0,0.0,0.0,0.0,0.0,0.0,0.0,0.0,0.0,0.0,0.0,-1.6492,-1.4116,-1.4061,-1.4144,-1.6236,-2.0552,-2.0585,-2.0644,-2.0624,-2.0625,-2.0644,-2.0624,-2.0625,-2.0566,0.0,0.0,0.0,0.0,-2.252,-2.1962,-2.1339,-2.1618,-2.1075,-2.008,-2.0449,-2.0371,-2.0117,-2.0846,-2.0864,-2.0566,-2.0232,-2.2474,-2.5992,-2.9387,-3.0778,-3.142,-3.2648,-3.3617,-3.4493,-3.5508,-3.6685,-3.7819,-3.8382,-3.9021,-3.9595,-3.9941,-4.0234,-4.048,-4.0608,-4.0861,-4.1046,-4.1003,-4.0642,-4.0316,-4.0284,-3.9469,-3.8916,-3.9131,-3.8942,-3.8774,-3.8631,-3.9511,-3.9588,-3.8277,-3.8954,-3.9161,-3.8546,-3.8777,-3.8815,-3.8507,-3.9008,-3.9599,-4.023,-4.1106,-4.2124,-4.3278,-4.2835,-4.2073,-4.1075,-4.0267,-3.946,0.0,-3.9415,-3.9477,-3.972,-4.2032,-4.4303,-4.4272,-4.4266,0.0,-4.4593,-4.4587,-4.463,-4.463,-4.5735,-4.5701,-4.2845,-4.067,0.0,0.0,-3.425,0.0,0.0,0.0,0.0,0.0,0.0,0.0,0.0,0.0,0.0,0.0,-1.6763,-1.4591,-1.4536,-1.4525,-1.6476,-2.0582,-2.0605,-2.0566,-2.0566,-2.0566,-2.0566,-2.0566,-2.0566,-2.0624,0.0,0.0,0.0,0.0,-2.2444,-2.1586,-2.2294,-2.1206,-2.0715,-2.0605,-2.0624,-2.0527,-2.0449,-2.0556,-2.0515,-2.0319,-1.9729,-2.3242,-2.8074,-3.0689,-3.2048,-3.2765,-3.3495,-3.446,-3.5596,-3.6347,-3.747,-3.8479,-3.8792,-3.9513,-4.0215,-4.063,-4.0754,-4.0847,-4.0945,-4.1039,-4.1051,-4.0924,-4.0115,-3.9538,-3.9569,-3.8738,-3.82,-3.8462,-3.9131,-3.9336,-3.8668,-3.9989,-4.0199,-3.8537,-4.0377,-4.0931,-3.9315,-3.9892,-4.0008,-3.93,-3.9339,-3.9746,-4.0575,-4.1623,-4.2498,-4.3213,-4.26,-4.1882,-4.1001,-4.0267,-3.946,-3.942,0.0,-4.0025,-4.272,-4.2261,-4.1139,0.0,-4.1137,-4.1836,-4.4121,-4.4613,-4.4618,-4.4618,-4.4908,-4.4023,-4.072,-3.9738,-3.8735,-3.6716,0.0,0.0,0.0,0.0,0.0,0.0,0.0,0.0,0.0,0.0,0.0,0.0,-1.965,-1.9067,-1.9047,-1.9085,-1.9552,-2.0601,-2.0605,-2.0566,-2.0566,-2.0566,-2.0566,-2.0566,-2.0566,-2.0604,0.0,0.0,0.0,-2.2134,-2.4228,-2.3536,-2.1128,-2.2379,-2.1886,-2.0615,-2.0623,-1.9736,-1.8768,-2.0151,-1.9752,-1.8993,-2.1399,-2.595,-3.0628,-3.1317,-3.2112,-3.2989,-3.3924,-3.4725,-3.5754,-3.7469,-3.8177,-3.8633,-3.9573,-3.9979,-4.0272,-4.0614,-4.0831,-4.0926,-4.0866,-4.0426,-4.0006,-3.9798,-3.9138,-3.8792,-3.9369,-3.876,-3.8546,-3.9292,-3.8999,-3.8683,-3.859,-3.945,-3.9802,-3.9344,-3.9727,-3.9492,-3.8392,-3.8469,-3.87,-3.8897,-3.9546,-4.0481,-4.1715,-4.2919,-4.3185,-4.2543,-4.2386,-4.1552,-4.0194,-3.9974,-3.946,-4.1811,-4.1749,-4.1878,-4.2385,-4.1332,-4.0093,-4.0104,-4.0083,-4.0567,-4.2192,-4.2557,-4.2925,-4.4359,-4.4591,-4.3539,0.0,-3.792,0.0,0.0,0.0,0.0,0.0,0.0,0.0,0.0,0.0,0.0,0.0,0.0,0.0,0.0,-2.0566,-2.0641,-2.0605,-2.0564,-2.0643,-2.0585,-2.0625,-2.0566,-2.0566,-2.0566,-2.0566,-2.0644,-2.0584,-2.0579,0.0,0.0,0.0,-2.0805,-2.2905,-2.3069,-2.1942,-2.2122,-2.1569,-2.0591,-2.0604,-1.9965,-1.9329,-2.0232,-2.0502,-2.0819,-2.3729,-2.7765,-3.1605,-3.2302,-3.2935,-3.3698,-3.4523,-3.5566,-3.6738,-3.8077,-3.8776,-3.9314,-3.9996,-4.0311,-4.0516,-4.08,-4.06,-4.0378,-4.032,-3.9691,-3.9114,-3.8907,-3.8575,-3.8498,-3.8892,-3.8595,-3.8559,-3.9138,-3.9132,-3.9103,-3.9078,-3.9831,-4.0252,-4.0106,-4.0048,-3.9738,-3.9161,-3.9508,-3.9692,-3.9559,-4.0401,-4.1434,-4.2636,-4.3194,-4.307,-4.2286,-4.1552,-4.0744,-3.99,-3.99,-3.968,-4.4597,-4.4248,-4.3289,-4.0735,-4.0093,-4.0104,-4.0096,-4.0728,-4.1238,-4.0898,-4.0755,-4.1566,-4.4147,-4.4616,0.0,0.0,0.0,0.0,0.0,0.0,0.0,0.0,0.0,0.0,0.0,0.0,0.0,0.0,0.0,0.0,0.0,-2.0576,-2.0507,-2.0222,-2.0187,-2.0365,-2.0564,-2.0605,-2.0605,-2.0584,-2.0623,-2.0604,-2.0582,-2.0611,-2.0927,-2.1723,0.0,0.0,-2.0594,-2.0581,-2.1574,-2.2886,-2.1247,-2.0591,-2.0572,-2.0312,-2.0361,-2.0544,-2.0267,-2.1484,-2.3564,-2.639,-2.9197,-3.1745,-3.2936,-3.3942,-3.4874,-3.5542,-3.6626,-3.7739,-3.8389,-3.9339,-4.0158,-4.0233,-4.0509,-4.0791,-4.0962,-4.0328,-3.9707,-3.9699,-3.8992,-3.8377,-3.8309,-3.8246,-3.8281,-3.8569,-3.8633,-3.8732,-3.8982,-3.9605,-4.0031,-3.9914,-4.0562,-4.0908,-4.0716,-4.0716,-4.0639,-4.0508,-4.12,-4.1245,-4.0411,-4.1144,-4.1947,-4.2784,-4.2632,-4.2341,-4.1919,-4.0561,-3.99,-3.99,-3.99,-3.9974,-4.463,-4.2774,-4.0657,-4.0206,-4.0089,-4.0112,-4.0123,-4.3687,-4.6469,-4.4343,-4.3888,-4.4087,-4.4536,-4.4586,-4.2766,0.0,0.0,0.0,0.0,0.0,0.0,0.0,0.0,0.0,0.0,0.0,0.0,0.0,0.0,0.0,0.0,-2.0609,-1.9879,-1.8432,-1.8378,-1.9088,-2.0581,-2.0599,-2.0599,-2.0581,-2.0567,-2.0575,-2.0617,-2.0585,-2.2446,-2.5627,0.0,-2.4272,-2.0594,-2.0596,-2.0817,-2.0994,-2.076,-2.0639,-2.0436,-1.8901,-1.9312,-2.0421,-1.8932,-2.0446,-2.3966,-2.9072,-3.1072,-3.1558,-3.1756,-3.4137,-3.6884,-3.7498,-3.7647,-3.7871,-3.91,-3.9775,-4.0177,-4.0526,-4.0732,-4.0829,-4.0983,-4.0399,-3.9838,-3.972,-3.8469,-3.7578,-3.819,-3.7793,-3.7872,-3.9287,-3.959,-3.9955,-4.0703,-4.0828,-4.0808,-4.0808,-4.0831,-4.0793,-4.0716,-4.0716,-4.0639,-4.0508,-4.0623,-4.0419,-3.9738,-4.0252,-4.0486,-4.0413,-4.102,-4.0993,-4.0267,-4.001,-3.99,-3.99,-3.99,-4.0267,-3.9693,-3.8649,-3.8025,-3.9665,-4.103,-4.1915,-4.1931,-4.3898,-4.5488,-4.476,-4.3332,-4.2158,-4.2158,0.0,-4.1945,-3.3747,0.0,0.0,0.0,0.0,0.0,0.0,0.0,0.0,0.0,0.0,0.0,0.0,0.0,0.0,0.0,0.0,-1.8835,-1.7999,-1.7987,-1.8841,-2.0618,-1.9639,-1.9668,-2.0565,-1.9679,-1.919,-1.9246,-2.1081,-2.1953,-2.1923,0.0,-2.1397,-2.0573,-2.0616,-2.0635,-2.0605,-2.0576,-2.0561,-2.0414,-1.8658,-1.8518,-1.9344,-2.0424,-2.1792,-2.4039,-2.9696,-3.1471,-3.1763,-3.3246,-3.4438,-3.5685,-3.7644,-3.8235,-3.8477,-3.9588,-4.0101,-4.0394,-4.0684,-4.0792,-4.0743,-4.0454,-3.9774,-3.9023,-3.8476,-3.7741,-3.735,-3.7665,-3.8244,-3.8916,-3.9701,-4.0255,-4.0732,-4.1062,-4.1042,-4.0947,-4.0831,-4.0793,-4.0716,-4.06,-4.06,-4.0562,-4.0508,-4.0508,-4.03,-3.9882,-4.0753,-4.0877,-4.0126,-4.0767,-4.0708,-3.99,-3.99,-3.99,-3.99,-4.0781,-4.1405,-3.5519,-3.5519,-3.6258,-3.9328,-4.1821,-4.3501,-4.3494,-4.4068,-4.4592,-4.4378,-4.2486,-4.0968,-4.1138,-4.1881,0.0,-2.9755,0.0,0.0,0.0,0.0,0.0,0.0,0.0,0.0,0.0,0.0,0.0,0.0,0.0,0.0,0.0,0.0,-1.8031,-1.8031,-1.8037,-1.8636,-1.9986,-1.866,-1.8697,-1.9961,-1.8625,-1.8003,-1.8105,-2.0681,-2.0491,-1.7973,-1.7967,-1.8776,-2.005,-2.043,-2.0575,-2.0599,-2.0609,-2.0325,-1.9825,-1.8468,-1.7988,-1.8516,-2.1902,-2.3563,-2.4992,-2.9894,-3.1481,-3.2123,-3.5313,-3.5351,-3.4806,-3.7499,-3.8322,-3.8627,-3.9543,-3.9844,-3.9969,-4.0162,-4.02,-4.0085,-3.9684,-3.9062,-3.8398,-3.7656,-3.7578,-3.7641,-3.7802,-3.8965,-3.9959,-4.0129,-4.0746,-4.1117,-4.0991,-4.093,-4.087,-4.0716,-4.087,-4.0877,-4.0713,-4.0432,-4.036,-4.0534,-4.0488,-4.0304,-4.0002,-4.1038,-4.1087,-3.9946,-4.0719,-4.0708,-3.99,-4.0084,-4.0267,-4.0487,-4.1735,-4.2328,-3.5522,-3.5537,-3.6213,-3.9311,-4.1775,-4.3519,-4.3476,-4.583,-4.7106,-4.4185,-4.3419,-4.3473,0.0,-3.9813,-3.3409,0.0,0.0,0.0,0.0,0.0,0.0,0.0,0.0,0.0,0.0,0.0,0.0,0.0,0.0,0.0,0.0,0.0,0.0,-1.7979,-1.7992,-1.8081,-1.8203,-1.8081,-1.805,-1.8193,-1.805,-1.8035,-1.8002,-1.8279,-1.824,-1.7982,-1.7985,-1.8094,-1.835,-1.9917,-2.0606,-2.0594,-2.0589,-1.962,-1.8165,-1.805,-1.7986,-1.8487,-2.1925,-2.4925,-2.7741,-3.0607,-3.1502,-3.2406,-3.7092,-3.7391,-3.6417,-3.7803,-3.7716,-3.7473,-3.8594,-3.8525,-3.8223,-3.8424,-3.8462,-3.852,-3.8668,-3.8633,-3.8594,-3.8516,-3.8516,-3.875,-3.9568,-3.9804,-4.0129,-4.0823,-4.0959,-4.0978,-4.0809,-4.0771,-4.0716,-4.0716,-4.1316,-4.1579,-4.1284,-4.0257,-3.9966,-4.0736,-4.038,-3.9982,-3.9664,-4.015,-3.9917,-3.886,-4.0304,-4.0708,-3.99,-4.0671,-4.1405,-4.2139,-4.2249,-4.2411,-3.5492,-3.6911,-3.8176,-3.7485,-3.7936,-3.8944,-4.0242,-4.4558,-4.7387,-4.4144,-4.2369,-4.2034,0.0,0.0,-2.9995,0.0,0.0,0.0,0.0,0.0,0.0,0.0,0.0,0.0,0.0,0.0,0.0,0.0,0.0,0.0,0.0,0.0,0.0,-1.8008,-1.7988,-1.7988,-1.8008,-1.7988,-1.7988,-1.8008,-1.7988,-1.7998,-1.8006,-1.7969,-1.8008,-1.7959,-1.7985,-1.7972,-1.8059,-1.8735,-1.8985,-1.8751,-1.636,-1.5025,-1.4763,-1.7139,-1.8034,-1.8511,-2.1909,-2.5063,-2.7996,-3.0514,-3.2289,-3.3974,-3.6437,-3.6787,-3.6453,-3.7044,-3.6468,-3.6134,-3.7861,-3.8139,-3.8046,-3.8262,-3.828,-3.8364,-3.8551,-3.8594,-3.8594,-3.8594,-3.899,-3.9403,-3.9714,-4.0142,-4.0565,-4.0829,-4.0861,-4.0853,-4.0746,-4.0728,-4.0806,-4.1073,-4.1587,-4.1873,-4.1722,-4.134,-4.1229,-4.1531,-4.0896,-4.0637,-4.0836,-4.1493,-4.1334,-4.0194,-4.1295,-4.1442,-4.0671,-4.1442,-4.1992,-4.2323,-4.2449,-4.263,-3.6689,-3.8476,-3.9842,-3.8705,-3.7733,-3.7853,-4.102,-4.5114,-4.7679,-4.5475,-4.2377,-4.0421,-4.1533,0.0,0.0,0.0,0.0,0.0,0.0,0.0,0.0,0.0,0.0,0.0,0.0,0.0,0.0,0.0,0.0,0.0,0.0,0.0,0.0,0.0,-1.8008,-1.8008,-1.8008,-1.8008,-1.8008,-1.8008,-1.7998,-1.8018,-1.8018,-1.8027,-1.7985,-1.7922,-1.6754,-1.6192,-1.6199,-1.6168,-1.6195,-1.5931,-1.3345,-1.2298,-1.2767,-1.6558,-1.9302,-2.1353,-2.3722,-2.613,-2.8454,-3.0099,-3.2158,-3.4218,-3.5413,-3.5648,-3.5622,-3.6204,-3.5803,-3.5587,-3.7226,-3.743,-3.7353,-3.7791,-3.7924,-3.8066,-3.851,-3.8828,-3.8982,-3.8974,-3.9585,-4.0123,-4.0046,-4.0395,-4.0655,-4.0602,-4.0531,-4.0558,-4.071,-4.071,-4.1017,-4.1841,-4.192,-4.198,-4.2243,-4.1911,-4.1791,-4.2053,-4.1594,-4.1445,-4.1744,-4.2344,-4.2205,-4.1267,-4.2169,-4.2286,-4.1479,-4.2286,-4.269,-4.269,-4.2703,-4.2616,-3.9312,-4.0221,-4.0909,-4.3831,-4.2361,-4.1609,-4.7095,-4.8319,-4.831,-4.8254,-4.3852,-3.9089,-3.5974,-2.8625,0.0,0.0,0.0,0.0,0.0,0.0,0.0,0.0,0.0,0.0,0.0,0.0,0.0,0.0,0.0,0.0,0.0,0.0,0.0,0.0,-1.8008,-1.8008,-1.8008,-1.8008,-1.8008,-1.8027,-1.7977,-1.7985,-1.7916,-1.7986,-1.792,-1.7741,-1.397,-1.2317,-1.2317,-1.2317,-1.2329,-1.2322,-1.2322,-1.2298,-1.277,-1.6576,-2.2039,-2.7598,-2.7591,-2.837,-2.9404,-2.9423,-3.0808,-3.275,-3.4164,-3.4199,-3.4091,-3.5499,-3.5883,-3.6045,-3.6742,-3.6252,-3.5867,-3.6804,-3.7126,-3.7456,-3.8426,-3.9297,-3.9855,-3.9753,-4.0392,-4.0947,-4.0831,-4.0557,-4.0375,-4.0224,-4.001,-4.0052,-4.0715,-4.0815,-4.1456,-4.3139,-4.2295,-4.192,-4.276,-4.1773,-4.1479,-4.2249,-4.2323,-4.2267,-4.2096,-4.2254,-4.2078,-4.1642,-4.2848,-4.3094,-4.2323,-4.3094,-4.3497,-4.3497,-4.2921,-4.2382,-4.5558,-4.6339,-4.5552,-4.2251,-4.3656,-4.6579,-4.938,-4.9998,-4.9158,-4.6283,-4.0983,-3.4794,-2.8027,0.0,0.0,0.0,0.0,0.0,0.0,0.0,0.0,0.0,0.0,0.0,0.0,0.0,0.0,0.0,0.0,0.0,0.0,0.0,0.0,0.0,-1.798,-1.798,-1.798,-1.798,-1.798,-1.7999,-1.7977,-1.6617,-1.4002,-1.3964,-1.3961,-1.3924,-1.2827,-1.2308,-1.2317,-1.2317,-1.229,-1.2322,-1.2322,-1.2287,-1.2764,-1.6565,-2.0747,-2.4719,-2.6854,-2.837,-2.9484,-2.972,-3.0742,-3.202,-3.2895,-3.3435,-3.4097,-3.5506,-3.5903,-3.6196,-3.7471,-3.7677,-3.7589,-3.79,-3.804,-3.833,-3.9285,-3.9641,-3.9944,-4.0477,-4.0716,-4.0691,-4.0425,-4.0746,-4.0924,-4.0655,-4.1041,-4.1418,-4.1619,-4.1975,-4.2399,-4.2884,-4.2928,-4.3037,-4.3258,-4.2978,-4.2873,-4.313,-4.313,-4.3155,-4.3087,-4.3118,-4.3088,-4.2926,-4.3309,-4.3387,-4.313,-4.3387,-4.3286,-4.2921,-4.2342,-4.1768,-4.5594,-4.547,-4.5587,-4.6173,-4.879,-5.0711,-4.8725,-4.9034,-4.8057,0.0,-3.5409,-2.8282,-2.0918,0.0,0.0,0.0,0.0,0.0,0.0,0.0,0.0,0.0,0.0,0.0,0.0,0.0,0.0,0.0,0.0,0.0,0.0,0.0,0.0,0.0,-1.5752,-1.5752,-1.5752,-1.5752,-1.5752,-1.5769,-1.5741,-1.4561,-1.2262,-1.2271,-1.2322,-1.233,-1.233,-1.2311,-1.2305,-1.2305,-1.2298,-1.2322,-1.2322,-1.3267,-1.4985,-1.8655,-2.1307,-2.3599,-2.7086,-2.8725,-2.9264,-2.9875,-3.0931,-3.2056,-3.24,-3.3436,-3.4686,-3.5625,-3.6498,-3.7357,-3.8462,-3.9021,-3.9233,-3.8981,-3.8972,-3.9249,-4.0124,-4.0272,-4.0431,-4.1254,-4.1178,-4.0997,-4.1089,-4.0994,-4.0825,-4.0628,-4.0921,-4.1288,-4.1595,-4.2203,-4.2717,-4.305,-4.3336,-4.3497,-4.3497,-4.3497,-4.3497,-4.3497,-4.3497,-4.3497,-4.3497,-4.3497,-4.3563,-4.3693,-4.3563,-4.3497,-4.3497,-4.3286,-4.3032,-4.2655,-4.1853,-4.1251,-4.258,-4.1406,-4.3799,-5.3349,-5.4987,-5.2333,-4.4935,-4.4687,-4.3805,-3.5963,0.0,-2.0604,0.0,0.0,0.0,0.0,0.0,0.0,0.0,0.0,0.0,0.0,0.0,0.0,0.0,0.0,0.0,0.0,0.0,0.0,0.0,0.0,0.0,-1.2287,-1.2287,-1.2301,-1.2301,-1.2301,-1.2287,-1.2287,-1.2281,-1.2276,-1.2276,-1.2325,-1.2305,-1.2305,-1.2305,-1.2305,-1.2305,-1.2291,-1.2284,-1.2322,-1.2683,-1.4957,-1.8409,-2.1853,-2.3251,-2.4053,-2.8055,-2.9248,-2.9182,-3.0031,-3.1291,-3.2535,-3.2606,-3.3938,-3.5586,-3.6029,-3.7489,-3.9029,-3.9569,-4.0277,-4.0665,-3.9986,-3.9894,-4.0192,-4.0861,-4.1062,-4.1254,-4.1893,-4.1743,-4.1689,-4.2269,-4.1255,-4.043,-4.0374,-4.0184,-4.0267,-4.1038,-4.1809,-4.258,-4.3314,-4.3461,-4.3497,-4.3497,-4.3497,-4.3497,-4.3497,-4.3497,-4.3497,-4.3497,-4.3497,-4.3664,-4.3974,-4.3664,-4.3497,-4.3428,-4.2957,-4.2655,-4.2537,-4.1385,-4.0839,-5.0112,-5.1327,-5.2863,-5.5134,-4.9524,-4.161,-3.4575,-3.0653,-2.7992,-2.6146,-2.1311,0.0,0.0,0.0,0.0,0.0,0.0,0.0,0.0,0.0,0.0,0.0,0.0,0.0,0.0,0.0,0.0,0.0,0.0,0.0,0.0,0.0,0.0,-1.2318,-1.2318,-1.2284,-1.2289,-1.2284,-1.2318,0.0,-1.2278,-1.2338,-1.2338,-1.2291,-1.2305,-1.2305,-1.2305,-1.2305,-1.2291,-1.2271,-1.2276,-1.2611,-1.5618,-1.7293,-1.8389,-2.1844,-2.4596,-2.6916,-2.8746,-2.9958,-3.0628,-3.0389,-3.1291,-3.2641,-3.3277,-3.4404,-3.5848,-3.7423,-3.8378,-3.9204,-4.0284,-4.0752,-4.0896,-4.0761,-4.0731,-4.0797,-4.0992,-4.1408,-4.1816,-4.197,-4.2144,-4.2036,-4.1366,-4.1278,-4.1237,-4.0977,-4.085,-4.0928,-4.1075,-4.1809,-4.2359,-4.2543,-4.313,-4.3497,-4.3497,-4.3497,-4.3497,-4.3497,-4.3497,-4.3497,-4.3497,-4.3497,-4.3529,-4.3597,-4.3566,-4.3286,-4.2846,-4.2732,-4.2221,-4.1251,-4.1024,-4.0363,-5.3019,-5.5023,-5.4503,-4.9466,-4.162,-3.3621,-2.7936,-2.2998,-1.8885,-1.641,0.0,0.0,0.0,0.0,0.0,0.0,0.0,0.0,0.0,0.0,0.0,0.0,0.0,0.0,0.0,0.0,0.0,0.0,0.0,0.0,0.0,-1.2271,-1.2311,-1.2276,-1.0421,-0.9412,-0.9463,-0.9412,-1.0368,-1.228,-1.2315,-1.2263,-1.2284,-1.2318,-1.2305,-1.2305,-1.2305,-1.2265,-1.2284,-1.229,-1.3401,-1.527,-1.7222,-1.8986,-2.0647,-2.2441,-2.574,-2.9319,-2.9379,-3.0188,-3.1176,-3.1053,-3.1942,-3.3204,-3.3862,-3.5279,-3.687,-3.8079,-3.8967,-3.9737,-4.0535,-4.081,-4.0978,-4.1415,-4.1272,-4.1101,-4.1408,-4.1739,-4.22,-4.297,-4.2965,-4.2716,-4.2157,-4.1353,-4.0591,-4.0042,-4.0304,-4.0671,-4.1075,-4.1809,-4.2433,-4.2837,-4.324,-4.3497,-4.3497,-4.3497,-4.3497,-4.3497,-4.3497,-4.3497,-4.3497,-4.3497,-4.3497,-4.3497,-4.325,-4.2995,-4.2693,-4.2103,-4.1516,-4.0886,-4.0672,-3.9952,-5.2831,-5.3547,-4.9967,-4.0644,-3.3404,0.0,-2.2853,-1.8679,-1.4551,0.0,0.0,0.0,0.0,0.0,0.0,0.0,0.0,0.0,0.0,0.0,0.0,0.0,0.0,0.0,0.0,0.0,0.0,0.0,0.0,0.0,-1.2318,-1.2337,-1.1977,-1.1328,-0.8072,-0.6291,-0.6298,-0.6291,-0.7947,-1.1298,-1.1262,-1.1277,-1.1254,-1.1996,-1.2305,-1.2305,-1.2278,-1.2284,-1.2322,-1.2971,-1.513,-1.8073,-1.8655,-2.0635,-2.3096,-2.309,-2.6548,-3.1032,-3.0067,-3.037,-3.125,-3.1709,-3.2721,-3.3805,-3.449,-3.6172,-3.8003,-3.8455,-3.9351,-4.021,-4.0604,-4.0831,-4.1125,-4.1888,-4.1725,-4.1524,-4.2085,-4.2316,-4.2761,-4.3995,-4.3558,-4.2987,-4.2934,-4.1237,-3.968,-3.9019,-3.9606,-4.0341,-4.1038,-4.1809,-4.2543,-4.3204,-4.3424,-4.3497,-4.3497,-4.3497,-4.3497,-4.3497,-4.3497,-4.3497,-4.3497,-4.3391,-4.3356,-4.3356,-4.2957,-4.2616,-4.2382,-4.142,-4.0874,-4.0733,-4.017,-3.9506,-4.9386,-4.4917,-3.7077,0.0,-2.7575,-2.2713,0.0,0.0,-1.5629,0.0,0.0,0.0,0.0,0.0,0.0,0.0,0.0,0.0,0.0,0.0,0.0,0.0,0.0,0.0,0.0,0.0,0.0,0.0,0.0,0.0,-1.2263,-1.2293,-1.0709,-0.7194,-0.6569,-0.6276,-0.6318,-0.6276,-0.6576,-0.7126,-0.71,-0.7096,-0.7196,-1.0739,-1.2305,-1.2291,-1.233,-1.2276,-1.2539,-1.5861,-1.7532,-1.8275,-2.13,-2.2688,-2.3094,-2.3089,-2.6509,-3.1187,-3.1015,-3.1079,-3.1308,-3.1996,-3.2882,-3.3984,-3.5368,-3.6771,-3.8115,-3.9171,-3.9814,-4.0284,-4.0592,-4.1285,-4.1925,-4.1994,-4.2464,-4.2915,-4.303,-4.3547,-4.3978,-4.3864,-4.2737,-4.1725,-4.1446,-4.0583,-3.9863,-3.9753,-4.0414,-4.1001,-4.1111,-4.1809,-4.2323,-4.2433,-4.3057,-4.3497,-4.3497,-4.3497,-4.3497,-4.3497,-4.3497,-4.3497,-4.3497,-4.3069,-4.2808,-4.2808,-4.2732,-4.218,-4.1115,-4.0978,-4.0672,-4.0204,-3.942,-3.8635,-3.9986,-3.4407,-2.8133,0.0,-2.2491,-1.8464,-1.6299,0.0,0.0,0.0,0.0,0.0,0.0,0.0,0.0,0.0,0.0,0.0,0.0,0.0,0.0,0.0,0.0,0.0,0.0,0.0,0.0,0.0,0.0,-1.1303,-0.907,-0.8922,-0.8161,-0.6346,-0.6297,-0.6325,-0.6338,-0.6318,-0.6304,-0.6311,-0.8618,-0.9669,-0.9745,-1.1501,-1.2311,-1.233,-1.2276,-1.3543,-1.5618,-1.7309,-1.9117,-2.0986,-2.2493,-2.4149,-2.5625,-2.5605,-2.7137,-2.9356,-3.0725,-3.1219,-3.1369,-3.2388,-3.3297,-3.4303,-3.59,-3.7123,-3.8147,-3.9276,-4.0084,-4.0692,-4.1174,-4.197,-4.2761,-4.3201,-4.3547,-4.397,-4.4432,-4.4287,-4.4013,-4.3945,-4.2997,-4.2196,-4.1838,-4.1111,-4.0561,-4.0561,-4.1258,-4.1772,-4.1772,-4.247,-4.2947,-4.2947,-4.3277,-4.3497,-4.3497,-4.3497,-4.3497,-4.3497,-4.3497,-4.3356,-4.3069,-4.2808,-4.2382,-4.1725,-4.176,-4.1464,-4.092,-4.0625,-4.0086,-3.942,-3.9069,-3.827,0.0,0.0,-2.3128,-2.3063,-1.9385,-1.6111,0.0,0.0,0.0,0.0,0.0,0.0,0.0,0.0,0.0,0.0,0.0,0.0,0.0,0.0,0.0,0.0,0.0,0.0,0.0,0.0,0.0,0.0,0.0,-0.9497,-0.6449,-0.627,-0.5822,-0.4711,-0.577,-0.6268,-0.6338,-0.6338,-0.6331,-0.6325,-0.9336,-1.1323,-1.2319,-1.2318,-1.2795,-1.375,-1.3731,-1.5373,-1.8056,-1.8906,-2.0831,-2.3205,-2.3959,-2.5181,-2.658,-2.7328,-2.7607,-2.7938,-3.0371,-3.1219,-3.1443,-3.2672,-3.3623,-3.4545,-3.6148,-3.7218,-3.8129,-3.9266,-4.0239,-4.1063,-4.178,-4.2689,-4.3547,-4.4162,-4.447,-4.4799,-4.536,-4.4704,-4.398,-4.4005,-4.3304,-4.26,-4.2353,-4.1809,-4.1405,-4.1405,-4.2103,-4.2616,-4.2616,-4.313,-4.3497,-4.3497,-4.3497,-4.3497,-4.3497,-4.3497,-4.3497,-4.3497,-4.3497,-4.325,-4.2693,-4.2577,-4.1979,-4.0886,-4.059,-4.0542,-4.0685,-4.0303,-3.9662,-3.8908,-3.869,-3.7873,0.0,-2.2094,0.0,-2.3108,-1.9401,0.0,0.0,0.0,0.0,0.0,0.0,0.0,0.0,0.0,0.0,0.0,0.0,0.0,0.0,0.0,0.0,0.0,0.0,0.0,0.0,0.0,0.0,0.0,0.0,-0.6499,-0.6339,-0.6311,-0.4433,-0.0464,-0.4201,-0.6338,-0.6338,-0.6338,-0.6318,-0.627,-0.654,-0.8618,-1.2276,-1.2284,-1.4258,-1.7722,-1.7705,-1.7803,-1.8262,-2.1481,-2.2967,-2.3374,-2.624,-2.5684,-2.3714,-2.6526,-2.7601,-2.7947,-3.0364,-3.1254,-3.1517,-3.2917,-3.3804,-3.4576,-3.598,-3.7137,-3.814,-3.9287,-4.0225,-4.1131,-4.2193,-4.3331,-4.4239,-4.4278,-4.4932,-4.5455,-4.5201,-4.4834,-4.4444,-4.4087,-4.3093,-4.232,-4.2286,-4.2286,-4.2249,-4.2249,-4.291,-4.3424,-4.3424,-4.3461,-4.3497,-4.3497,-4.3497,-4.3497,-4.3497,-4.3497,-4.3497,-4.3497,-4.3497,-4.325,-4.2693,-4.218,-4.1516,-4.092,-3.9664,-3.9368,-4.0104,-4.0138,-3.9662,-3.8854,-3.8189,-3.7381,0.0,0.0,0.0,-2.1484,-2.0955,-2.0961,0.0,0.0,0.0,0.0,0.0,0.0,0.0,0.0,0.0,0.0,0.0,0.0,0.0,0.0,0.0,0.0,0.0,0.0,0.0,0.0,0.0,0.0,0.0,0.0,-0.6311,-0.6338,-0.5628,-0.4124,-0.5479,-0.6281,-0.6274,-0.6268,-0.6318,-0.627,-0.6298,-0.8412,-1.2305,-1.2281,-1.4387,-1.8011,-1.7978,-1.9285,-2.1173,-2.0268,-1.9798,-2.0141,-2.3438,-2.5244,-2.6094,-2.7208,-2.8697,-3.0212,-3.1039,-3.1751,-3.2397,-3.3205,-3.3896,-3.4703,-3.6008,-3.7255,-3.8402,-3.9341,-4.0807,-4.2307,-4.3118,-4.4072,-4.4882,-4.5089,-4.5355,-4.534,-4.4454,-4.4014,-4.3804,-4.3946,-4.3061,-4.247,-4.2983,-4.3057,-4.3057,-4.3057,-4.3314,-4.3497,-4.3497,-4.3497,-4.3497,-4.3497,-4.3497,-4.3497,-4.3497,-4.3497,-4.3497,-4.3497,-4.3178,-4.2732,-4.218,-4.1516,-4.0745,-3.9664,-3.9143,-3.9016,-3.9315,-3.8832,-3.8189,-3.7408,-3.7144,-3.6631,-2.0641,0.0,0.0,0.0,0.0,-2.2389,0.0,0.0,0.0,0.0,0.0,0.0,0.0,0.0,0.0,0.0,0.0,0.0,0.0,0.0,0.0,0.0,0.0,0.0,0.0,0.0,0.0,0.0,0.0,0.0,-0.6338,-0.6268,-0.6274,-0.6268,-0.4929,-0.4857,-0.6281,-0.6274,-0.6318,-0.6353,-0.7643,-0.9681,-1.2311,-1.3603,-1.5632,-1.7966,-1.8014,-1.9312,-2.128,-2.0138,-1.9687,-1.9923,-2.2214,-2.4913,-2.7583,-2.7594,-2.8728,-3.036,-3.1694,-3.2562,-3.3168,-3.3657,-3.4163,-3.4779,-3.6027,-3.7346,-3.8607,-3.9545,-4.1261,-4.295,-4.3681,-4.4393,-4.5011,-4.5361,-4.5438,-4.5151,-4.4052,-4.3559,-4.3352,-4.3573,-4.2913,-4.2543,-4.3351,-4.3497,-4.3497,-4.3497,-4.3497,-4.3497,-4.3497,-4.3497,-4.3497,-4.3497,-4.3321,-4.3214,-4.3214,-4.3032,-4.2922,-4.2922,-4.258,-4.2139,-4.1516,-4.1115,-4.0266,-3.8908,-3.8461,-3.8154,-3.8101,-3.7905,-3.7381,-3.66,-3.6383,-3.5891,0.0,0.0,0.0,0.0,0.0,0.0,0.0,0.0,0.0,0.0,0.0,0.0,0.0,0.0,0.0,0.0,0.0,0.0,0.0,0.0,0.0,0.0,0.0,0.0,0.0,0.0,0.0,0.0,0.0,-0.629,-0.6338,-0.6338,-0.6268,-0.6119,-0.2104,-0.1948,-0.6054,-0.6126,-0.617,-0.636,-1.0405,-1.2315,-1.2458,-1.6277,-1.8037,-1.8016,-1.7994,-1.8022,-1.8367,-2.1587,-2.3004,-2.3132,-2.3186,-2.5025,-2.7607,-2.7586,-2.76,-2.8179,-3.2158,-3.3582,-3.3697,-3.432,-3.4576,-3.4878,-3.6037,-3.7341,-3.8709,-3.9985,-4.1515,-4.2992,-4.3811,-4.429,-4.4701,-4.4988,-4.5094,-4.4848,-4.4069,-4.3582,-4.3175,-4.2872,-4.2511,-4.2543,-4.3351,-4.3497,-4.3497,-4.3497,-4.3497,-4.3497,-4.3497,-4.3497,-4.3497,-4.3497,-4.3032,-4.2693,-4.2655,-4.2139,-4.181,-4.181,-4.181,-4.1473,-4.0886,-4.0886,-4.0266,-3.8908,-3.7566,-3.68,-3.66,-3.7322,-3.7322,-3.6538,-3.5888,-3.5248,-1.9594,0.0,0.0,0.0,0.0,0.0,0.0,0.0,0.0,0.0,0.0,0.0,0.0,0.0,0.0,0.0,0.0,0.0,0.0,0.0,0.0,0.0,0.0,0.0,0.0,0.0,0.0,0.0,-0.7974,-0.6315,-0.6268,-0.6268,-0.4924,-0.1869,-0.0623,-0.0546,-0.1722,-0.1713,-0.3249,-0.6311,-1.0383,-1.2297,-1.2428,-1.6244,-1.7985,-1.8029,-1.7991,-1.9382,-2.1549,-2.0036,-2.0843,-2.3306,-2.5522,-2.687,-2.7583,-2.7587,-2.7565,-2.803,-3.1036,-3.2961,-3.4129,-3.43,-3.4769,-3.5508,-3.6401,-3.7895,-3.9451,-4.0352,-4.1905,-4.3398,-4.3869,-4.429,-4.4624,-4.4726,-4.4751,-4.4486,-4.3653,-4.3186,-4.2913,-4.2835,-4.2063,-4.1882,-4.324,-4.3497,-4.3497,-4.3497,-4.3497,-4.3497,-4.3497,-4.3497,-4.3356,-4.2995,-4.277,-4.2537,-4.2062,-4.1895,-4.181,-4.181,-4.1385,-4.107,-4.092,-4.0528,-3.9629,-3.8133,-3.8274,-3.7737,-3.66,-3.5799,-3.552,-3.5782,-3.5601,-3.5383,-1.9723,-1.9351,-1.9202,0.0,0.0,0.0,0.0,0.0,0.0,0.0,0.0,0.0,0.0,0.0,0.0,0.0,0.0,0.0,0.0,0.0,0.0,0.0,0.0,0.0,0.0,0.0,0.0,-1.3168,-0.8856,-0.6318,-0.6268,-0.6281,-0.438,-0.0156,0.0,0.0,0.0,0.0,-0.2086,-0.6381,-1.0371,-1.2271,-1.2402,-1.6227,-1.7977,-1.8198,-2.2004,-2.4147,-2.4802,-2.2834,-2.321,-2.5136,-2.6924,-2.7636,-2.7577,-2.7623,-2.8296,-2.9461,-3.0991,-3.2583,-3.4111,-3.4693,-3.5418,-3.6254,-3.7197,-3.8671,-4.0237,-4.1133,-4.2414,-4.3529,-4.3758,-4.3974,-4.4184,-4.4318,-4.4346,-4.412,-4.3267,-4.2941,-4.2797,-4.2805,-4.2137,-4.2029,-4.3277,-4.3497,-4.3497,-4.3497,-4.3497,-4.3497,-4.3497,-4.3286,-4.3069,-4.2732,-4.2262,-4.181,-4.1429,-4.1241,-4.1059,-4.1059,-4.0767,-4.0577,-4.0577,-4.0254,-3.9401,-3.7822,-3.8264,-3.7737,-3.6197,-3.5615,-3.5301,-3.507,-3.537,-3.534,-2.0222,-1.973,-1.8882,0.0,0.0,0.0,0.0,0.0,0.0,0.0,0.0,0.0,0.0,0.0,0.0,0.0,0.0,0.0,0.0,0.0,0.0,0.0,0.0,0.0,0.0,0.0,-1.8934,-1.4832,-0.9394,-0.6317,-0.6338,-0.5886,-0.3917,-0.0156,0.0,0.0,0.0,0.0,-0.2088,-0.6311,-1.036,-1.2318,-1.2431,-1.6281,-1.835,-1.9426,-2.7803,-3.0017,-2.7618,-2.7859,-2.7842,-2.7578,-2.7588,-2.7577,-2.7623,-2.7912,-2.9475,-3.1525,-3.1518,-3.252,-3.405,-3.5412,-3.6253,-3.7002,-3.8146,-3.9464,-4.0846,-4.2013,-4.2913,-4.3497,-4.3497,-4.3497,-4.3563,-4.3881,-4.3937,-4.3751,-4.3007,-4.2888,-4.2895,-4.2872,-4.2553,-4.2543,-4.3351,-4.3497,-4.3497,-4.3497,-4.3497,-4.3497,-4.3428,-4.2958,-4.2655,-4.2537,-4.1516,-4.0874,-4.0827,-4.0368,-4.0087,-4.0087,-4.0087,-4.0087,-4.0087,-4.0003,-3.9262,-3.7822,-3.7763,-3.7044,-3.5577,-3.6168,-3.5859,-3.4592,-3.522,-3.519,0.0,0.0,0.0,0.0,0.0,0.0,0.0,0.0,0.0,0.0,0.0,0.0,0.0,0.0,0.0,0.0,0.0,0.0,0.0,0.0,0.0,0.0,0.0,0.0,0.0,0.0,-1.9707,-1.7409,-1.0463,-0.6331,-0.629,-0.3105,-0.0856,0.0,0.0,0.0,0.0,0.0,-0.2086,-0.6311,-1.0346,-1.229,-1.2429,-1.6273,-2.0482,-2.5082,-2.9551,-3.0051,-2.775,-2.9701,-2.9342,-2.7599,-2.7602,-2.7623,-2.7853,-2.9973,-3.1073,-3.1482,-3.1512,-3.3157,-3.5463,-3.695,-3.7172,-3.7055,-3.8444,-3.9376,-4.0359,-4.2106,-4.3069,-4.3497,-4.3497,-4.3497,-4.3532,-4.3563,-4.3597,-4.356,-4.3376,-4.3339,-4.3339,-4.3376,-4.2794,-4.2543,-4.3351,-4.3497,-4.3497,-4.3497,-4.3497,-4.3321,-4.2884,-4.2732,-4.2342,-4.141,-4.1059,-4.0733,-4.0269,-4.0154,-4.0087,-4.0087,-4.0087,-4.0087,-4.0087,-3.9506,-3.869,-3.7822,-3.6658,-3.5931,-3.5577,-3.5672,-3.5529,-3.531,-3.5459,-3.5429,0.0,0.0,0.0,-1.9519,0.0,0.0,0.0,0.0,0.0,0.0,0.0,0.0,0.0,0.0,0.0,0.0,0.0,0.0,0.0,0.0,0.0,0.0,0.0,0.0,0.0,0.0,-2.2402,-1.8319,-1.2597,-0.844,-0.6444,-0.2325,0.0934,0.3054,0.3132,0.3136,0.3142,0.1092,-0.2088,-0.6311,-1.0398,-1.3288,-1.527,-1.892,-2.2943,-2.7138,-2.8828,-2.88,-2.7789,-3.0192,-3.1324,-3.1316,-2.8656,-2.839,-2.9738,-3.1036,-3.148,-3.1702,-3.3096,-3.4426,-3.586,-3.7364,-3.7807,-3.7936,-3.905,-4.0234,-4.1522,-4.2775,-4.3286,-4.3463,-4.3178,-4.3286,-4.3463,-4.3178,-4.3105,-4.3105,-4.3105,-4.3105,-4.3105,-4.3105,-4.2957,-4.302,-4.3424,-4.3497,-4.3497,-4.3497,-4.3497,-4.3286,-4.277,-4.2422,-4.1753,-4.0527,-4.0466,-4.0246,-3.963,-3.9884,-4.0087,-4.0087,-4.0087,-3.9901,-3.9558,-3.9069,-3.8417,-3.7335,-3.5512,-3.494,-3.5577,-3.5213,-3.516,-3.5519,-3.5519,-3.5519,0.0,0.0,0.0,0.0,0.0,-1.7358,0.0,0.0,0.0,0.0,0.0,0.0,0.0,0.0,0.0,0.0,0.0,0.0,0.0,0.0,0.0,0.0,0.0,0.0,0.0,0.0,-2.4921,-1.8502,-1.449,-1.0525,-0.6521,-0.2322,0.1946,0.6159,0.6322,0.5918,0.5118,0.1717,-0.2093,-0.6353,-1.0346,-1.4329,-1.8052,-2.0856,-2.379,-2.6769,-2.7365,-2.7618,-2.7793,-3.0207,-3.2624,-3.4351,-3.0055,-2.9645,-3.1475,-3.1536,-3.152,-3.1792,-3.4027,-3.5169,-3.5883,-3.7725,-3.8704,-3.9214,-3.9848,-4.1273,-4.277,-4.3069,-4.325,-4.3214,-4.2693,-4.2846,-4.3069,-4.2655,-4.2537,-4.2577,-4.2655,-4.2693,-4.2804,-4.3025,-4.3324,-4.3497,-4.3497,-4.3497,-4.3463,-4.3356,-4.3321,-4.3142,-4.2422,-4.1937,-4.1174,-3.9997,-4.0027,-3.9851,-3.9242,-3.9749,-4.0087,-4.0087,-4.0087,-3.9714,-3.8908,-3.8603,-3.7713,-3.6204,-3.4422,-3.4091,-3.5183,-3.4636,-3.4711,-3.5519,-3.5519,-3.5519,0.0,0.0,0.0,0.0,-1.4712,0.0,0.0,0.0,0.0,0.0,0.0,0.0,0.0,0.0,0.0,0.0,0.0,0.0,0.0,0.0,0.0,0.0,0.0,0.0,0.0,0.0,0.0,-1.8485,-1.4453,-1.0562,-0.654,-0.2315,0.1942,0.6139,0.6281,0.453,0.078,0.0233,-0.2104,-0.6342,-1.0338,-1.4304,-1.799,-1.8374,-2.0438,-2.375,-2.6469,-2.7612,-2.7799,-3.0195,-3.1477,-3.1894,-3.13,-3.1257,-3.1504,-3.1481,-3.1518,-3.1518,-3.188,-3.3547,-3.6109,-3.8903,-4.0336,-4.0908,-4.0851,-4.1732,-4.2616,-4.2103,-4.2382,-4.2655,-4.2062,-4.1937,-4.1979,-4.1937,-4.1895,-4.2021,-4.2577,-4.2693,-4.3025,-4.4236,-4.394,-4.3497,-4.3497,-4.3497,-4.3321,-4.2846,-4.277,-4.2382,-4.1251,-4.1024,-4.0745,-4.0118,-4.007,-4.0054,-3.9952,-4.002,-4.0087,-4.0087,-4.0087,-3.9714,-3.8908,-3.7584,-3.589,-3.391,-3.3637,-3.3576,-3.3727,-3.3666,-3.4262,-3.5519,-3.5519,-3.5519,0.0,0.0,0.0,0.0,0.0,0.0,-1.5534,0.0,-1.7561,0.0,0.0,0.0,0.0,0.0,0.0,0.0,0.0,0.0,0.0,0.0,0.0,0.0,0.0,0.0,0.0,0.0,0.0,0.0,0.0,-1.0575,-0.6543,-0.2304,0.1938,0.6177,0.627,0.5422,0.3647,0.1203,-0.2099,-0.6331,-1.1065,-1.3834,-1.4778,-1.8016,-2.2628,-2.8063,-2.9315,-2.9852,-2.994,-3.0958,-3.1413,-3.1518,-3.1473,-3.2454,-3.373,-3.2109,-3.1501,-3.1531,-3.1497,-3.4473,-3.8421,-3.9716,-4.0597,-4.1233,-4.1445,-4.1768,-4.2221,-4.2302,-4.2262,-4.2021,-4.1429,-4.1516,-4.1725,-4.134,-4.1251,-4.1429,-4.2021,-4.2542,-4.291,-4.3005,-4.3749,-4.3973,-4.2724,-4.2772,-4.2995,-4.2732,-4.2382,-4.1718,-4.0433,-4.0262,-3.9893,-3.8967,-3.9208,-3.9445,-3.9445,-3.9851,-4.0087,-4.0087,-3.9295,-3.8613,-3.8246,-3.6409,-3.4969,-3.4083,-3.3305,-3.3125,-3.3484,-3.3484,-3.3993,-3.4921,-3.531,-3.5519,-1.8291,0.0,0.0,0.0,0.0,0.0,0.0,0.0,0.0,0.0,0.0,0.0,0.0,0.0,0.0,0.0,0.0,0.0,0.0,0.0,0.0,0.0,0.0,0.0,0.0,0.0,0.0,0.0,0.0,0.0,-0.6589,-0.2299,0.1951,0.6139,0.7381,0.7473,0.6539,0.2144,-0.2155,-0.6565,-1.1629,-1.3669,-1.3044,-1.9298,-2.5074,-3.0164,-3.1079,-3.1927,-3.256,-3.1796,-3.1485,-3.1529,-3.1488,-3.2737,-3.4198,-3.2219,-3.1485,-3.1634,-3.2321,-3.5873,-4.0113,-4.0104,-4.0431,-4.1013,-4.1499,-4.1717,-4.1853,-4.2103,-4.1895,-4.142,-4.0827,-4.1013,-4.1241,-4.078,-4.0685,-4.0827,-4.1464,-4.2018,-4.2388,-4.22,-4.3358,-4.3984,-4.2676,-4.2608,-4.2633,-4.2257,-4.1853,-4.1095,-3.9733,-3.979,-3.9465,-3.8309,-3.887,-3.9276,-3.9276,-3.9783,-4.0087,-4.0087,-3.8668,-3.7822,-3.7822,-3.583,-3.4681,-3.4472,-3.3544,-3.3215,-3.3484,-3.3664,-3.3993,-3.4502,-3.519,-3.5519,0.0,0.0,0.0,-1.5457,0.0,0.0,0.0,0.0,-2.04,0.0,0.0,0.0,0.0,0.0,0.0,0.0,0.0,0.0,0.0,0.0,0.0,0.0,0.0,0.0,0.0,0.0,0.0,0.0,0.0,0.0,-0.6736,-0.2304,0.1909,0.6163,1.007,1.0471,0.709,0.233,-0.242,-0.714,-1.1873,-1.4069,-1.4289,-2.2586,-2.6465,-2.6806,-3.0087,-3.2976,-3.5159,-3.2556,-3.1515,-3.148,-3.1509,-3.1544,-3.1634,-3.1504,-3.1509,-3.1871,-3.4472,-3.7437,-4.0121,-4.0087,-4.0144,-4.0262,-4.1001,-4.148,-4.1682,-4.1115,-4.0932,-4.0827,-4.0254,-4.0104,-4.0154,-4.0104,-4.0138,-4.0303,-4.0827,-4.0967,-4.1359,-4.2723,-4.2943,-4.3191,-4.3899,-4.3404,-4.245,-4.1163,-4.0932,-4.0491,-3.9219,-3.9664,-3.9799,-3.9039,-3.9614,-4.0054,-4.0054,-4.0054,-4.0087,-4.0087,-3.8668,-3.7822,-3.7822,-3.629,-3.516,-3.4472,-3.4442,-3.4113,-3.3484,-3.4143,-3.4442,-3.4502,-3.519,-3.5519,0.0,0.0,-1.4187,-1.4544,0.0,0.0,0.0,0.0,0.0,0.0,0.0,0.0,0.0,0.0,0.0,0.0,0.0,0.0,0.0,0.0,0.0,0.0,0.0,0.0,0.0,0.0,0.0,0.0,0.0,0.0,0.0,-0.1066,0.4962,0.6784,0.8187,0.8284,0.7098,0.2399,-0.2401,-0.7119,-1.1827,-1.5644,-1.8515,-2.1324,-2.4023,-2.6687,-3.0017,-3.3036,-3.5252,-3.2586,-3.1486,-3.1482,-3.1482,-3.1514,-3.1486,-3.1515,-3.2617,-3.4576,-3.7552,-3.9226,-4.0087,-4.0087,-4.0109,-4.0227,-4.0851,-4.1094,-4.1161,-4.0967,-4.0672,-4.0319,-4.0154,-4.0087,-4.0087,-4.0087,-4.0087,-4.0353,-4.1286,-4.1939,-4.2405,-4.2829,-4.3368,-4.3381,-4.2368,-4.1931,-4.1788,-4.1704,-4.092,-4.0031,-3.9122,-3.9208,-3.9276,-3.9005,-3.9208,-3.9546,-4.0054,-4.0087,-4.0087,-4.0087,-3.8668,-3.7822,-3.7822,-3.6321,-3.54,-3.516,-3.4711,-3.4352,-3.4143,-3.4352,-3.4472,-3.4502,-3.519,-3.5519,-1.6053,-1.5294,0.0,-1.4688,-1.3481,0.0,-1.4229,0.0,0.0,0.0,0.0,0.0,0.0,0.0,0.0,0.0,0.0,0.0,0.0,0.0,0.0,0.0,0.0,0.0,0.0,0.0,0.0,0.0,0.0,0.0,0.0,0.0,0.2977,0.327,0.5798,0.63,0.4579,-0.0174,-0.4875,-0.9677,-1.4239,-1.79,-2.0631,-2.2077,-2.4743,-2.842,-3.0557,-3.2466,-3.3952,-3.2228,-3.1486,-3.1482,-3.1513,-3.1486,-3.1602,-3.2586,-3.4001,-3.5952,-3.8998,-4.008,-4.0087,-4.0087,-4.0099,-4.0185,-4.0474,-4.0625,-4.0625,-4.0625,-4.0368,-4.0087,-4.0087,-4.0087,-4.0087,-4.0087,-4.0087,-4.0303,-4.1047,-4.1579,-4.1974,-4.1928,-4.2556,-4.2653,-4.1426,-4.1204,-4.1257,-4.1351,-4.066,-3.9817,-3.9073,-3.9208,-3.9276,-3.9039,-3.9208,-3.958,-4.0054,-3.985,-3.9662,-3.9662,-3.8246,-3.7381,-3.7381,-3.6196,-3.5519,-3.5519,-3.507,-3.4711,-3.4472,-3.4711,-3.4711,-3.4502,-3.519,-3.5519]}]]